<?xml version="1.0" encoding="UTF-8" standalone="no" ?>
<gpx xmlns="http://www.topografix.com/GPX/1/1" xmlns:xsi="http://www.w3.org/2001/XMLSchema-instance" xsi:schemaLocation="http://www.topografix.com/GPX/1/1 http://www.topografix.com/GPX/1/1/gpx.xsd" version="1.1" creator="VisuGPX - https://www.visugpx.com">
  <metadata>
    <name>Milly-Trois-Pignons</name>
    <desc><![CDATA[Boucle dans la forêt des 3 Pignons.
Dénivelé barométrique: 512 m]]></desc>
  </metadata>
  <wpt lat="48.40519" lon="2.50779">
    <ele>71</ele>
    <name><![CDATA[0000426]]></name>
    <type><![CDATA[Point de départ]]></type>
  </wpt>
  <wpt lat="48.40532" lon="2.50799">
    <ele>71.1</ele>
    <name><![CDATA[0000427]]></name>
    <desc><![CDATA[<p><br /><h3>Nom: Segment: 1</h3><br />Heure de départ: 10:43 7 nov. 2024<br/>Heure d'arrivée: 15:37 7 nov. 2024<br/>Distance: 42,5km (04:53)<br/>Temps déplacement: 03:33<br/>Vitesse moyenne: 8,68 km/h<br/>Vitesse moyenne mouv.: 11,96 km/h<br/>Vitesse Max.: 37,18 km/h<br/>Altitude minimale: 57 m<br/>Altitude maximale: 127 m<br/>Vitesse de montée: 235,2 m/h<br/>Vitesse de descente: -413,2 m/h<br/>Gain d'altitude: 712 m<br/>Perte d'altitude: -709 m<br/>Temps de montée: 03:01<br/>Temps de descente: 01:42<br/></p>]]></desc>
    <type><![CDATA[Point d'arrivée]]></type>
  </wpt>
  <trk>
    <name><![CDATA[sortie milly 43 km]]></name>
    <desc><![CDATA[<p>Heure de départ: 10:43 7 nov. 2024<br/>Heure d'arrivée: 15:37 7 nov. 2024<br/>Distance: 42,5 km (04:53)<br/>Temps déplacement: 03:33<br/>Vitesse moyenne: 8,68 km/h<br/>Vitesse moyenne mouv.: 11,97 km/h<br/>Vitesse Max.: 37,18 km/h<br/>Altitude minimale: 57 m<br/>Altitude maximale: 127 m<br/>Vitesse de montée: 193 m/h<br/>Vitesse de descente: -374,5 m/h<br/>Gain d'altitude: 601 m<br/>Perte d'altitude: -602 m<br/>Temps de montée: 03:06<br/>Temps de descente: 01:36<br/></p><hr align="center" width="480" style="height: 2px; width: 517px"/>]]></desc>
    <trkseg>
      <trkpt lat="48.40519" lon="2.50779">
        <ele>71</ele>
        <time>2024-11-07T09:43:13Z</time>
      </trkpt>
      <trkpt lat="48.40532" lon="2.50802">
        <ele>71.2</ele>
        <time>2024-11-07T09:48:41Z</time>
      </trkpt>
      <trkpt lat="48.40549" lon="2.5082">
        <ele>71.8</ele>
        <time>2024-11-07T09:48:47Z</time>
      </trkpt>
      <trkpt lat="48.40567" lon="2.50802">
        <ele>72</ele>
        <time>2024-11-07T09:48:54Z</time>
      </trkpt>
      <trkpt lat="48.40582" lon="2.50781">
        <ele>72</ele>
        <time>2024-11-07T09:49:00Z</time>
      </trkpt>
      <trkpt lat="48.40597" lon="2.50764">
        <ele>72</ele>
        <time>2024-11-07T09:49:06Z</time>
      </trkpt>
      <trkpt lat="48.40612" lon="2.50746">
        <ele>72</ele>
        <time>2024-11-07T09:49:14Z</time>
      </trkpt>
      <trkpt lat="48.40626" lon="2.50726">
        <ele>72</ele>
        <time>2024-11-07T09:49:20Z</time>
      </trkpt>
      <trkpt lat="48.40642" lon="2.50707">
        <ele>72</ele>
        <time>2024-11-07T09:49:26Z</time>
      </trkpt>
      <trkpt lat="48.40657" lon="2.50689">
        <ele>72.2</ele>
        <time>2024-11-07T09:49:31Z</time>
      </trkpt>
      <trkpt lat="48.40672" lon="2.50668">
        <ele>73</ele>
        <time>2024-11-07T09:49:37Z</time>
      </trkpt>
      <trkpt lat="48.40688" lon="2.50648">
        <ele>73</ele>
        <time>2024-11-07T09:49:43Z</time>
      </trkpt>
      <trkpt lat="48.40703" lon="2.5063">
        <ele>73.1</ele>
        <time>2024-11-07T09:49:49Z</time>
      </trkpt>
      <trkpt lat="48.4072" lon="2.50611">
        <ele>73.9</ele>
        <time>2024-11-07T09:49:55Z</time>
      </trkpt>
      <trkpt lat="48.40736" lon="2.50593">
        <ele>74</ele>
        <time>2024-11-07T09:50:01Z</time>
      </trkpt>
      <trkpt lat="48.40752" lon="2.50573">
        <ele>74</ele>
        <time>2024-11-07T09:50:07Z</time>
      </trkpt>
      <trkpt lat="48.40769" lon="2.50555">
        <ele>74</ele>
        <time>2024-11-07T09:50:13Z</time>
      </trkpt>
      <trkpt lat="48.40783" lon="2.50537">
        <ele>74.5</ele>
        <time>2024-11-07T09:50:18Z</time>
      </trkpt>
      <trkpt lat="48.40797" lon="2.50519">
        <ele>74.5</ele>
        <time>2024-11-07T09:50:23Z</time>
      </trkpt>
      <trkpt lat="48.40812" lon="2.50503">
        <ele>74.9</ele>
        <time>2024-11-07T09:50:28Z</time>
      </trkpt>
      <trkpt lat="48.40826" lon="2.50485">
        <ele>75</ele>
        <time>2024-11-07T09:50:33Z</time>
      </trkpt>
      <trkpt lat="48.40841" lon="2.50468">
        <ele>75.1</ele>
        <time>2024-11-07T09:50:38Z</time>
      </trkpt>
      <trkpt lat="48.40856" lon="2.50452">
        <ele>75.1</ele>
        <time>2024-11-07T09:50:43Z</time>
      </trkpt>
      <trkpt lat="48.40872" lon="2.50436">
        <ele>75.6</ele>
        <time>2024-11-07T09:50:48Z</time>
      </trkpt>
      <trkpt lat="48.40888" lon="2.50421">
        <ele>76</ele>
        <time>2024-11-07T09:50:53Z</time>
      </trkpt>
      <trkpt lat="48.40905" lon="2.50408">
        <ele>76.6</ele>
        <time>2024-11-07T09:50:58Z</time>
      </trkpt>
      <trkpt lat="48.40921" lon="2.50394">
        <ele>77.2</ele>
        <time>2024-11-07T09:51:03Z</time>
      </trkpt>
      <trkpt lat="48.40938" lon="2.5038">
        <ele>77.8</ele>
        <time>2024-11-07T09:51:09Z</time>
      </trkpt>
      <trkpt lat="48.40952" lon="2.50357">
        <ele>78.3</ele>
        <time>2024-11-07T09:51:15Z</time>
      </trkpt>
      <trkpt lat="48.40956" lon="2.50326">
        <ele>78.4</ele>
        <time>2024-11-07T09:51:21Z</time>
      </trkpt>
      <trkpt lat="48.40958" lon="2.50297">
        <ele>78.5</ele>
        <time>2024-11-07T09:51:26Z</time>
      </trkpt>
      <trkpt lat="48.40962" lon="2.50268">
        <ele>78.6</ele>
        <time>2024-11-07T09:51:31Z</time>
      </trkpt>
      <trkpt lat="48.40966" lon="2.50237">
        <ele>79.1</ele>
        <time>2024-11-07T09:51:37Z</time>
      </trkpt>
      <trkpt lat="48.40971" lon="2.50209">
        <ele>79.5</ele>
        <time>2024-11-07T09:51:42Z</time>
      </trkpt>
      <trkpt lat="48.40976" lon="2.50178">
        <ele>79.3</ele>
        <time>2024-11-07T09:51:48Z</time>
      </trkpt>
      <trkpt lat="48.4098" lon="2.50147">
        <ele>79.4</ele>
        <time>2024-11-07T09:51:54Z</time>
      </trkpt>
      <trkpt lat="48.40982" lon="2.50119">
        <ele>79.4</ele>
        <time>2024-11-07T09:51:59Z</time>
      </trkpt>
      <trkpt lat="48.4098" lon="2.50089">
        <ele>79.9</ele>
        <time>2024-11-07T09:52:05Z</time>
      </trkpt>
      <trkpt lat="48.40981" lon="2.50057">
        <ele>81</ele>
        <time>2024-11-07T09:52:11Z</time>
      </trkpt>
      <trkpt lat="48.40988" lon="2.5003">
        <ele>81.9</ele>
        <time>2024-11-07T09:52:17Z</time>
      </trkpt>
      <trkpt lat="48.40998" lon="2.50005">
        <ele>82.8</ele>
        <time>2024-11-07T09:52:23Z</time>
      </trkpt>
      <trkpt lat="48.41006" lon="2.49978">
        <ele>83.8</ele>
        <time>2024-11-07T09:52:30Z</time>
      </trkpt>
      <trkpt lat="48.41007" lon="2.4995">
        <ele>84.8</ele>
        <time>2024-11-07T09:52:39Z</time>
      </trkpt>
      <trkpt lat="48.4101" lon="2.49923">
        <ele>85.5</ele>
        <time>2024-11-07T09:52:45Z</time>
      </trkpt>
      <trkpt lat="48.41013" lon="2.49896">
        <ele>85.9</ele>
        <time>2024-11-07T09:52:50Z</time>
      </trkpt>
      <trkpt lat="48.41016" lon="2.49868">
        <ele>86.3</ele>
        <time>2024-11-07T09:52:55Z</time>
      </trkpt>
      <trkpt lat="48.41017" lon="2.4984">
        <ele>86.4</ele>
        <time>2024-11-07T09:53:00Z</time>
      </trkpt>
      <trkpt lat="48.41018" lon="2.49808">
        <ele>87.3</ele>
        <time>2024-11-07T09:53:06Z</time>
      </trkpt>
      <trkpt lat="48.4102" lon="2.49781">
        <ele>87.3</ele>
        <time>2024-11-07T09:53:11Z</time>
      </trkpt>
      <trkpt lat="48.41024" lon="2.4975">
        <ele>88.1</ele>
        <time>2024-11-07T09:53:17Z</time>
      </trkpt>
      <trkpt lat="48.41031" lon="2.4972">
        <ele>88</ele>
        <time>2024-11-07T09:53:23Z</time>
      </trkpt>
      <trkpt lat="48.41035" lon="2.49691">
        <ele>88.9</ele>
        <time>2024-11-07T09:53:29Z</time>
      </trkpt>
      <trkpt lat="48.41038" lon="2.49663">
        <ele>89.7</ele>
        <time>2024-11-07T09:53:35Z</time>
      </trkpt>
      <trkpt lat="48.41041" lon="2.49635">
        <ele>90.2</ele>
        <time>2024-11-07T09:53:41Z</time>
      </trkpt>
      <trkpt lat="48.41044" lon="2.49607">
        <ele>91</ele>
        <time>2024-11-07T09:53:47Z</time>
      </trkpt>
      <trkpt lat="48.41046" lon="2.49576">
        <ele>92.1</ele>
        <time>2024-11-07T09:53:54Z</time>
      </trkpt>
      <trkpt lat="48.41048" lon="2.49547">
        <ele>93.6</ele>
        <time>2024-11-07T09:54:01Z</time>
      </trkpt>
      <trkpt lat="48.41051" lon="2.49517">
        <ele>94.6</ele>
        <time>2024-11-07T09:54:09Z</time>
      </trkpt>
      <trkpt lat="48.41054" lon="2.49488">
        <ele>95.9</ele>
        <time>2024-11-07T09:54:18Z</time>
      </trkpt>
      <trkpt lat="48.41057" lon="2.49461">
        <ele>97.9</ele>
        <time>2024-11-07T09:54:26Z</time>
      </trkpt>
      <trkpt lat="48.41063" lon="2.49435">
        <ele>99.9</ele>
        <time>2024-11-07T09:54:34Z</time>
      </trkpt>
      <trkpt lat="48.4107" lon="2.49407">
        <ele>102.3</ele>
        <time>2024-11-07T09:54:43Z</time>
      </trkpt>
      <trkpt lat="48.41077" lon="2.49378">
        <ele>104</ele>
        <time>2024-11-07T09:54:51Z</time>
      </trkpt>
      <trkpt lat="48.41085" lon="2.4935">
        <ele>104.6</ele>
        <time>2024-11-07T09:54:57Z</time>
      </trkpt>
      <trkpt lat="48.41092" lon="2.49323">
        <ele>105.9</ele>
        <time>2024-11-07T09:55:02Z</time>
      </trkpt>
      <trkpt lat="48.41098" lon="2.49296">
        <ele>105</ele>
        <time>2024-11-07T09:55:07Z</time>
      </trkpt>
      <trkpt lat="48.41104" lon="2.49264">
        <ele>102.7</ele>
        <time>2024-11-07T09:55:12Z</time>
      </trkpt>
      <trkpt lat="48.41108" lon="2.49232">
        <ele>100.7</ele>
        <time>2024-11-07T09:55:16Z</time>
      </trkpt>
      <trkpt lat="48.41112" lon="2.49201">
        <ele>98.6</ele>
        <time>2024-11-07T09:55:19Z</time>
      </trkpt>
      <trkpt lat="48.41116" lon="2.49169">
        <ele>96.5</ele>
        <time>2024-11-07T09:55:22Z</time>
      </trkpt>
      <trkpt lat="48.4112" lon="2.4914">
        <ele>94.8</ele>
        <time>2024-11-07T09:55:25Z</time>
      </trkpt>
      <trkpt lat="48.41127" lon="2.49114">
        <ele>94.3</ele>
        <time>2024-11-07T09:55:28Z</time>
      </trkpt>
      <trkpt lat="48.41135" lon="2.49087">
        <ele>94</ele>
        <time>2024-11-07T09:55:31Z</time>
      </trkpt>
      <trkpt lat="48.41144" lon="2.4906">
        <ele>93.5</ele>
        <time>2024-11-07T09:55:34Z</time>
      </trkpt>
      <trkpt lat="48.41151" lon="2.49033">
        <ele>93.1</ele>
        <time>2024-11-07T09:55:37Z</time>
      </trkpt>
      <trkpt lat="48.41159" lon="2.49008">
        <ele>92.7</ele>
        <time>2024-11-07T09:55:40Z</time>
      </trkpt>
      <trkpt lat="48.41168" lon="2.48984">
        <ele>92.6</ele>
        <time>2024-11-07T09:55:44Z</time>
      </trkpt>
      <trkpt lat="48.41176" lon="2.48956">
        <ele>92.5</ele>
        <time>2024-11-07T09:55:49Z</time>
      </trkpt>
      <trkpt lat="48.41182" lon="2.48929">
        <ele>91.8</ele>
        <time>2024-11-07T09:55:54Z</time>
      </trkpt>
      <trkpt lat="48.41189" lon="2.48898">
        <ele>90.8</ele>
        <time>2024-11-07T09:55:59Z</time>
      </trkpt>
      <trkpt lat="48.41194" lon="2.48867">
        <ele>90.2</ele>
        <time>2024-11-07T09:56:04Z</time>
      </trkpt>
      <trkpt lat="48.41198" lon="2.48836">
        <ele>89.8</ele>
        <time>2024-11-07T09:56:09Z</time>
      </trkpt>
      <trkpt lat="48.41201" lon="2.48807">
        <ele>90.4</ele>
        <time>2024-11-07T09:56:14Z</time>
      </trkpt>
      <trkpt lat="48.41204" lon="2.4878">
        <ele>90.1</ele>
        <time>2024-11-07T09:56:19Z</time>
      </trkpt>
      <trkpt lat="48.41208" lon="2.4875">
        <ele>91</ele>
        <time>2024-11-07T09:56:24Z</time>
      </trkpt>
      <trkpt lat="48.41212" lon="2.48723">
        <ele>90.9</ele>
        <time>2024-11-07T09:56:29Z</time>
      </trkpt>
      <trkpt lat="48.41217" lon="2.48695">
        <ele>91.1</ele>
        <time>2024-11-07T09:56:35Z</time>
      </trkpt>
      <trkpt lat="48.41221" lon="2.48669">
        <ele>90.9</ele>
        <time>2024-11-07T09:56:43Z</time>
      </trkpt>
      <trkpt lat="48.41227" lon="2.48642">
        <ele>90.2</ele>
        <time>2024-11-07T09:56:50Z</time>
      </trkpt>
      <trkpt lat="48.41235" lon="2.48616">
        <ele>90.2</ele>
        <time>2024-11-07T09:56:56Z</time>
      </trkpt>
      <trkpt lat="48.41243" lon="2.48589">
        <ele>89.6</ele>
        <time>2024-11-07T09:57:04Z</time>
      </trkpt>
      <trkpt lat="48.41252" lon="2.48566">
        <ele>89.8</ele>
        <time>2024-11-07T09:57:14Z</time>
      </trkpt>
      <trkpt lat="48.41262" lon="2.48541">
        <ele>90</ele>
        <time>2024-11-07T09:57:23Z</time>
      </trkpt>
      <trkpt lat="48.41269" lon="2.48513">
        <ele>89.6</ele>
        <time>2024-11-07T09:57:32Z</time>
      </trkpt>
      <trkpt lat="48.41276" lon="2.48486">
        <ele>88.8</ele>
        <time>2024-11-07T09:57:39Z</time>
      </trkpt>
      <trkpt lat="48.41283" lon="2.4846">
        <ele>88.3</ele>
        <time>2024-11-07T09:57:45Z</time>
      </trkpt>
      <trkpt lat="48.41287" lon="2.48432">
        <ele>88.2</ele>
        <time>2024-11-07T09:57:50Z</time>
      </trkpt>
      <trkpt lat="48.41287" lon="2.48401">
        <ele>87.4</ele>
        <time>2024-11-07T09:57:55Z</time>
      </trkpt>
      <trkpt lat="48.41285" lon="2.48372">
        <ele>86</ele>
        <time>2024-11-07T09:58:00Z</time>
      </trkpt>
      <trkpt lat="48.4128" lon="2.4834">
        <ele>84.3</ele>
        <time>2024-11-07T09:58:05Z</time>
      </trkpt>
      <trkpt lat="48.41278" lon="2.48307">
        <ele>83.1</ele>
        <time>2024-11-07T09:58:09Z</time>
      </trkpt>
      <trkpt lat="48.41277" lon="2.48278">
        <ele>82</ele>
        <time>2024-11-07T09:58:13Z</time>
      </trkpt>
      <trkpt lat="48.41277" lon="2.4825">
        <ele>82</ele>
        <time>2024-11-07T09:58:17Z</time>
      </trkpt>
      <trkpt lat="48.41276" lon="2.48222">
        <ele>82</ele>
        <time>2024-11-07T09:58:21Z</time>
      </trkpt>
      <trkpt lat="48.41275" lon="2.48194">
        <ele>81.2</ele>
        <time>2024-11-07T09:58:25Z</time>
      </trkpt>
      <trkpt lat="48.41275" lon="2.48165">
        <ele>81.2</ele>
        <time>2024-11-07T09:58:29Z</time>
      </trkpt>
      <trkpt lat="48.41278" lon="2.48131">
        <ele>81</ele>
        <time>2024-11-07T09:58:33Z</time>
      </trkpt>
      <trkpt lat="48.41281" lon="2.48104">
        <ele>80.4</ele>
        <time>2024-11-07T09:58:36Z</time>
      </trkpt>
      <trkpt lat="48.41282" lon="2.48076">
        <ele>79.7</ele>
        <time>2024-11-07T09:58:39Z</time>
      </trkpt>
      <trkpt lat="48.41284" lon="2.48048">
        <ele>79.6</ele>
        <time>2024-11-07T09:58:42Z</time>
      </trkpt>
      <trkpt lat="48.41284" lon="2.48019">
        <ele>79.3</ele>
        <time>2024-11-07T09:58:45Z</time>
      </trkpt>
      <trkpt lat="48.41282" lon="2.4799">
        <ele>78.8</ele>
        <time>2024-11-07T09:58:48Z</time>
      </trkpt>
      <trkpt lat="48.4128" lon="2.47961">
        <ele>78.5</ele>
        <time>2024-11-07T09:58:51Z</time>
      </trkpt>
      <trkpt lat="48.41278" lon="2.47933">
        <ele>78</ele>
        <time>2024-11-07T09:58:54Z</time>
      </trkpt>
      <trkpt lat="48.41274" lon="2.47905">
        <ele>77.9</ele>
        <time>2024-11-07T09:58:57Z</time>
      </trkpt>
      <trkpt lat="48.4127" lon="2.47878">
        <ele>77.6</ele>
        <time>2024-11-07T09:59:00Z</time>
      </trkpt>
      <trkpt lat="48.41266" lon="2.4785">
        <ele>77.7</ele>
        <time>2024-11-07T09:59:03Z</time>
      </trkpt>
      <trkpt lat="48.41261" lon="2.47824">
        <ele>77.3</ele>
        <time>2024-11-07T09:59:06Z</time>
      </trkpt>
      <trkpt lat="48.41254" lon="2.47791">
        <ele>76.9</ele>
        <time>2024-11-07T09:59:10Z</time>
      </trkpt>
      <trkpt lat="48.41245" lon="2.47758">
        <ele>76.6</ele>
        <time>2024-11-07T09:59:14Z</time>
      </trkpt>
      <trkpt lat="48.41236" lon="2.4773">
        <ele>76.6</ele>
        <time>2024-11-07T09:59:18Z</time>
      </trkpt>
      <trkpt lat="48.41256" lon="2.47728">
        <ele>75.6</ele>
        <time>2024-11-07T10:00:38Z</time>
      </trkpt>
      <trkpt lat="48.41274" lon="2.47743">
        <ele>74.9</ele>
        <time>2024-11-07T10:00:43Z</time>
      </trkpt>
      <trkpt lat="48.41293" lon="2.47761">
        <ele>74.9</ele>
        <time>2024-11-07T10:00:48Z</time>
      </trkpt>
      <trkpt lat="48.41309" lon="2.47777">
        <ele>74.9</ele>
        <time>2024-11-07T10:00:52Z</time>
      </trkpt>
      <trkpt lat="48.41325" lon="2.47794">
        <ele>74.9</ele>
        <time>2024-11-07T10:00:56Z</time>
      </trkpt>
      <trkpt lat="48.41341" lon="2.47813">
        <ele>74.7</ele>
        <time>2024-11-07T10:01:00Z</time>
      </trkpt>
      <trkpt lat="48.41359" lon="2.47834">
        <ele>74.1</ele>
        <time>2024-11-07T10:01:04Z</time>
      </trkpt>
      <trkpt lat="48.41377" lon="2.47855">
        <ele>74.2</ele>
        <time>2024-11-07T10:01:08Z</time>
      </trkpt>
      <trkpt lat="48.41395" lon="2.47876">
        <ele>73.8</ele>
        <time>2024-11-07T10:01:12Z</time>
      </trkpt>
      <trkpt lat="48.41412" lon="2.47898">
        <ele>73.4</ele>
        <time>2024-11-07T10:01:16Z</time>
      </trkpt>
      <trkpt lat="48.41427" lon="2.47921">
        <ele>73.7</ele>
        <time>2024-11-07T10:01:20Z</time>
      </trkpt>
      <trkpt lat="48.41442" lon="2.47938">
        <ele>73.8</ele>
        <time>2024-11-07T10:01:24Z</time>
      </trkpt>
      <trkpt lat="48.41457" lon="2.47954">
        <ele>73.7</ele>
        <time>2024-11-07T10:01:28Z</time>
      </trkpt>
      <trkpt lat="48.41471" lon="2.47973">
        <ele>74</ele>
        <time>2024-11-07T10:01:32Z</time>
      </trkpt>
      <trkpt lat="48.41482" lon="2.47995">
        <ele>74.8</ele>
        <time>2024-11-07T10:01:36Z</time>
      </trkpt>
      <trkpt lat="48.41494" lon="2.48016">
        <ele>75.6</ele>
        <time>2024-11-07T10:01:40Z</time>
      </trkpt>
      <trkpt lat="48.41505" lon="2.48038">
        <ele>76.6</ele>
        <time>2024-11-07T10:01:44Z</time>
      </trkpt>
      <trkpt lat="48.41518" lon="2.48065">
        <ele>77.8</ele>
        <time>2024-11-07T10:01:49Z</time>
      </trkpt>
      <trkpt lat="48.41528" lon="2.48095">
        <ele>78</ele>
        <time>2024-11-07T10:01:54Z</time>
      </trkpt>
      <trkpt lat="48.41538" lon="2.4812">
        <ele>79.2</ele>
        <time>2024-11-07T10:01:59Z</time>
      </trkpt>
      <trkpt lat="48.41554" lon="2.4814">
        <ele>80</ele>
        <time>2024-11-07T10:02:04Z</time>
      </trkpt>
      <trkpt lat="48.4157" lon="2.48156">
        <ele>81.4</ele>
        <time>2024-11-07T10:02:09Z</time>
      </trkpt>
      <trkpt lat="48.41588" lon="2.48175">
        <ele>82.2</ele>
        <time>2024-11-07T10:02:15Z</time>
      </trkpt>
      <trkpt lat="48.41605" lon="2.48189">
        <ele>80.8</ele>
        <time>2024-11-07T10:02:21Z</time>
      </trkpt>
      <trkpt lat="48.41623" lon="2.4821">
        <ele>79.1</ele>
        <time>2024-11-07T10:02:26Z</time>
      </trkpt>
      <trkpt lat="48.41622" lon="2.48237">
        <ele>79</ele>
        <time>2024-11-07T10:02:33Z</time>
      </trkpt>
      <trkpt lat="48.41616" lon="2.48266">
        <ele>79</ele>
        <time>2024-11-07T10:02:41Z</time>
      </trkpt>
      <trkpt lat="48.4161" lon="2.48294">
        <ele>79.1</ele>
        <time>2024-11-07T10:02:47Z</time>
      </trkpt>
      <trkpt lat="48.41604" lon="2.48321">
        <ele>80</ele>
        <time>2024-11-07T10:02:51Z</time>
      </trkpt>
      <trkpt lat="48.41599" lon="2.48351">
        <ele>80.7</ele>
        <time>2024-11-07T10:02:56Z</time>
      </trkpt>
      <trkpt lat="48.41594" lon="2.48379">
        <ele>81.8</ele>
        <time>2024-11-07T10:03:01Z</time>
      </trkpt>
      <trkpt lat="48.41588" lon="2.48409">
        <ele>82.5</ele>
        <time>2024-11-07T10:03:07Z</time>
      </trkpt>
      <trkpt lat="48.41582" lon="2.4844">
        <ele>82.3</ele>
        <time>2024-11-07T10:03:13Z</time>
      </trkpt>
      <trkpt lat="48.41573" lon="2.48464">
        <ele>82.9</ele>
        <time>2024-11-07T10:03:18Z</time>
      </trkpt>
      <trkpt lat="48.41562" lon="2.48492">
        <ele>82.8</ele>
        <time>2024-11-07T10:03:24Z</time>
      </trkpt>
      <trkpt lat="48.41555" lon="2.48521">
        <ele>83</ele>
        <time>2024-11-07T10:03:29Z</time>
      </trkpt>
      <trkpt lat="48.41551" lon="2.48551">
        <ele>82.5</ele>
        <time>2024-11-07T10:03:34Z</time>
      </trkpt>
      <trkpt lat="48.41545" lon="2.48581">
        <ele>82.7</ele>
        <time>2024-11-07T10:03:39Z</time>
      </trkpt>
      <trkpt lat="48.41538" lon="2.48609">
        <ele>83.8</ele>
        <time>2024-11-07T10:03:44Z</time>
      </trkpt>
      <trkpt lat="48.41532" lon="2.48637">
        <ele>84.7</ele>
        <time>2024-11-07T10:03:49Z</time>
      </trkpt>
      <trkpt lat="48.41529" lon="2.48667">
        <ele>84</ele>
        <time>2024-11-07T10:03:55Z</time>
      </trkpt>
      <trkpt lat="48.41523" lon="2.48694">
        <ele>84.5</ele>
        <time>2024-11-07T10:04:01Z</time>
      </trkpt>
      <trkpt lat="48.41515" lon="2.48719">
        <ele>85.9</ele>
        <time>2024-11-07T10:04:07Z</time>
      </trkpt>
      <trkpt lat="48.41509" lon="2.48749">
        <ele>87</ele>
        <time>2024-11-07T10:04:13Z</time>
      </trkpt>
      <trkpt lat="48.41504" lon="2.48777">
        <ele>87.3</ele>
        <time>2024-11-07T10:04:19Z</time>
      </trkpt>
      <trkpt lat="48.41501" lon="2.48805">
        <ele>88.1</ele>
        <time>2024-11-07T10:04:25Z</time>
      </trkpt>
      <trkpt lat="48.415" lon="2.48834">
        <ele>89</ele>
        <time>2024-11-07T10:04:32Z</time>
      </trkpt>
      <trkpt lat="48.41503" lon="2.48862">
        <ele>90.7</ele>
        <time>2024-11-07T10:04:39Z</time>
      </trkpt>
      <trkpt lat="48.41501" lon="2.48891">
        <ele>91.6</ele>
        <time>2024-11-07T10:04:46Z</time>
      </trkpt>
      <trkpt lat="48.41498" lon="2.48918">
        <ele>93</ele>
        <time>2024-11-07T10:04:53Z</time>
      </trkpt>
      <trkpt lat="48.41496" lon="2.48949">
        <ele>94.9</ele>
        <time>2024-11-07T10:05:01Z</time>
      </trkpt>
      <trkpt lat="48.4149" lon="2.48978">
        <ele>95.8</ele>
        <time>2024-11-07T10:05:07Z</time>
      </trkpt>
      <trkpt lat="48.41482" lon="2.49005">
        <ele>95.8</ele>
        <time>2024-11-07T10:05:13Z</time>
      </trkpt>
      <trkpt lat="48.41472" lon="2.49029">
        <ele>94</ele>
        <time>2024-11-07T10:05:19Z</time>
      </trkpt>
      <trkpt lat="48.41469" lon="2.4906">
        <ele>94.4</ele>
        <time>2024-11-07T10:05:26Z</time>
      </trkpt>
      <trkpt lat="48.41469" lon="2.49088">
        <ele>95.3</ele>
        <time>2024-11-07T10:05:33Z</time>
      </trkpt>
      <trkpt lat="48.41463" lon="2.49114">
        <ele>96.4</ele>
        <time>2024-11-07T10:05:41Z</time>
      </trkpt>
      <trkpt lat="48.41457" lon="2.49143">
        <ele>96.4</ele>
        <time>2024-11-07T10:05:48Z</time>
      </trkpt>
      <trkpt lat="48.41453" lon="2.49174">
        <ele>96.2</ele>
        <time>2024-11-07T10:05:55Z</time>
      </trkpt>
      <trkpt lat="48.4145" lon="2.49201">
        <ele>96.3</ele>
        <time>2024-11-07T10:06:02Z</time>
      </trkpt>
      <trkpt lat="48.41447" lon="2.49231">
        <ele>96.7</ele>
        <time>2024-11-07T10:06:09Z</time>
      </trkpt>
      <trkpt lat="48.41445" lon="2.49261">
        <ele>97.1</ele>
        <time>2024-11-07T10:06:16Z</time>
      </trkpt>
      <trkpt lat="48.41442" lon="2.4929">
        <ele>98</ele>
        <time>2024-11-07T10:06:23Z</time>
      </trkpt>
      <trkpt lat="48.4144" lon="2.49319">
        <ele>99.6</ele>
        <time>2024-11-07T10:06:30Z</time>
      </trkpt>
      <trkpt lat="48.41436" lon="2.49345">
        <ele>100.4</ele>
        <time>2024-11-07T10:06:37Z</time>
      </trkpt>
      <trkpt lat="48.41431" lon="2.49372">
        <ele>101.6</ele>
        <time>2024-11-07T10:06:44Z</time>
      </trkpt>
      <trkpt lat="48.41424" lon="2.494">
        <ele>102.5</ele>
        <time>2024-11-07T10:06:52Z</time>
      </trkpt>
      <trkpt lat="48.4142" lon="2.49428">
        <ele>102.8</ele>
        <time>2024-11-07T10:07:00Z</time>
      </trkpt>
      <trkpt lat="48.41416" lon="2.49456">
        <ele>103.4</ele>
        <time>2024-11-07T10:07:08Z</time>
      </trkpt>
      <trkpt lat="48.41411" lon="2.49484">
        <ele>105.3</ele>
        <time>2024-11-07T10:07:17Z</time>
      </trkpt>
      <trkpt lat="48.41409" lon="2.49514">
        <ele>107.1</ele>
        <time>2024-11-07T10:07:26Z</time>
      </trkpt>
      <trkpt lat="48.41408" lon="2.49543">
        <ele>109.1</ele>
        <time>2024-11-07T10:07:36Z</time>
      </trkpt>
      <trkpt lat="48.41411" lon="2.49571">
        <ele>110.7</ele>
        <time>2024-11-07T10:07:46Z</time>
      </trkpt>
      <trkpt lat="48.41415" lon="2.49598">
        <ele>112.1</ele>
        <time>2024-11-07T10:07:56Z</time>
      </trkpt>
      <trkpt lat="48.41417" lon="2.49625">
        <ele>113.5</ele>
        <time>2024-11-07T10:08:06Z</time>
      </trkpt>
      <trkpt lat="48.41419" lon="2.49653">
        <ele>114.9</ele>
        <time>2024-11-07T10:08:16Z</time>
      </trkpt>
      <trkpt lat="48.4142" lon="2.4968">
        <ele>116.9</ele>
        <time>2024-11-07T10:08:27Z</time>
      </trkpt>
      <trkpt lat="48.4142" lon="2.49707">
        <ele>119.3</ele>
        <time>2024-11-07T10:08:40Z</time>
      </trkpt>
      <trkpt lat="48.41422" lon="2.49736">
        <ele>121.5</ele>
        <time>2024-11-07T10:08:54Z</time>
      </trkpt>
      <trkpt lat="48.41425" lon="2.49764">
        <ele>122.8</ele>
        <time>2024-11-07T10:09:07Z</time>
      </trkpt>
      <trkpt lat="48.41434" lon="2.49789">
        <ele>123.1</ele>
        <time>2024-11-07T10:09:19Z</time>
      </trkpt>
      <trkpt lat="48.41449" lon="2.49805">
        <ele>124.5</ele>
        <time>2024-11-07T10:09:32Z</time>
      </trkpt>
      <trkpt lat="48.41465" lon="2.4982">
        <ele>125.6</ele>
        <time>2024-11-07T10:09:41Z</time>
      </trkpt>
      <trkpt lat="48.41481" lon="2.49835">
        <ele>126.2</ele>
        <time>2024-11-07T10:09:48Z</time>
      </trkpt>
      <trkpt lat="48.415" lon="2.49843">
        <ele>126.6</ele>
        <time>2024-11-07T10:09:56Z</time>
      </trkpt>
      <trkpt lat="48.4152" lon="2.49844">
        <ele>126.2</ele>
        <time>2024-11-07T10:16:37Z</time>
      </trkpt>
      <trkpt lat="48.4154" lon="2.49848">
        <ele>125.1</ele>
        <time>2024-11-07T10:16:43Z</time>
      </trkpt>
      <trkpt lat="48.41565" lon="2.49851">
        <ele>123.5</ele>
        <time>2024-11-07T10:16:48Z</time>
      </trkpt>
      <trkpt lat="48.41584" lon="2.49854">
        <ele>122.8</ele>
        <time>2024-11-07T10:16:52Z</time>
      </trkpt>
      <trkpt lat="48.41605" lon="2.49864">
        <ele>122.3</ele>
        <time>2024-11-07T10:16:56Z</time>
      </trkpt>
      <trkpt lat="48.41622" lon="2.49873">
        <ele>121.5</ele>
        <time>2024-11-07T10:16:59Z</time>
      </trkpt>
      <trkpt lat="48.41642" lon="2.49887">
        <ele>121.4</ele>
        <time>2024-11-07T10:17:03Z</time>
      </trkpt>
      <trkpt lat="48.41661" lon="2.49902">
        <ele>121.3</ele>
        <time>2024-11-07T10:17:08Z</time>
      </trkpt>
      <trkpt lat="48.41676" lon="2.49923">
        <ele>120.9</ele>
        <time>2024-11-07T10:17:13Z</time>
      </trkpt>
      <trkpt lat="48.4169" lon="2.49948">
        <ele>121</ele>
        <time>2024-11-07T10:17:18Z</time>
      </trkpt>
      <trkpt lat="48.41704" lon="2.49975">
        <ele>121.5</ele>
        <time>2024-11-07T10:17:23Z</time>
      </trkpt>
      <trkpt lat="48.41715" lon="2.49997">
        <ele>121.9</ele>
        <time>2024-11-07T10:17:27Z</time>
      </trkpt>
      <trkpt lat="48.41726" lon="2.50023">
        <ele>122.1</ele>
        <time>2024-11-07T10:17:32Z</time>
      </trkpt>
      <trkpt lat="48.41739" lon="2.50049">
        <ele>122</ele>
        <time>2024-11-07T10:17:37Z</time>
      </trkpt>
      <trkpt lat="48.4175" lon="2.50072">
        <ele>122</ele>
        <time>2024-11-07T10:17:42Z</time>
      </trkpt>
      <trkpt lat="48.41751" lon="2.50099">
        <ele>122</ele>
        <time>2024-11-07T10:17:47Z</time>
      </trkpt>
      <trkpt lat="48.41749" lon="2.50127">
        <ele>122</ele>
        <time>2024-11-07T10:17:52Z</time>
      </trkpt>
      <trkpt lat="48.41746" lon="2.50156">
        <ele>122.7</ele>
        <time>2024-11-07T10:17:57Z</time>
      </trkpt>
      <trkpt lat="48.41748" lon="2.50185">
        <ele>123</ele>
        <time>2024-11-07T10:18:02Z</time>
      </trkpt>
      <trkpt lat="48.41764" lon="2.50204">
        <ele>123</ele>
        <time>2024-11-07T10:18:07Z</time>
      </trkpt>
      <trkpt lat="48.41782" lon="2.50218">
        <ele>123</ele>
        <time>2024-11-07T10:18:12Z</time>
      </trkpt>
      <trkpt lat="48.41803" lon="2.50221">
        <ele>123</ele>
        <time>2024-11-07T10:18:17Z</time>
      </trkpt>
      <trkpt lat="48.41824" lon="2.50212">
        <ele>122.6</ele>
        <time>2024-11-07T10:18:22Z</time>
      </trkpt>
      <trkpt lat="48.41843" lon="2.50208">
        <ele>122.3</ele>
        <time>2024-11-07T10:18:27Z</time>
      </trkpt>
      <trkpt lat="48.41861" lon="2.50191">
        <ele>122</ele>
        <time>2024-11-07T10:18:32Z</time>
      </trkpt>
      <trkpt lat="48.41874" lon="2.50164">
        <ele>122</ele>
        <time>2024-11-07T10:18:37Z</time>
      </trkpt>
      <trkpt lat="48.41884" lon="2.50141">
        <ele>122</ele>
        <time>2024-11-07T10:18:41Z</time>
      </trkpt>
      <trkpt lat="48.41901" lon="2.5012">
        <ele>121.6</ele>
        <time>2024-11-07T10:18:46Z</time>
      </trkpt>
      <trkpt lat="48.41921" lon="2.5011">
        <ele>122</ele>
        <time>2024-11-07T10:18:50Z</time>
      </trkpt>
      <trkpt lat="48.41938" lon="2.50095">
        <ele>121.4</ele>
        <time>2024-11-07T10:18:54Z</time>
      </trkpt>
      <trkpt lat="48.41949" lon="2.50071">
        <ele>121</ele>
        <time>2024-11-07T10:18:58Z</time>
      </trkpt>
      <trkpt lat="48.41958" lon="2.50048">
        <ele>121</ele>
        <time>2024-11-07T10:19:02Z</time>
      </trkpt>
      <trkpt lat="48.41964" lon="2.50022">
        <ele>121</ele>
        <time>2024-11-07T10:19:06Z</time>
      </trkpt>
      <trkpt lat="48.41971" lon="2.49995">
        <ele>121</ele>
        <time>2024-11-07T10:19:11Z</time>
      </trkpt>
      <trkpt lat="48.41978" lon="2.49967">
        <ele>120.8</ele>
        <time>2024-11-07T10:19:17Z</time>
      </trkpt>
      <trkpt lat="48.41985" lon="2.49939">
        <ele>120.6</ele>
        <time>2024-11-07T10:19:23Z</time>
      </trkpt>
      <trkpt lat="48.41982" lon="2.49909">
        <ele>121</ele>
        <time>2024-11-07T10:19:30Z</time>
      </trkpt>
      <trkpt lat="48.41989" lon="2.49881">
        <ele>121.1</ele>
        <time>2024-11-07T10:19:37Z</time>
      </trkpt>
      <trkpt lat="48.41993" lon="2.49852">
        <ele>121.2</ele>
        <time>2024-11-07T10:19:43Z</time>
      </trkpt>
      <trkpt lat="48.41998" lon="2.49823">
        <ele>121</ele>
        <time>2024-11-07T10:19:49Z</time>
      </trkpt>
      <trkpt lat="48.42" lon="2.49795">
        <ele>121</ele>
        <time>2024-11-07T10:19:55Z</time>
      </trkpt>
      <trkpt lat="48.42003" lon="2.49765">
        <ele>120.9</ele>
        <time>2024-11-07T10:20:01Z</time>
      </trkpt>
      <trkpt lat="48.42014" lon="2.49741">
        <ele>120.5</ele>
        <time>2024-11-07T10:20:07Z</time>
      </trkpt>
      <trkpt lat="48.42033" lon="2.49734">
        <ele>120</ele>
        <time>2024-11-07T10:20:13Z</time>
      </trkpt>
      <trkpt lat="48.42051" lon="2.49737">
        <ele>120</ele>
        <time>2024-11-07T10:20:18Z</time>
      </trkpt>
      <trkpt lat="48.42069" lon="2.49739">
        <ele>120</ele>
        <time>2024-11-07T10:20:23Z</time>
      </trkpt>
      <trkpt lat="48.42089" lon="2.49741">
        <ele>119.8</ele>
        <time>2024-11-07T10:20:28Z</time>
      </trkpt>
      <trkpt lat="48.42106" lon="2.4975">
        <ele>119.2</ele>
        <time>2024-11-07T10:20:33Z</time>
      </trkpt>
      <trkpt lat="48.42121" lon="2.49765">
        <ele>118.8</ele>
        <time>2024-11-07T10:20:39Z</time>
      </trkpt>
      <trkpt lat="48.4213" lon="2.49741">
        <ele>118.8</ele>
        <time>2024-11-07T10:20:48Z</time>
      </trkpt>
      <trkpt lat="48.42138" lon="2.49712">
        <ele>117.7</ele>
        <time>2024-11-07T10:20:55Z</time>
      </trkpt>
      <trkpt lat="48.42147" lon="2.49686">
        <ele>116.4</ele>
        <time>2024-11-07T10:21:01Z</time>
      </trkpt>
      <trkpt lat="48.4216" lon="2.49663">
        <ele>113.3</ele>
        <time>2024-11-07T10:21:05Z</time>
      </trkpt>
      <trkpt lat="48.42167" lon="2.49637">
        <ele>108.9</ele>
        <time>2024-11-07T10:21:07Z</time>
      </trkpt>
      <trkpt lat="48.42173" lon="2.4961">
        <ele>106.7</ele>
        <time>2024-11-07T10:21:09Z</time>
      </trkpt>
      <trkpt lat="48.42182" lon="2.49584">
        <ele>105</ele>
        <time>2024-11-07T10:21:11Z</time>
      </trkpt>
      <trkpt lat="48.42189" lon="2.49557">
        <ele>103.7</ele>
        <time>2024-11-07T10:21:13Z</time>
      </trkpt>
      <trkpt lat="48.42199" lon="2.49523">
        <ele>102.7</ele>
        <time>2024-11-07T10:21:16Z</time>
      </trkpt>
      <trkpt lat="48.42202" lon="2.49491">
        <ele>102.9</ele>
        <time>2024-11-07T10:21:19Z</time>
      </trkpt>
      <trkpt lat="48.42203" lon="2.49459">
        <ele>101.6</ele>
        <time>2024-11-07T10:21:22Z</time>
      </trkpt>
      <trkpt lat="48.42211" lon="2.49431">
        <ele>99.9</ele>
        <time>2024-11-07T10:21:42Z</time>
      </trkpt>
      <trkpt lat="48.42212" lon="2.49402">
        <ele>96.4</ele>
        <time>2024-11-07T10:21:48Z</time>
      </trkpt>
      <trkpt lat="48.42211" lon="2.49372">
        <ele>92.1</ele>
        <time>2024-11-07T10:21:54Z</time>
      </trkpt>
      <trkpt lat="48.42216" lon="2.4934">
        <ele>89.1</ele>
        <time>2024-11-07T10:21:59Z</time>
      </trkpt>
      <trkpt lat="48.4222" lon="2.49313">
        <ele>87.4</ele>
        <time>2024-11-07T10:22:03Z</time>
      </trkpt>
      <trkpt lat="48.4222" lon="2.49283">
        <ele>85.4</ele>
        <time>2024-11-07T10:22:10Z</time>
      </trkpt>
      <trkpt lat="48.42213" lon="2.49259">
        <ele>84.5</ele>
        <time>2024-11-07T10:22:15Z</time>
      </trkpt>
      <trkpt lat="48.42224" lon="2.49231">
        <ele>83.3</ele>
        <time>2024-11-07T10:22:20Z</time>
      </trkpt>
      <trkpt lat="48.42235" lon="2.49208">
        <ele>82.3</ele>
        <time>2024-11-07T10:22:24Z</time>
      </trkpt>
      <trkpt lat="48.42249" lon="2.49189">
        <ele>81.1</ele>
        <time>2024-11-07T10:22:28Z</time>
      </trkpt>
      <trkpt lat="48.42267" lon="2.49175">
        <ele>80</ele>
        <time>2024-11-07T10:22:32Z</time>
      </trkpt>
      <trkpt lat="48.42288" lon="2.49167">
        <ele>79</ele>
        <time>2024-11-07T10:22:36Z</time>
      </trkpt>
      <trkpt lat="48.4231" lon="2.49164">
        <ele>79.1</ele>
        <time>2024-11-07T10:22:40Z</time>
      </trkpt>
      <trkpt lat="48.42332" lon="2.49158">
        <ele>79.3</ele>
        <time>2024-11-07T10:22:44Z</time>
      </trkpt>
      <trkpt lat="48.42353" lon="2.49148">
        <ele>79</ele>
        <time>2024-11-07T10:22:48Z</time>
      </trkpt>
      <trkpt lat="48.42371" lon="2.49133">
        <ele>78.4</ele>
        <time>2024-11-07T10:22:52Z</time>
      </trkpt>
      <trkpt lat="48.42385" lon="2.49109">
        <ele>77.5</ele>
        <time>2024-11-07T10:22:56Z</time>
      </trkpt>
      <trkpt lat="48.424" lon="2.49092">
        <ele>77</ele>
        <time>2024-11-07T10:23:00Z</time>
      </trkpt>
      <trkpt lat="48.42418" lon="2.4907">
        <ele>76</ele>
        <time>2024-11-07T10:23:05Z</time>
      </trkpt>
      <trkpt lat="48.42434" lon="2.49056">
        <ele>75.4</ele>
        <time>2024-11-07T10:23:09Z</time>
      </trkpt>
      <trkpt lat="48.42452" lon="2.49048">
        <ele>74.7</ele>
        <time>2024-11-07T10:23:13Z</time>
      </trkpt>
      <trkpt lat="48.42473" lon="2.49036">
        <ele>74</ele>
        <time>2024-11-07T10:23:17Z</time>
      </trkpt>
      <trkpt lat="48.42493" lon="2.4903">
        <ele>73.3</ele>
        <time>2024-11-07T10:23:21Z</time>
      </trkpt>
      <trkpt lat="48.42512" lon="2.49039">
        <ele>73</ele>
        <time>2024-11-07T10:23:27Z</time>
      </trkpt>
      <trkpt lat="48.42535" lon="2.49048">
        <ele>72.8</ele>
        <time>2024-11-07T10:23:32Z</time>
      </trkpt>
      <trkpt lat="48.42554" lon="2.49059">
        <ele>72</ele>
        <time>2024-11-07T10:23:36Z</time>
      </trkpt>
      <trkpt lat="48.42569" lon="2.49082">
        <ele>72.5</ele>
        <time>2024-11-07T10:23:40Z</time>
      </trkpt>
      <trkpt lat="48.4257" lon="2.49115">
        <ele>72.5</ele>
        <time>2024-11-07T10:23:45Z</time>
      </trkpt>
      <trkpt lat="48.42565" lon="2.49149">
        <ele>72.2</ele>
        <time>2024-11-07T10:23:50Z</time>
      </trkpt>
      <trkpt lat="48.42561" lon="2.49181">
        <ele>72</ele>
        <time>2024-11-07T10:23:55Z</time>
      </trkpt>
      <trkpt lat="48.42557" lon="2.49214">
        <ele>72</ele>
        <time>2024-11-07T10:24:00Z</time>
      </trkpt>
      <trkpt lat="48.42552" lon="2.49247">
        <ele>72.1</ele>
        <time>2024-11-07T10:24:05Z</time>
      </trkpt>
      <trkpt lat="48.4255" lon="2.49274">
        <ele>72.9</ele>
        <time>2024-11-07T10:24:09Z</time>
      </trkpt>
      <trkpt lat="48.42547" lon="2.49307">
        <ele>73</ele>
        <time>2024-11-07T10:24:14Z</time>
      </trkpt>
      <trkpt lat="48.42541" lon="2.49338">
        <ele>73</ele>
        <time>2024-11-07T10:24:19Z</time>
      </trkpt>
      <trkpt lat="48.42534" lon="2.49368">
        <ele>73</ele>
        <time>2024-11-07T10:24:24Z</time>
      </trkpt>
      <trkpt lat="48.42527" lon="2.49397">
        <ele>73</ele>
        <time>2024-11-07T10:24:29Z</time>
      </trkpt>
      <trkpt lat="48.42521" lon="2.49426">
        <ele>73</ele>
        <time>2024-11-07T10:24:34Z</time>
      </trkpt>
      <trkpt lat="48.42515" lon="2.49452">
        <ele>72.9</ele>
        <time>2024-11-07T10:24:39Z</time>
      </trkpt>
      <trkpt lat="48.42509" lon="2.49478">
        <ele>72.5</ele>
        <time>2024-11-07T10:24:44Z</time>
      </trkpt>
      <trkpt lat="48.42504" lon="2.49508">
        <ele>73</ele>
        <time>2024-11-07T10:24:49Z</time>
      </trkpt>
      <trkpt lat="48.42498" lon="2.49536">
        <ele>73</ele>
        <time>2024-11-07T10:24:54Z</time>
      </trkpt>
      <trkpt lat="48.42496" lon="2.49563">
        <ele>73.1</ele>
        <time>2024-11-07T10:25:00Z</time>
      </trkpt>
      <trkpt lat="48.42494" lon="2.49592">
        <ele>73.5</ele>
        <time>2024-11-07T10:25:06Z</time>
      </trkpt>
      <trkpt lat="48.42487" lon="2.49622">
        <ele>74</ele>
        <time>2024-11-07T10:25:11Z</time>
      </trkpt>
      <trkpt lat="48.42481" lon="2.49649">
        <ele>74.4</ele>
        <time>2024-11-07T10:25:16Z</time>
      </trkpt>
      <trkpt lat="48.42477" lon="2.49678">
        <ele>75</ele>
        <time>2024-11-07T10:25:21Z</time>
      </trkpt>
      <trkpt lat="48.42475" lon="2.49709">
        <ele>75</ele>
        <time>2024-11-07T10:25:27Z</time>
      </trkpt>
      <trkpt lat="48.4247" lon="2.49736">
        <ele>75.1</ele>
        <time>2024-11-07T10:25:32Z</time>
      </trkpt>
      <trkpt lat="48.42464" lon="2.49767">
        <ele>74.9</ele>
        <time>2024-11-07T10:25:38Z</time>
      </trkpt>
      <trkpt lat="48.42456" lon="2.49798">
        <ele>75.1</ele>
        <time>2024-11-07T10:25:44Z</time>
      </trkpt>
      <trkpt lat="48.42452" lon="2.49826">
        <ele>75.7</ele>
        <time>2024-11-07T10:25:49Z</time>
      </trkpt>
      <trkpt lat="48.42442" lon="2.49853">
        <ele>76.9</ele>
        <time>2024-11-07T10:25:54Z</time>
      </trkpt>
      <trkpt lat="48.42433" lon="2.49878">
        <ele>77.6</ele>
        <time>2024-11-07T10:25:59Z</time>
      </trkpt>
      <trkpt lat="48.42425" lon="2.49905">
        <ele>77.7</ele>
        <time>2024-11-07T10:26:05Z</time>
      </trkpt>
      <trkpt lat="48.42417" lon="2.4993">
        <ele>78</ele>
        <time>2024-11-07T10:26:10Z</time>
      </trkpt>
      <trkpt lat="48.42407" lon="2.49958">
        <ele>78.5</ele>
        <time>2024-11-07T10:26:16Z</time>
      </trkpt>
      <trkpt lat="48.42402" lon="2.49986">
        <ele>78.8</ele>
        <time>2024-11-07T10:26:22Z</time>
      </trkpt>
      <trkpt lat="48.42401" lon="2.50015">
        <ele>79</ele>
        <time>2024-11-07T10:26:28Z</time>
      </trkpt>
      <trkpt lat="48.42397" lon="2.50044">
        <ele>79.6</ele>
        <time>2024-11-07T10:26:36Z</time>
      </trkpt>
      <trkpt lat="48.42388" lon="2.5007">
        <ele>80.1</ele>
        <time>2024-11-07T10:26:42Z</time>
      </trkpt>
      <trkpt lat="48.42378" lon="2.50094">
        <ele>80.9</ele>
        <time>2024-11-07T10:26:48Z</time>
      </trkpt>
      <trkpt lat="48.42368" lon="2.50121">
        <ele>80.9</ele>
        <time>2024-11-07T10:26:54Z</time>
      </trkpt>
      <trkpt lat="48.42362" lon="2.50147">
        <ele>80.4</ele>
        <time>2024-11-07T10:27:00Z</time>
      </trkpt>
      <trkpt lat="48.42354" lon="2.50173">
        <ele>82.1</ele>
        <time>2024-11-07T10:27:06Z</time>
      </trkpt>
      <trkpt lat="48.42346" lon="2.50199">
        <ele>83.5</ele>
        <time>2024-11-07T10:27:13Z</time>
      </trkpt>
      <trkpt lat="48.42334" lon="2.50226">
        <ele>83</ele>
        <time>2024-11-07T10:27:20Z</time>
      </trkpt>
      <trkpt lat="48.42326" lon="2.50254">
        <ele>83.5</ele>
        <time>2024-11-07T10:27:27Z</time>
      </trkpt>
      <trkpt lat="48.42323" lon="2.50281">
        <ele>83.7</ele>
        <time>2024-11-07T10:27:34Z</time>
      </trkpt>
      <trkpt lat="48.42318" lon="2.50311">
        <ele>84</ele>
        <time>2024-11-07T10:27:41Z</time>
      </trkpt>
      <trkpt lat="48.42312" lon="2.5034">
        <ele>83.8</ele>
        <time>2024-11-07T10:27:47Z</time>
      </trkpt>
      <trkpt lat="48.42309" lon="2.5037">
        <ele>83.9</ele>
        <time>2024-11-07T10:27:53Z</time>
      </trkpt>
      <trkpt lat="48.42302" lon="2.50399">
        <ele>84</ele>
        <time>2024-11-07T10:27:59Z</time>
      </trkpt>
      <trkpt lat="48.42299" lon="2.50431">
        <ele>83.5</ele>
        <time>2024-11-07T10:28:05Z</time>
      </trkpt>
      <trkpt lat="48.42297" lon="2.50459">
        <ele>83.4</ele>
        <time>2024-11-07T10:28:11Z</time>
      </trkpt>
      <trkpt lat="48.42294" lon="2.50489">
        <ele>83.4</ele>
        <time>2024-11-07T10:28:17Z</time>
      </trkpt>
      <trkpt lat="48.42289" lon="2.50517">
        <ele>83.6</ele>
        <time>2024-11-07T10:28:23Z</time>
      </trkpt>
      <trkpt lat="48.42281" lon="2.50543">
        <ele>83.9</ele>
        <time>2024-11-07T10:28:30Z</time>
      </trkpt>
      <trkpt lat="48.42273" lon="2.50568">
        <ele>85</ele>
        <time>2024-11-07T10:28:38Z</time>
      </trkpt>
      <trkpt lat="48.42268" lon="2.50597">
        <ele>86.4</ele>
        <time>2024-11-07T10:29:51Z</time>
      </trkpt>
      <trkpt lat="48.42258" lon="2.50621">
        <ele>87.3</ele>
        <time>2024-11-07T10:29:56Z</time>
      </trkpt>
      <trkpt lat="48.42251" lon="2.50651">
        <ele>86.6</ele>
        <time>2024-11-07T10:30:02Z</time>
      </trkpt>
      <trkpt lat="48.42248" lon="2.50679">
        <ele>86.2</ele>
        <time>2024-11-07T10:30:10Z</time>
      </trkpt>
      <trkpt lat="48.4224" lon="2.50704">
        <ele>86.5</ele>
        <time>2024-11-07T10:30:15Z</time>
      </trkpt>
      <trkpt lat="48.42232" lon="2.50732">
        <ele>85.5</ele>
        <time>2024-11-07T10:30:19Z</time>
      </trkpt>
      <trkpt lat="48.42226" lon="2.50763">
        <ele>83.9</ele>
        <time>2024-11-07T10:30:23Z</time>
      </trkpt>
      <trkpt lat="48.42222" lon="2.50796">
        <ele>83</ele>
        <time>2024-11-07T10:30:27Z</time>
      </trkpt>
      <trkpt lat="48.4222" lon="2.50826">
        <ele>83.5</ele>
        <time>2024-11-07T10:30:31Z</time>
      </trkpt>
      <trkpt lat="48.42217" lon="2.5086">
        <ele>83.6</ele>
        <time>2024-11-07T10:30:35Z</time>
      </trkpt>
      <trkpt lat="48.42212" lon="2.50892">
        <ele>84.7</ele>
        <time>2024-11-07T10:30:39Z</time>
      </trkpt>
      <trkpt lat="48.42208" lon="2.50923">
        <ele>84.3</ele>
        <time>2024-11-07T10:30:43Z</time>
      </trkpt>
      <trkpt lat="48.42205" lon="2.50954">
        <ele>83.2</ele>
        <time>2024-11-07T10:30:47Z</time>
      </trkpt>
      <trkpt lat="48.42203" lon="2.50985">
        <ele>81.8</ele>
        <time>2024-11-07T10:30:51Z</time>
      </trkpt>
      <trkpt lat="48.42197" lon="2.51015">
        <ele>81.1</ele>
        <time>2024-11-07T10:30:55Z</time>
      </trkpt>
      <trkpt lat="48.4219" lon="2.51046">
        <ele>81</ele>
        <time>2024-11-07T10:30:59Z</time>
      </trkpt>
      <trkpt lat="48.4218" lon="2.51074">
        <ele>80.2</ele>
        <time>2024-11-07T10:31:03Z</time>
      </trkpt>
      <trkpt lat="48.4217" lon="2.511">
        <ele>79.9</ele>
        <time>2024-11-07T10:31:07Z</time>
      </trkpt>
      <trkpt lat="48.42175" lon="2.51132">
        <ele>79.2</ele>
        <time>2024-11-07T10:31:11Z</time>
      </trkpt>
      <trkpt lat="48.42177" lon="2.51165">
        <ele>79.3</ele>
        <time>2024-11-07T10:31:15Z</time>
      </trkpt>
      <trkpt lat="48.42169" lon="2.51194">
        <ele>79.1</ele>
        <time>2024-11-07T10:31:19Z</time>
      </trkpt>
      <trkpt lat="48.42152" lon="2.51212">
        <ele>79</ele>
        <time>2024-11-07T10:31:23Z</time>
      </trkpt>
      <trkpt lat="48.42144" lon="2.51238">
        <ele>78.5</ele>
        <time>2024-11-07T10:31:27Z</time>
      </trkpt>
      <trkpt lat="48.42139" lon="2.51264">
        <ele>77.5</ele>
        <time>2024-11-07T10:31:30Z</time>
      </trkpt>
      <trkpt lat="48.42138" lon="2.51292">
        <ele>76.6</ele>
        <time>2024-11-07T10:31:33Z</time>
      </trkpt>
      <trkpt lat="48.42136" lon="2.5132">
        <ele>75.8</ele>
        <time>2024-11-07T10:31:36Z</time>
      </trkpt>
      <trkpt lat="48.42134" lon="2.51347">
        <ele>75.4</ele>
        <time>2024-11-07T10:31:39Z</time>
      </trkpt>
      <trkpt lat="48.42134" lon="2.51375">
        <ele>74.8</ele>
        <time>2024-11-07T10:31:42Z</time>
      </trkpt>
      <trkpt lat="48.4213" lon="2.5141">
        <ele>74.3</ele>
        <time>2024-11-07T10:31:46Z</time>
      </trkpt>
      <trkpt lat="48.42122" lon="2.5144">
        <ele>74.9</ele>
        <time>2024-11-07T10:31:50Z</time>
      </trkpt>
      <trkpt lat="48.42103" lon="2.51459">
        <ele>74.9</ele>
        <time>2024-11-07T10:31:54Z</time>
      </trkpt>
      <trkpt lat="48.42096" lon="2.51484">
        <ele>74.5</ele>
        <time>2024-11-07T10:31:57Z</time>
      </trkpt>
      <trkpt lat="48.42095" lon="2.5152">
        <ele>74.3</ele>
        <time>2024-11-07T10:32:01Z</time>
      </trkpt>
      <trkpt lat="48.42103" lon="2.51554">
        <ele>73.8</ele>
        <time>2024-11-07T10:32:05Z</time>
      </trkpt>
      <trkpt lat="48.42105" lon="2.51581">
        <ele>73.8</ele>
        <time>2024-11-07T10:32:08Z</time>
      </trkpt>
      <trkpt lat="48.42104" lon="2.5161">
        <ele>74.7</ele>
        <time>2024-11-07T10:32:11Z</time>
      </trkpt>
      <trkpt lat="48.42102" lon="2.51638">
        <ele>75</ele>
        <time>2024-11-07T10:32:14Z</time>
      </trkpt>
      <trkpt lat="48.42098" lon="2.51674">
        <ele>74.8</ele>
        <time>2024-11-07T10:32:18Z</time>
      </trkpt>
      <trkpt lat="48.4209" lon="2.51702">
        <ele>74.5</ele>
        <time>2024-11-07T10:32:21Z</time>
      </trkpt>
      <trkpt lat="48.42085" lon="2.51734">
        <ele>74</ele>
        <time>2024-11-07T10:32:24Z</time>
      </trkpt>
      <trkpt lat="48.42075" lon="2.51758">
        <ele>74</ele>
        <time>2024-11-07T10:32:27Z</time>
      </trkpt>
      <trkpt lat="48.4207" lon="2.51789">
        <ele>73.3</ele>
        <time>2024-11-07T10:32:30Z</time>
      </trkpt>
      <trkpt lat="48.42073" lon="2.51816">
        <ele>72.6</ele>
        <time>2024-11-07T10:32:33Z</time>
      </trkpt>
      <trkpt lat="48.42072" lon="2.51851">
        <ele>72</ele>
        <time>2024-11-07T10:32:37Z</time>
      </trkpt>
      <trkpt lat="48.42078" lon="2.51878">
        <ele>72</ele>
        <time>2024-11-07T10:32:41Z</time>
      </trkpt>
      <trkpt lat="48.42086" lon="2.51906">
        <ele>72</ele>
        <time>2024-11-07T10:32:45Z</time>
      </trkpt>
      <trkpt lat="48.42094" lon="2.51936">
        <ele>72</ele>
        <time>2024-11-07T10:32:49Z</time>
      </trkpt>
      <trkpt lat="48.42076" lon="2.51947">
        <ele>72.2</ele>
        <time>2024-11-07T10:32:54Z</time>
      </trkpt>
      <trkpt lat="48.42058" lon="2.51948">
        <ele>72.9</ele>
        <time>2024-11-07T10:33:00Z</time>
      </trkpt>
      <trkpt lat="48.42045" lon="2.51926">
        <ele>72.7</ele>
        <time>2024-11-07T10:33:12Z</time>
      </trkpt>
      <trkpt lat="48.42041" lon="2.51897">
        <ele>72.5</ele>
        <time>2024-11-07T10:33:18Z</time>
      </trkpt>
      <trkpt lat="48.42028" lon="2.51874">
        <ele>72.5</ele>
        <time>2024-11-07T10:33:27Z</time>
      </trkpt>
      <trkpt lat="48.42019" lon="2.51849">
        <ele>73.2</ele>
        <time>2024-11-07T10:33:32Z</time>
      </trkpt>
      <trkpt lat="48.42008" lon="2.51823">
        <ele>74.4</ele>
        <time>2024-11-07T10:33:38Z</time>
      </trkpt>
      <trkpt lat="48.41992" lon="2.51807">
        <ele>75.9</ele>
        <time>2024-11-07T10:33:44Z</time>
      </trkpt>
      <trkpt lat="48.41976" lon="2.51791">
        <ele>77.2</ele>
        <time>2024-11-07T10:33:50Z</time>
      </trkpt>
      <trkpt lat="48.41961" lon="2.51774">
        <ele>78</ele>
        <time>2024-11-07T10:33:57Z</time>
      </trkpt>
      <trkpt lat="48.41942" lon="2.51772">
        <ele>79.4</ele>
        <time>2024-11-07T10:34:04Z</time>
      </trkpt>
      <trkpt lat="48.41925" lon="2.51758">
        <ele>81.3</ele>
        <time>2024-11-07T10:34:12Z</time>
      </trkpt>
      <trkpt lat="48.41909" lon="2.51744">
        <ele>83.9</ele>
        <time>2024-11-07T10:34:21Z</time>
      </trkpt>
      <trkpt lat="48.41892" lon="2.5173">
        <ele>86.3</ele>
        <time>2024-11-07T10:34:34Z</time>
      </trkpt>
      <trkpt lat="48.41874" lon="2.51724">
        <ele>89</ele>
        <time>2024-11-07T10:34:47Z</time>
      </trkpt>
      <trkpt lat="48.41857" lon="2.51715">
        <ele>92.3</ele>
        <time>2024-11-07T10:35:00Z</time>
      </trkpt>
      <trkpt lat="48.41841" lon="2.517">
        <ele>94.2</ele>
        <time>2024-11-07T10:35:11Z</time>
      </trkpt>
      <trkpt lat="48.41826" lon="2.51683">
        <ele>95.3</ele>
        <time>2024-11-07T10:35:20Z</time>
      </trkpt>
      <trkpt lat="48.41811" lon="2.51667">
        <ele>95.3</ele>
        <time>2024-11-07T10:35:29Z</time>
      </trkpt>
      <trkpt lat="48.41812" lon="2.51695">
        <ele>97.1</ele>
        <time>2024-11-07T10:35:49Z</time>
      </trkpt>
      <trkpt lat="48.41824" lon="2.51717">
        <ele>99.2</ele>
        <time>2024-11-07T10:36:02Z</time>
      </trkpt>
      <trkpt lat="48.41821" lon="2.51744">
        <ele>105.4</ele>
        <time>2024-11-07T10:36:19Z</time>
      </trkpt>
      <trkpt lat="48.41812" lon="2.51769">
        <ele>110.9</ele>
        <time>2024-11-07T10:36:35Z</time>
      </trkpt>
      <trkpt lat="48.41805" lon="2.51794">
        <ele>113.2</ele>
        <time>2024-11-07T10:36:50Z</time>
      </trkpt>
      <trkpt lat="48.41801" lon="2.51821">
        <ele>115.3</ele>
        <time>2024-11-07T10:37:06Z</time>
      </trkpt>
      <trkpt lat="48.41789" lon="2.51843">
        <ele>117.3</ele>
        <time>2024-11-07T10:37:21Z</time>
      </trkpt>
      <trkpt lat="48.41773" lon="2.51857">
        <ele>118.9</ele>
        <time>2024-11-07T10:37:34Z</time>
      </trkpt>
      <trkpt lat="48.41768" lon="2.51884">
        <ele>119.3</ele>
        <time>2024-11-07T10:37:45Z</time>
      </trkpt>
      <trkpt lat="48.4177" lon="2.51911">
        <ele>119.9</ele>
        <time>2024-11-07T10:37:54Z</time>
      </trkpt>
      <trkpt lat="48.41771" lon="2.5194">
        <ele>119.8</ele>
        <time>2024-11-07T10:38:02Z</time>
      </trkpt>
      <trkpt lat="48.41774" lon="2.51969">
        <ele>119.1</ele>
        <time>2024-11-07T10:38:08Z</time>
      </trkpt>
      <trkpt lat="48.41773" lon="2.51997">
        <ele>119</ele>
        <time>2024-11-07T10:38:13Z</time>
      </trkpt>
      <trkpt lat="48.41769" lon="2.52029">
        <ele>119</ele>
        <time>2024-11-07T10:38:18Z</time>
      </trkpt>
      <trkpt lat="48.41774" lon="2.52063">
        <ele>118.7</ele>
        <time>2024-11-07T10:38:23Z</time>
      </trkpt>
      <trkpt lat="48.41781" lon="2.5209">
        <ele>117.6</ele>
        <time>2024-11-07T10:38:26Z</time>
      </trkpt>
      <trkpt lat="48.41779" lon="2.52118">
        <ele>115.5</ele>
        <time>2024-11-07T10:38:29Z</time>
      </trkpt>
      <trkpt lat="48.41778" lon="2.52148">
        <ele>113.4</ele>
        <time>2024-11-07T10:38:32Z</time>
      </trkpt>
      <trkpt lat="48.41769" lon="2.52176">
        <ele>112.5</ele>
        <time>2024-11-07T10:38:35Z</time>
      </trkpt>
      <trkpt lat="48.41753" lon="2.52197">
        <ele>114.7</ele>
        <time>2024-11-07T10:38:39Z</time>
      </trkpt>
      <trkpt lat="48.41734" lon="2.52203">
        <ele>116.8</ele>
        <time>2024-11-07T10:38:44Z</time>
      </trkpt>
      <trkpt lat="48.41712" lon="2.52203">
        <ele>117.9</ele>
        <time>2024-11-07T10:38:49Z</time>
      </trkpt>
      <trkpt lat="48.41692" lon="2.52212">
        <ele>118.8</ele>
        <time>2024-11-07T10:38:54Z</time>
      </trkpt>
      <trkpt lat="48.41683" lon="2.5224">
        <ele>119.5</ele>
        <time>2024-11-07T10:39:01Z</time>
      </trkpt>
      <trkpt lat="48.41677" lon="2.52267">
        <ele>120</ele>
        <time>2024-11-07T10:39:07Z</time>
      </trkpt>
      <trkpt lat="48.41667" lon="2.52293">
        <ele>120.6</ele>
        <time>2024-11-07T10:39:13Z</time>
      </trkpt>
      <trkpt lat="48.41659" lon="2.52322">
        <ele>121</ele>
        <time>2024-11-07T10:39:19Z</time>
      </trkpt>
      <trkpt lat="48.41651" lon="2.5235">
        <ele>120.7</ele>
        <time>2024-11-07T10:39:24Z</time>
      </trkpt>
      <trkpt lat="48.41642" lon="2.52377">
        <ele>120.2</ele>
        <time>2024-11-07T10:39:28Z</time>
      </trkpt>
      <trkpt lat="48.41634" lon="2.52404">
        <ele>120</ele>
        <time>2024-11-07T10:39:32Z</time>
      </trkpt>
      <trkpt lat="48.41623" lon="2.5243">
        <ele>119.7</ele>
        <time>2024-11-07T10:39:36Z</time>
      </trkpt>
      <trkpt lat="48.4161" lon="2.52452">
        <ele>119.3</ele>
        <time>2024-11-07T10:39:40Z</time>
      </trkpt>
      <trkpt lat="48.41612" lon="2.52483">
        <ele>120.4</ele>
        <time>2024-11-07T10:39:45Z</time>
      </trkpt>
      <trkpt lat="48.41616" lon="2.52512">
        <ele>121</ele>
        <time>2024-11-07T10:39:50Z</time>
      </trkpt>
      <trkpt lat="48.41603" lon="2.52537">
        <ele>121.3</ele>
        <time>2024-11-07T10:39:54Z</time>
      </trkpt>
      <trkpt lat="48.41593" lon="2.52562">
        <ele>121.6</ele>
        <time>2024-11-07T10:39:58Z</time>
      </trkpt>
      <trkpt lat="48.41585" lon="2.52586">
        <ele>121.9</ele>
        <time>2024-11-07T10:40:02Z</time>
      </trkpt>
      <trkpt lat="48.41577" lon="2.52615">
        <ele>122.1</ele>
        <time>2024-11-07T10:40:07Z</time>
      </trkpt>
      <trkpt lat="48.41578" lon="2.52643">
        <ele>121.1</ele>
        <time>2024-11-07T10:40:11Z</time>
      </trkpt>
      <trkpt lat="48.41591" lon="2.52663">
        <ele>119.8</ele>
        <time>2024-11-07T10:40:15Z</time>
      </trkpt>
      <trkpt lat="48.41605" lon="2.52685">
        <ele>118.1</ele>
        <time>2024-11-07T10:40:18Z</time>
      </trkpt>
      <trkpt lat="48.41612" lon="2.52712">
        <ele>115.7</ele>
        <time>2024-11-07T10:40:21Z</time>
      </trkpt>
      <trkpt lat="48.41621" lon="2.5274">
        <ele>112.7</ele>
        <time>2024-11-07T10:40:24Z</time>
      </trkpt>
      <trkpt lat="48.41634" lon="2.52766">
        <ele>108.2</ele>
        <time>2024-11-07T10:40:27Z</time>
      </trkpt>
      <trkpt lat="48.4165" lon="2.52798">
        <ele>105.7</ele>
        <time>2024-11-07T10:40:30Z</time>
      </trkpt>
      <trkpt lat="48.41658" lon="2.52828">
        <ele>104</ele>
        <time>2024-11-07T10:40:33Z</time>
      </trkpt>
      <trkpt lat="48.41661" lon="2.52858">
        <ele>101.5</ele>
        <time>2024-11-07T10:40:38Z</time>
      </trkpt>
      <trkpt lat="48.41664" lon="2.52891">
        <ele>97.8</ele>
        <time>2024-11-07T10:40:42Z</time>
      </trkpt>
      <trkpt lat="48.41666" lon="2.52921">
        <ele>94.8</ele>
        <time>2024-11-07T10:40:46Z</time>
      </trkpt>
      <trkpt lat="48.41682" lon="2.52934">
        <ele>89.6</ele>
        <time>2024-11-07T10:40:50Z</time>
      </trkpt>
      <trkpt lat="48.41705" lon="2.52936">
        <ele>84.3</ele>
        <time>2024-11-07T10:40:55Z</time>
      </trkpt>
      <trkpt lat="48.41728" lon="2.52942">
        <ele>80</ele>
        <time>2024-11-07T10:40:59Z</time>
      </trkpt>
      <trkpt lat="48.41746" lon="2.52953">
        <ele>77.1</ele>
        <time>2024-11-07T10:41:01Z</time>
      </trkpt>
      <trkpt lat="48.41763" lon="2.52969">
        <ele>75.2</ele>
        <time>2024-11-07T10:41:03Z</time>
      </trkpt>
      <trkpt lat="48.41779" lon="2.52987">
        <ele>73.5</ele>
        <time>2024-11-07T10:41:05Z</time>
      </trkpt>
      <trkpt lat="48.41795" lon="2.53006">
        <ele>72.9</ele>
        <time>2024-11-07T10:41:07Z</time>
      </trkpt>
      <trkpt lat="48.41806" lon="2.53029">
        <ele>72</ele>
        <time>2024-11-07T10:41:09Z</time>
      </trkpt>
      <trkpt lat="48.41819" lon="2.53058">
        <ele>72</ele>
        <time>2024-11-07T10:41:12Z</time>
      </trkpt>
      <trkpt lat="48.41821" lon="2.53087">
        <ele>71.8</ele>
        <time>2024-11-07T10:41:16Z</time>
      </trkpt>
      <trkpt lat="48.41815" lon="2.53114">
        <ele>71.6</ele>
        <time>2024-11-07T10:41:20Z</time>
      </trkpt>
      <trkpt lat="48.41807" lon="2.53144">
        <ele>70.8</ele>
        <time>2024-11-07T10:41:24Z</time>
      </trkpt>
      <trkpt lat="48.41803" lon="2.53172">
        <ele>70.1</ele>
        <time>2024-11-07T10:41:28Z</time>
      </trkpt>
      <trkpt lat="48.41801" lon="2.53199">
        <ele>70.1</ele>
        <time>2024-11-07T10:41:31Z</time>
      </trkpt>
      <trkpt lat="48.41796" lon="2.53226">
        <ele>70</ele>
        <time>2024-11-07T10:41:35Z</time>
      </trkpt>
      <trkpt lat="48.41789" lon="2.53254">
        <ele>69.8</ele>
        <time>2024-11-07T10:41:39Z</time>
      </trkpt>
      <trkpt lat="48.41785" lon="2.53283">
        <ele>69</ele>
        <time>2024-11-07T10:41:43Z</time>
      </trkpt>
      <trkpt lat="48.41781" lon="2.53315">
        <ele>69</ele>
        <time>2024-11-07T10:41:47Z</time>
      </trkpt>
      <trkpt lat="48.41779" lon="2.53345">
        <ele>68.6</ele>
        <time>2024-11-07T10:41:51Z</time>
      </trkpt>
      <trkpt lat="48.41782" lon="2.53372">
        <ele>68</ele>
        <time>2024-11-07T10:41:55Z</time>
      </trkpt>
      <trkpt lat="48.41793" lon="2.534">
        <ele>68</ele>
        <time>2024-11-07T10:42:00Z</time>
      </trkpt>
      <trkpt lat="48.41806" lon="2.53425">
        <ele>68</ele>
        <time>2024-11-07T10:42:05Z</time>
      </trkpt>
      <trkpt lat="48.41815" lon="2.53449">
        <ele>68.4</ele>
        <time>2024-11-07T10:42:09Z</time>
      </trkpt>
      <trkpt lat="48.41829" lon="2.53474">
        <ele>68.9</ele>
        <time>2024-11-07T10:42:14Z</time>
      </trkpt>
      <trkpt lat="48.41844" lon="2.53497">
        <ele>69</ele>
        <time>2024-11-07T10:42:19Z</time>
      </trkpt>
      <trkpt lat="48.41862" lon="2.53512">
        <ele>69</ele>
        <time>2024-11-07T10:42:24Z</time>
      </trkpt>
      <trkpt lat="48.41875" lon="2.53532">
        <ele>69</ele>
        <time>2024-11-07T10:42:29Z</time>
      </trkpt>
      <trkpt lat="48.41884" lon="2.53557">
        <ele>69</ele>
        <time>2024-11-07T10:42:34Z</time>
      </trkpt>
      <trkpt lat="48.41894" lon="2.53584">
        <ele>69</ele>
        <time>2024-11-07T10:42:39Z</time>
      </trkpt>
      <trkpt lat="48.41903" lon="2.53607">
        <ele>69</ele>
        <time>2024-11-07T10:42:43Z</time>
      </trkpt>
      <trkpt lat="48.41915" lon="2.53632">
        <ele>68.2</ele>
        <time>2024-11-07T10:42:47Z</time>
      </trkpt>
      <trkpt lat="48.41924" lon="2.53657">
        <ele>68</ele>
        <time>2024-11-07T10:42:51Z</time>
      </trkpt>
      <trkpt lat="48.41934" lon="2.53685">
        <ele>68</ele>
        <time>2024-11-07T10:42:56Z</time>
      </trkpt>
      <trkpt lat="48.41944" lon="2.53714">
        <ele>68</ele>
        <time>2024-11-07T10:43:01Z</time>
      </trkpt>
      <trkpt lat="48.41955" lon="2.53743">
        <ele>68</ele>
        <time>2024-11-07T10:43:06Z</time>
      </trkpt>
      <trkpt lat="48.41964" lon="2.53768">
        <ele>68</ele>
        <time>2024-11-07T10:43:10Z</time>
      </trkpt>
      <trkpt lat="48.41973" lon="2.53797">
        <ele>68</ele>
        <time>2024-11-07T10:43:15Z</time>
      </trkpt>
      <trkpt lat="48.41984" lon="2.53827">
        <ele>68</ele>
        <time>2024-11-07T10:43:20Z</time>
      </trkpt>
      <trkpt lat="48.41992" lon="2.53851">
        <ele>68</ele>
        <time>2024-11-07T10:43:24Z</time>
      </trkpt>
      <trkpt lat="48.42" lon="2.53881">
        <ele>68</ele>
        <time>2024-11-07T10:43:29Z</time>
      </trkpt>
      <trkpt lat="48.42009" lon="2.53907">
        <ele>68.2</ele>
        <time>2024-11-07T10:43:34Z</time>
      </trkpt>
      <trkpt lat="48.42008" lon="2.53936">
        <ele>68.8</ele>
        <time>2024-11-07T10:43:40Z</time>
      </trkpt>
      <trkpt lat="48.41993" lon="2.53951">
        <ele>68.7</ele>
        <time>2024-11-07T10:43:45Z</time>
      </trkpt>
      <trkpt lat="48.41974" lon="2.53968">
        <ele>68.1</ele>
        <time>2024-11-07T10:43:50Z</time>
      </trkpt>
      <trkpt lat="48.41956" lon="2.53985">
        <ele>68</ele>
        <time>2024-11-07T10:43:55Z</time>
      </trkpt>
      <trkpt lat="48.41937" lon="2.53997">
        <ele>68</ele>
        <time>2024-11-07T10:44:00Z</time>
      </trkpt>
      <trkpt lat="48.4192" lon="2.54005">
        <ele>68</ele>
        <time>2024-11-07T10:44:04Z</time>
      </trkpt>
      <trkpt lat="48.41902" lon="2.54019">
        <ele>68</ele>
        <time>2024-11-07T10:44:09Z</time>
      </trkpt>
      <trkpt lat="48.41883" lon="2.54026">
        <ele>68</ele>
        <time>2024-11-07T10:44:14Z</time>
      </trkpt>
      <trkpt lat="48.41864" lon="2.54032">
        <ele>68</ele>
        <time>2024-11-07T10:44:19Z</time>
      </trkpt>
      <trkpt lat="48.41843" lon="2.54033">
        <ele>68</ele>
        <time>2024-11-07T10:44:24Z</time>
      </trkpt>
      <trkpt lat="48.41822" lon="2.54042">
        <ele>68</ele>
        <time>2024-11-07T10:44:29Z</time>
      </trkpt>
      <trkpt lat="48.41805" lon="2.54055">
        <ele>68</ele>
        <time>2024-11-07T10:44:33Z</time>
      </trkpt>
      <trkpt lat="48.41786" lon="2.54069">
        <ele>68</ele>
        <time>2024-11-07T10:44:38Z</time>
      </trkpt>
      <trkpt lat="48.41767" lon="2.54087">
        <ele>68</ele>
        <time>2024-11-07T10:44:43Z</time>
      </trkpt>
      <trkpt lat="48.4175" lon="2.54108">
        <ele>68</ele>
        <time>2024-11-07T10:44:48Z</time>
      </trkpt>
      <trkpt lat="48.41733" lon="2.54129">
        <ele>68</ele>
        <time>2024-11-07T10:44:53Z</time>
      </trkpt>
      <trkpt lat="48.41717" lon="2.54149">
        <ele>68</ele>
        <time>2024-11-07T10:44:58Z</time>
      </trkpt>
      <trkpt lat="48.41701" lon="2.54168">
        <ele>68</ele>
        <time>2024-11-07T10:45:03Z</time>
      </trkpt>
      <trkpt lat="48.41686" lon="2.54189">
        <ele>68.3</ele>
        <time>2024-11-07T10:45:08Z</time>
      </trkpt>
      <trkpt lat="48.41672" lon="2.5421">
        <ele>68.8</ele>
        <time>2024-11-07T10:45:13Z</time>
      </trkpt>
      <trkpt lat="48.41659" lon="2.54234">
        <ele>69</ele>
        <time>2024-11-07T10:45:18Z</time>
      </trkpt>
      <trkpt lat="48.41648" lon="2.5426">
        <ele>69</ele>
        <time>2024-11-07T10:45:23Z</time>
      </trkpt>
      <trkpt lat="48.41642" lon="2.54291">
        <ele>68.9</ele>
        <time>2024-11-07T10:45:28Z</time>
      </trkpt>
      <trkpt lat="48.41631" lon="2.54319">
        <ele>68.7</ele>
        <time>2024-11-07T10:45:33Z</time>
      </trkpt>
      <trkpt lat="48.4162" lon="2.54342">
        <ele>68.5</ele>
        <time>2024-11-07T10:45:37Z</time>
      </trkpt>
      <trkpt lat="48.41609" lon="2.54365">
        <ele>68.1</ele>
        <time>2024-11-07T10:45:41Z</time>
      </trkpt>
      <trkpt lat="48.41599" lon="2.5439">
        <ele>68.4</ele>
        <time>2024-11-07T10:45:45Z</time>
      </trkpt>
      <trkpt lat="48.41589" lon="2.54414">
        <ele>68.1</ele>
        <time>2024-11-07T10:45:49Z</time>
      </trkpt>
      <trkpt lat="48.41576" lon="2.54442">
        <ele>68</ele>
        <time>2024-11-07T10:45:54Z</time>
      </trkpt>
      <trkpt lat="48.41565" lon="2.54464">
        <ele>67.7</ele>
        <time>2024-11-07T10:45:58Z</time>
      </trkpt>
      <trkpt lat="48.41554" lon="2.54491">
        <ele>67.3</ele>
        <time>2024-11-07T10:46:03Z</time>
      </trkpt>
      <trkpt lat="48.41538" lon="2.54476">
        <ele>68</ele>
        <time>2024-11-07T10:46:08Z</time>
      </trkpt>
      <trkpt lat="48.41522" lon="2.54458">
        <ele>68.6</ele>
        <time>2024-11-07T10:46:13Z</time>
      </trkpt>
      <trkpt lat="48.41507" lon="2.54441">
        <ele>69</ele>
        <time>2024-11-07T10:46:18Z</time>
      </trkpt>
      <trkpt lat="48.4149" lon="2.5443">
        <ele>69.3</ele>
        <time>2024-11-07T10:46:24Z</time>
      </trkpt>
      <trkpt lat="48.41472" lon="2.54434">
        <ele>70</ele>
        <time>2024-11-07T10:46:41Z</time>
      </trkpt>
      <trkpt lat="48.41453" lon="2.54421">
        <ele>70.8</ele>
        <time>2024-11-07T10:46:49Z</time>
      </trkpt>
      <trkpt lat="48.41434" lon="2.54411">
        <ele>71.3</ele>
        <time>2024-11-07T10:46:55Z</time>
      </trkpt>
      <trkpt lat="48.41415" lon="2.54402">
        <ele>71.6</ele>
        <time>2024-11-07T10:47:01Z</time>
      </trkpt>
      <trkpt lat="48.41397" lon="2.54385">
        <ele>72.3</ele>
        <time>2024-11-07T10:47:08Z</time>
      </trkpt>
      <trkpt lat="48.41379" lon="2.54373">
        <ele>72.8</ele>
        <time>2024-11-07T10:47:13Z</time>
      </trkpt>
      <trkpt lat="48.41361" lon="2.54385">
        <ele>73.8</ele>
        <time>2024-11-07T10:47:19Z</time>
      </trkpt>
      <trkpt lat="48.41346" lon="2.54405">
        <ele>74.3</ele>
        <time>2024-11-07T10:47:26Z</time>
      </trkpt>
      <trkpt lat="48.41335" lon="2.54431">
        <ele>75</ele>
        <time>2024-11-07T10:47:32Z</time>
      </trkpt>
      <trkpt lat="48.41325" lon="2.54453">
        <ele>75.5</ele>
        <time>2024-11-07T10:47:38Z</time>
      </trkpt>
      <trkpt lat="48.41315" lon="2.54476">
        <ele>76.1</ele>
        <time>2024-11-07T10:47:45Z</time>
      </trkpt>
      <trkpt lat="48.41304" lon="2.54499">
        <ele>77</ele>
        <time>2024-11-07T10:47:52Z</time>
      </trkpt>
      <trkpt lat="48.4129" lon="2.54517">
        <ele>77.5</ele>
        <time>2024-11-07T10:48:00Z</time>
      </trkpt>
      <trkpt lat="48.41276" lon="2.54498">
        <ele>78.1</ele>
        <time>2024-11-07T10:48:09Z</time>
      </trkpt>
      <trkpt lat="48.41266" lon="2.54474">
        <ele>78.9</ele>
        <time>2024-11-07T10:48:18Z</time>
      </trkpt>
      <trkpt lat="48.41251" lon="2.54453">
        <ele>81.3</ele>
        <time>2024-11-07T10:48:28Z</time>
      </trkpt>
      <trkpt lat="48.41238" lon="2.54433">
        <ele>83.7</ele>
        <time>2024-11-07T10:48:37Z</time>
      </trkpt>
      <trkpt lat="48.4122" lon="2.54428">
        <ele>85.6</ele>
        <time>2024-11-07T10:48:46Z</time>
      </trkpt>
      <trkpt lat="48.41206" lon="2.54408">
        <ele>86.3</ele>
        <time>2024-11-07T10:48:55Z</time>
      </trkpt>
      <trkpt lat="48.41188" lon="2.54417">
        <ele>86</ele>
        <time>2024-11-07T10:49:05Z</time>
      </trkpt>
      <trkpt lat="48.41178" lon="2.54441">
        <ele>85.6</ele>
        <time>2024-11-07T10:49:26Z</time>
      </trkpt>
      <trkpt lat="48.41161" lon="2.54452">
        <ele>86.2</ele>
        <time>2024-11-07T10:49:35Z</time>
      </trkpt>
      <trkpt lat="48.41144" lon="2.54469">
        <ele>87.4</ele>
        <time>2024-11-07T10:49:45Z</time>
      </trkpt>
      <trkpt lat="48.41129" lon="2.54486">
        <ele>88.7</ele>
        <time>2024-11-07T10:49:53Z</time>
      </trkpt>
      <trkpt lat="48.41111" lon="2.54493">
        <ele>91.3</ele>
        <time>2024-11-07T10:50:06Z</time>
      </trkpt>
      <trkpt lat="48.41094" lon="2.54486">
        <ele>91.8</ele>
        <time>2024-11-07T10:51:19Z</time>
      </trkpt>
      <trkpt lat="48.41076" lon="2.54481">
        <ele>90.3</ele>
        <time>2024-11-07T10:52:20Z</time>
      </trkpt>
      <trkpt lat="48.41072" lon="2.54454">
        <ele>88.9</ele>
        <time>2024-11-07T10:52:39Z</time>
      </trkpt>
      <trkpt lat="48.41054" lon="2.5445">
        <ele>85.7</ele>
        <time>2024-11-07T10:52:58Z</time>
      </trkpt>
      <trkpt lat="48.41036" lon="2.54444">
        <ele>81.8</ele>
        <time>2024-11-07T10:53:12Z</time>
      </trkpt>
      <trkpt lat="48.41023" lon="2.54463">
        <ele>78.6</ele>
        <time>2024-11-07T10:53:19Z</time>
      </trkpt>
      <trkpt lat="48.41018" lon="2.54489">
        <ele>77</ele>
        <time>2024-11-07T10:53:25Z</time>
      </trkpt>
      <trkpt lat="48.41016" lon="2.54521">
        <ele>75.1</ele>
        <time>2024-11-07T10:53:31Z</time>
      </trkpt>
      <trkpt lat="48.41019" lon="2.5455">
        <ele>74.5</ele>
        <time>2024-11-07T10:53:36Z</time>
      </trkpt>
      <trkpt lat="48.41006" lon="2.54573">
        <ele>72.8</ele>
        <time>2024-11-07T10:53:41Z</time>
      </trkpt>
      <trkpt lat="48.40998" lon="2.54599">
        <ele>71.2</ele>
        <time>2024-11-07T10:53:51Z</time>
      </trkpt>
      <trkpt lat="48.40984" lon="2.54619">
        <ele>69.6</ele>
        <time>2024-11-07T10:53:56Z</time>
      </trkpt>
      <trkpt lat="48.40973" lon="2.54645">
        <ele>68</ele>
        <time>2024-11-07T10:54:01Z</time>
      </trkpt>
      <trkpt lat="48.40955" lon="2.54638">
        <ele>68</ele>
        <time>2024-11-07T10:54:10Z</time>
      </trkpt>
      <trkpt lat="48.40943" lon="2.54613">
        <ele>67.9</ele>
        <time>2024-11-07T10:54:17Z</time>
      </trkpt>
      <trkpt lat="48.40931" lon="2.54591">
        <ele>67.5</ele>
        <time>2024-11-07T10:54:23Z</time>
      </trkpt>
      <trkpt lat="48.40918" lon="2.54569">
        <ele>67.1</ele>
        <time>2024-11-07T10:54:29Z</time>
      </trkpt>
      <trkpt lat="48.40907" lon="2.54545">
        <ele>67.3</ele>
        <time>2024-11-07T10:54:35Z</time>
      </trkpt>
      <trkpt lat="48.40894" lon="2.54521">
        <ele>67.2</ele>
        <time>2024-11-07T10:54:41Z</time>
      </trkpt>
      <trkpt lat="48.4088" lon="2.545">
        <ele>67</ele>
        <time>2024-11-07T10:54:46Z</time>
      </trkpt>
      <trkpt lat="48.40866" lon="2.5448">
        <ele>67.7</ele>
        <time>2024-11-07T10:54:51Z</time>
      </trkpt>
      <trkpt lat="48.40854" lon="2.54458">
        <ele>68</ele>
        <time>2024-11-07T10:54:56Z</time>
      </trkpt>
      <trkpt lat="48.40842" lon="2.54436">
        <ele>68.3</ele>
        <time>2024-11-07T10:55:01Z</time>
      </trkpt>
      <trkpt lat="48.40831" lon="2.54411">
        <ele>69.2</ele>
        <time>2024-11-07T10:55:07Z</time>
      </trkpt>
      <trkpt lat="48.40829" lon="2.54382">
        <ele>69.9</ele>
        <time>2024-11-07T10:55:13Z</time>
      </trkpt>
      <trkpt lat="48.40836" lon="2.54357">
        <ele>70.1</ele>
        <time>2024-11-07T10:55:19Z</time>
      </trkpt>
      <trkpt lat="48.40834" lon="2.54327">
        <ele>71</ele>
        <time>2024-11-07T10:55:25Z</time>
      </trkpt>
      <trkpt lat="48.40825" lon="2.54299">
        <ele>71.2</ele>
        <time>2024-11-07T10:55:31Z</time>
      </trkpt>
      <trkpt lat="48.40815" lon="2.54273">
        <ele>71.4</ele>
        <time>2024-11-07T10:55:37Z</time>
      </trkpt>
      <trkpt lat="48.40804" lon="2.54247">
        <ele>72</ele>
        <time>2024-11-07T10:55:43Z</time>
      </trkpt>
      <trkpt lat="48.40794" lon="2.54218">
        <ele>72</ele>
        <time>2024-11-07T10:55:49Z</time>
      </trkpt>
      <trkpt lat="48.40782" lon="2.54194">
        <ele>72</ele>
        <time>2024-11-07T10:55:55Z</time>
      </trkpt>
      <trkpt lat="48.40772" lon="2.54166">
        <ele>72</ele>
        <time>2024-11-07T10:56:01Z</time>
      </trkpt>
      <trkpt lat="48.40763" lon="2.54138">
        <ele>72</ele>
        <time>2024-11-07T10:56:07Z</time>
      </trkpt>
      <trkpt lat="48.40757" lon="2.54113">
        <ele>71.3</ele>
        <time>2024-11-07T10:56:12Z</time>
      </trkpt>
      <trkpt lat="48.40753" lon="2.54083">
        <ele>71.1</ele>
        <time>2024-11-07T10:56:18Z</time>
      </trkpt>
      <trkpt lat="48.40733" lon="2.54073">
        <ele>71.4</ele>
        <time>2024-11-07T10:56:26Z</time>
      </trkpt>
      <trkpt lat="48.40714" lon="2.54085">
        <ele>72</ele>
        <time>2024-11-07T10:56:31Z</time>
      </trkpt>
      <trkpt lat="48.40696" lon="2.54098">
        <ele>72</ele>
        <time>2024-11-07T10:56:36Z</time>
      </trkpt>
      <trkpt lat="48.40677" lon="2.54112">
        <ele>72</ele>
        <time>2024-11-07T10:56:42Z</time>
      </trkpt>
      <trkpt lat="48.40659" lon="2.54122">
        <ele>72</ele>
        <time>2024-11-07T10:56:46Z</time>
      </trkpt>
      <trkpt lat="48.40641" lon="2.54134">
        <ele>72</ele>
        <time>2024-11-07T10:56:50Z</time>
      </trkpt>
      <trkpt lat="48.40624" lon="2.54145">
        <ele>72.5</ele>
        <time>2024-11-07T10:56:54Z</time>
      </trkpt>
      <trkpt lat="48.40603" lon="2.54152">
        <ele>73.3</ele>
        <time>2024-11-07T10:56:59Z</time>
      </trkpt>
      <trkpt lat="48.40585" lon="2.54151">
        <ele>73.9</ele>
        <time>2024-11-07T10:57:04Z</time>
      </trkpt>
      <trkpt lat="48.40565" lon="2.54147">
        <ele>75.7</ele>
        <time>2024-11-07T10:57:11Z</time>
      </trkpt>
      <trkpt lat="48.40547" lon="2.54145">
        <ele>77.3</ele>
        <time>2024-11-07T10:57:19Z</time>
      </trkpt>
      <trkpt lat="48.40531" lon="2.54161">
        <ele>79.6</ele>
        <time>2024-11-07T10:57:29Z</time>
      </trkpt>
      <trkpt lat="48.40519" lon="2.54184">
        <ele>82</ele>
        <time>2024-11-07T10:57:39Z</time>
      </trkpt>
      <trkpt lat="48.40501" lon="2.54194">
        <ele>83</ele>
        <time>2024-11-07T10:57:49Z</time>
      </trkpt>
      <trkpt lat="48.40487" lon="2.5421">
        <ele>85.5</ele>
        <time>2024-11-07T10:57:58Z</time>
      </trkpt>
      <trkpt lat="48.40468" lon="2.54205">
        <ele>85.2</ele>
        <time>2024-11-07T10:58:10Z</time>
      </trkpt>
      <trkpt lat="48.40451" lon="2.54194">
        <ele>86.3</ele>
        <time>2024-11-07T10:58:19Z</time>
      </trkpt>
      <trkpt lat="48.40434" lon="2.54204">
        <ele>88.3</ele>
        <time>2024-11-07T10:58:29Z</time>
      </trkpt>
      <trkpt lat="48.40415" lon="2.54203">
        <ele>89.3</ele>
        <time>2024-11-07T10:58:39Z</time>
      </trkpt>
      <trkpt lat="48.40397" lon="2.54196">
        <ele>89</ele>
        <time>2024-11-07T10:58:47Z</time>
      </trkpt>
      <trkpt lat="48.40379" lon="2.54191">
        <ele>88.4</ele>
        <time>2024-11-07T10:58:52Z</time>
      </trkpt>
      <trkpt lat="48.4036" lon="2.54208">
        <ele>86.9</ele>
        <time>2024-11-07T10:58:57Z</time>
      </trkpt>
      <trkpt lat="48.40349" lon="2.5423">
        <ele>85.7</ele>
        <time>2024-11-07T10:59:01Z</time>
      </trkpt>
      <trkpt lat="48.4033" lon="2.54231">
        <ele>83.8</ele>
        <time>2024-11-07T10:59:05Z</time>
      </trkpt>
      <trkpt lat="48.40312" lon="2.5422">
        <ele>82.5</ele>
        <time>2024-11-07T10:59:09Z</time>
      </trkpt>
      <trkpt lat="48.4031" lon="2.54249">
        <ele>82.3</ele>
        <time>2024-11-07T10:59:16Z</time>
      </trkpt>
      <trkpt lat="48.40308" lon="2.54279">
        <ele>82.2</ele>
        <time>2024-11-07T10:59:22Z</time>
      </trkpt>
      <trkpt lat="48.40311" lon="2.54309">
        <ele>81.4</ele>
        <time>2024-11-07T10:59:28Z</time>
      </trkpt>
      <trkpt lat="48.40304" lon="2.54335">
        <ele>80.9</ele>
        <time>2024-11-07T10:59:34Z</time>
      </trkpt>
      <trkpt lat="48.4029" lon="2.54354">
        <ele>80.4</ele>
        <time>2024-11-07T10:59:39Z</time>
      </trkpt>
      <trkpt lat="48.403" lon="2.54381">
        <ele>81.4</ele>
        <time>2024-11-07T10:59:45Z</time>
      </trkpt>
      <trkpt lat="48.40313" lon="2.54403">
        <ele>83.3</ele>
        <time>2024-11-07T10:59:52Z</time>
      </trkpt>
      <trkpt lat="48.40309" lon="2.5443">
        <ele>84.4</ele>
        <time>2024-11-07T10:59:58Z</time>
      </trkpt>
      <trkpt lat="48.40299" lon="2.54455">
        <ele>84.5</ele>
        <time>2024-11-07T11:00:03Z</time>
      </trkpt>
      <trkpt lat="48.4029" lon="2.54483">
        <ele>84.9</ele>
        <time>2024-11-07T11:00:08Z</time>
      </trkpt>
      <trkpt lat="48.4028" lon="2.54507">
        <ele>84.5</ele>
        <time>2024-11-07T11:00:13Z</time>
      </trkpt>
      <trkpt lat="48.4026" lon="2.54507">
        <ele>82.4</ele>
        <time>2024-11-07T11:00:25Z</time>
      </trkpt>
      <trkpt lat="48.40241" lon="2.5451">
        <ele>80.6</ele>
        <time>2024-11-07T11:00:34Z</time>
      </trkpt>
      <trkpt lat="48.40228" lon="2.54529">
        <ele>79.6</ele>
        <time>2024-11-07T11:00:43Z</time>
      </trkpt>
      <trkpt lat="48.4021" lon="2.54521">
        <ele>78.1</ele>
        <time>2024-11-07T11:00:51Z</time>
      </trkpt>
      <trkpt lat="48.40193" lon="2.54531">
        <ele>77</ele>
        <time>2024-11-07T11:01:37Z</time>
      </trkpt>
      <trkpt lat="48.40185" lon="2.5456">
        <ele>77.3</ele>
        <time>2024-11-07T11:01:42Z</time>
      </trkpt>
      <trkpt lat="48.40179" lon="2.54586">
        <ele>76.9</ele>
        <time>2024-11-07T11:01:46Z</time>
      </trkpt>
      <trkpt lat="48.40159" lon="2.54585">
        <ele>76.1</ele>
        <time>2024-11-07T11:01:56Z</time>
      </trkpt>
      <trkpt lat="48.40137" lon="2.54582">
        <ele>75.9</ele>
        <time>2024-11-07T11:02:01Z</time>
      </trkpt>
      <trkpt lat="48.4012" lon="2.54595">
        <ele>75.6</ele>
        <time>2024-11-07T11:02:05Z</time>
      </trkpt>
      <trkpt lat="48.40112" lon="2.54624">
        <ele>76</ele>
        <time>2024-11-07T11:02:10Z</time>
      </trkpt>
      <trkpt lat="48.40116" lon="2.54653">
        <ele>76</ele>
        <time>2024-11-07T11:02:15Z</time>
      </trkpt>
      <trkpt lat="48.40125" lon="2.54677">
        <ele>75.8</ele>
        <time>2024-11-07T11:02:24Z</time>
      </trkpt>
      <trkpt lat="48.40105" lon="2.54679">
        <ele>75.4</ele>
        <time>2024-11-07T11:02:38Z</time>
      </trkpt>
      <trkpt lat="48.40086" lon="2.54675">
        <ele>75.1</ele>
        <time>2024-11-07T11:02:48Z</time>
      </trkpt>
      <trkpt lat="48.40066" lon="2.54668">
        <ele>75</ele>
        <time>2024-11-07T11:02:54Z</time>
      </trkpt>
      <trkpt lat="48.40047" lon="2.5466">
        <ele>74.7</ele>
        <time>2024-11-07T11:02:59Z</time>
      </trkpt>
      <trkpt lat="48.40027" lon="2.54651">
        <ele>74</ele>
        <time>2024-11-07T11:03:04Z</time>
      </trkpt>
      <trkpt lat="48.40006" lon="2.54642">
        <ele>74</ele>
        <time>2024-11-07T11:03:09Z</time>
      </trkpt>
      <trkpt lat="48.39986" lon="2.54633">
        <ele>74</ele>
        <time>2024-11-07T11:03:14Z</time>
      </trkpt>
      <trkpt lat="48.39966" lon="2.54624">
        <ele>74</ele>
        <time>2024-11-07T11:03:19Z</time>
      </trkpt>
      <trkpt lat="48.39945" lon="2.54617">
        <ele>74</ele>
        <time>2024-11-07T11:03:24Z</time>
      </trkpt>
      <trkpt lat="48.39925" lon="2.54609">
        <ele>74</ele>
        <time>2024-11-07T11:03:29Z</time>
      </trkpt>
      <trkpt lat="48.39903" lon="2.54603">
        <ele>74</ele>
        <time>2024-11-07T11:03:34Z</time>
      </trkpt>
      <trkpt lat="48.39885" lon="2.54599">
        <ele>74</ele>
        <time>2024-11-07T11:03:38Z</time>
      </trkpt>
      <trkpt lat="48.39864" lon="2.54594">
        <ele>74</ele>
        <time>2024-11-07T11:03:43Z</time>
      </trkpt>
      <trkpt lat="48.39844" lon="2.54587">
        <ele>74</ele>
        <time>2024-11-07T11:03:48Z</time>
      </trkpt>
      <trkpt lat="48.39823" lon="2.54579">
        <ele>74.2</ele>
        <time>2024-11-07T11:03:53Z</time>
      </trkpt>
      <trkpt lat="48.39803" lon="2.5457">
        <ele>74.5</ele>
        <time>2024-11-07T11:03:58Z</time>
      </trkpt>
      <trkpt lat="48.39783" lon="2.54561">
        <ele>75</ele>
        <time>2024-11-07T11:04:03Z</time>
      </trkpt>
      <trkpt lat="48.39762" lon="2.54552">
        <ele>75.6</ele>
        <time>2024-11-07T11:04:08Z</time>
      </trkpt>
      <trkpt lat="48.39741" lon="2.54541">
        <ele>76</ele>
        <time>2024-11-07T11:04:13Z</time>
      </trkpt>
      <trkpt lat="48.39721" lon="2.54533">
        <ele>76</ele>
        <time>2024-11-07T11:04:18Z</time>
      </trkpt>
      <trkpt lat="48.397" lon="2.54543">
        <ele>76</ele>
        <time>2024-11-07T11:04:23Z</time>
      </trkpt>
      <trkpt lat="48.39686" lon="2.54568">
        <ele>75.7</ele>
        <time>2024-11-07T11:04:28Z</time>
      </trkpt>
      <trkpt lat="48.39673" lon="2.54589">
        <ele>75.6</ele>
        <time>2024-11-07T11:04:32Z</time>
      </trkpt>
      <trkpt lat="48.3966" lon="2.54614">
        <ele>75.6</ele>
        <time>2024-11-07T11:04:36Z</time>
      </trkpt>
      <trkpt lat="48.39652" lon="2.54645">
        <ele>75.3</ele>
        <time>2024-11-07T11:04:40Z</time>
      </trkpt>
      <trkpt lat="48.39644" lon="2.54679">
        <ele>74.2</ele>
        <time>2024-11-07T11:04:44Z</time>
      </trkpt>
      <trkpt lat="48.39637" lon="2.54712">
        <ele>73.6</ele>
        <time>2024-11-07T11:04:48Z</time>
      </trkpt>
      <trkpt lat="48.39627" lon="2.54744">
        <ele>73.5</ele>
        <time>2024-11-07T11:04:52Z</time>
      </trkpt>
      <trkpt lat="48.39618" lon="2.54776">
        <ele>72.8</ele>
        <time>2024-11-07T11:04:56Z</time>
      </trkpt>
      <trkpt lat="48.39608" lon="2.54809">
        <ele>73.2</ele>
        <time>2024-11-07T11:05:00Z</time>
      </trkpt>
      <trkpt lat="48.39599" lon="2.54842">
        <ele>73.3</ele>
        <time>2024-11-07T11:05:04Z</time>
      </trkpt>
      <trkpt lat="48.3959" lon="2.54874">
        <ele>73.2</ele>
        <time>2024-11-07T11:05:08Z</time>
      </trkpt>
      <trkpt lat="48.39582" lon="2.54902">
        <ele>72.7</ele>
        <time>2024-11-07T11:05:12Z</time>
      </trkpt>
      <trkpt lat="48.39575" lon="2.54927">
        <ele>72.2</ele>
        <time>2024-11-07T11:05:16Z</time>
      </trkpt>
      <trkpt lat="48.39565" lon="2.54955">
        <ele>72.1</ele>
        <time>2024-11-07T11:05:20Z</time>
      </trkpt>
      <trkpt lat="48.39553" lon="2.54981">
        <ele>71.8</ele>
        <time>2024-11-07T11:05:24Z</time>
      </trkpt>
      <trkpt lat="48.39542" lon="2.55006">
        <ele>71.9</ele>
        <time>2024-11-07T11:05:28Z</time>
      </trkpt>
      <trkpt lat="48.39529" lon="2.55032">
        <ele>71.8</ele>
        <time>2024-11-07T11:05:32Z</time>
      </trkpt>
      <trkpt lat="48.39519" lon="2.55058">
        <ele>71.6</ele>
        <time>2024-11-07T11:05:36Z</time>
      </trkpt>
      <trkpt lat="48.3951" lon="2.55084">
        <ele>71.6</ele>
        <time>2024-11-07T11:05:40Z</time>
      </trkpt>
      <trkpt lat="48.395" lon="2.55109">
        <ele>72</ele>
        <time>2024-11-07T11:05:44Z</time>
      </trkpt>
      <trkpt lat="48.39491" lon="2.55133">
        <ele>72.5</ele>
        <time>2024-11-07T11:05:48Z</time>
      </trkpt>
      <trkpt lat="48.39482" lon="2.55159">
        <ele>72.4</ele>
        <time>2024-11-07T11:05:52Z</time>
      </trkpt>
      <trkpt lat="48.39474" lon="2.55184">
        <ele>72.3</ele>
        <time>2024-11-07T11:05:56Z</time>
      </trkpt>
      <trkpt lat="48.39466" lon="2.55209">
        <ele>72.3</ele>
        <time>2024-11-07T11:06:00Z</time>
      </trkpt>
      <trkpt lat="48.39455" lon="2.55232">
        <ele>72.6</ele>
        <time>2024-11-07T11:06:04Z</time>
      </trkpt>
      <trkpt lat="48.39443" lon="2.55258">
        <ele>73</ele>
        <time>2024-11-07T11:06:09Z</time>
      </trkpt>
      <trkpt lat="48.39423" lon="2.55247">
        <ele>73.8</ele>
        <time>2024-11-07T11:06:15Z</time>
      </trkpt>
      <trkpt lat="48.39406" lon="2.55235">
        <ele>74</ele>
        <time>2024-11-07T11:06:21Z</time>
      </trkpt>
      <trkpt lat="48.39387" lon="2.55226">
        <ele>74</ele>
        <time>2024-11-07T11:06:29Z</time>
      </trkpt>
      <trkpt lat="48.39369" lon="2.5523">
        <ele>74</ele>
        <time>2024-11-07T11:07:43Z</time>
      </trkpt>
      <trkpt lat="48.39349" lon="2.55233">
        <ele>73.8</ele>
        <time>2024-11-07T11:07:50Z</time>
      </trkpt>
      <trkpt lat="48.39329" lon="2.55234">
        <ele>73.5</ele>
        <time>2024-11-07T11:07:57Z</time>
      </trkpt>
      <trkpt lat="48.39308" lon="2.55225">
        <ele>73.1</ele>
        <time>2024-11-07T11:08:04Z</time>
      </trkpt>
      <trkpt lat="48.39291" lon="2.5521">
        <ele>73.4</ele>
        <time>2024-11-07T11:08:09Z</time>
      </trkpt>
      <trkpt lat="48.39276" lon="2.55189">
        <ele>74.1</ele>
        <time>2024-11-07T11:08:14Z</time>
      </trkpt>
      <trkpt lat="48.39264" lon="2.55167">
        <ele>75</ele>
        <time>2024-11-07T11:08:20Z</time>
      </trkpt>
      <trkpt lat="48.39246" lon="2.55155">
        <ele>76.7</ele>
        <time>2024-11-07T11:08:27Z</time>
      </trkpt>
      <trkpt lat="48.39237" lon="2.55131">
        <ele>78.1</ele>
        <time>2024-11-07T11:08:40Z</time>
      </trkpt>
      <trkpt lat="48.39224" lon="2.55107">
        <ele>78.5</ele>
        <time>2024-11-07T11:08:48Z</time>
      </trkpt>
      <trkpt lat="48.39212" lon="2.55086">
        <ele>77.7</ele>
        <time>2024-11-07T11:08:57Z</time>
      </trkpt>
      <trkpt lat="48.39195" lon="2.55076">
        <ele>77.5</ele>
        <time>2024-11-07T11:09:04Z</time>
      </trkpt>
      <trkpt lat="48.39175" lon="2.55078">
        <ele>77.8</ele>
        <time>2024-11-07T11:09:15Z</time>
      </trkpt>
      <trkpt lat="48.3916" lon="2.55057">
        <ele>76.6</ele>
        <time>2024-11-07T11:09:23Z</time>
      </trkpt>
      <trkpt lat="48.39149" lon="2.55034">
        <ele>75.4</ele>
        <time>2024-11-07T11:09:30Z</time>
      </trkpt>
      <trkpt lat="48.39147" lon="2.55005">
        <ele>75.1</ele>
        <time>2024-11-07T11:10:16Z</time>
      </trkpt>
      <trkpt lat="48.39154" lon="2.54977">
        <ele>75</ele>
        <time>2024-11-07T11:10:24Z</time>
      </trkpt>
      <trkpt lat="48.39159" lon="2.54948">
        <ele>75</ele>
        <time>2024-11-07T11:10:32Z</time>
      </trkpt>
      <trkpt lat="48.39156" lon="2.5492">
        <ele>75</ele>
        <time>2024-11-07T11:10:41Z</time>
      </trkpt>
      <trkpt lat="48.39151" lon="2.54892">
        <ele>75</ele>
        <time>2024-11-07T11:10:52Z</time>
      </trkpt>
      <trkpt lat="48.39166" lon="2.54874">
        <ele>75</ele>
        <time>2024-11-07T11:11:04Z</time>
      </trkpt>
      <trkpt lat="48.39186" lon="2.54877">
        <ele>75.3</ele>
        <time>2024-11-07T11:11:16Z</time>
      </trkpt>
      <trkpt lat="48.39203" lon="2.54862">
        <ele>76</ele>
        <time>2024-11-07T11:11:24Z</time>
      </trkpt>
      <trkpt lat="48.39221" lon="2.54864">
        <ele>76</ele>
        <time>2024-11-07T11:11:34Z</time>
      </trkpt>
      <trkpt lat="48.39237" lon="2.54847">
        <ele>77</ele>
        <time>2024-11-07T11:11:47Z</time>
      </trkpt>
      <trkpt lat="48.39253" lon="2.54833">
        <ele>78.1</ele>
        <time>2024-11-07T11:12:03Z</time>
      </trkpt>
      <trkpt lat="48.39271" lon="2.54831">
        <ele>78.8</ele>
        <time>2024-11-07T11:12:14Z</time>
      </trkpt>
      <trkpt lat="48.39289" lon="2.54826">
        <ele>79.7</ele>
        <time>2024-11-07T11:12:27Z</time>
      </trkpt>
      <trkpt lat="48.39307" lon="2.54827">
        <ele>80.4</ele>
        <time>2024-11-07T11:12:41Z</time>
      </trkpt>
      <trkpt lat="48.3932" lon="2.54807">
        <ele>82</ele>
        <time>2024-11-07T11:12:54Z</time>
      </trkpt>
      <trkpt lat="48.39323" lon="2.54779">
        <ele>82.3</ele>
        <time>2024-11-07T11:13:02Z</time>
      </trkpt>
      <trkpt lat="48.39327" lon="2.5475">
        <ele>82.6</ele>
        <time>2024-11-07T11:13:10Z</time>
      </trkpt>
      <trkpt lat="48.39329" lon="2.54721">
        <ele>82.7</ele>
        <time>2024-11-07T11:13:18Z</time>
      </trkpt>
      <trkpt lat="48.39331" lon="2.54693">
        <ele>82.8</ele>
        <time>2024-11-07T11:13:26Z</time>
      </trkpt>
      <trkpt lat="48.39335" lon="2.54666">
        <ele>83.4</ele>
        <time>2024-11-07T11:13:34Z</time>
      </trkpt>
      <trkpt lat="48.39338" lon="2.54637">
        <ele>84.9</ele>
        <time>2024-11-07T11:13:42Z</time>
      </trkpt>
      <trkpt lat="48.39342" lon="2.54609">
        <ele>85.8</ele>
        <time>2024-11-07T11:13:50Z</time>
      </trkpt>
      <trkpt lat="48.39343" lon="2.54579">
        <ele>86.5</ele>
        <time>2024-11-07T11:13:58Z</time>
      </trkpt>
      <trkpt lat="48.39351" lon="2.54554">
        <ele>88</ele>
        <time>2024-11-07T11:14:07Z</time>
      </trkpt>
      <trkpt lat="48.39363" lon="2.54533">
        <ele>89.6</ele>
        <time>2024-11-07T11:14:14Z</time>
      </trkpt>
      <trkpt lat="48.3937" lon="2.54506">
        <ele>91.1</ele>
        <time>2024-11-07T11:14:22Z</time>
      </trkpt>
      <trkpt lat="48.39378" lon="2.54481">
        <ele>92.7</ele>
        <time>2024-11-07T11:14:30Z</time>
      </trkpt>
      <trkpt lat="48.3938" lon="2.54453">
        <ele>92.2</ele>
        <time>2024-11-07T11:14:39Z</time>
      </trkpt>
      <trkpt lat="48.39381" lon="2.54424">
        <ele>92.4</ele>
        <time>2024-11-07T11:14:47Z</time>
      </trkpt>
      <trkpt lat="48.39382" lon="2.54395">
        <ele>93.5</ele>
        <time>2024-11-07T11:14:56Z</time>
      </trkpt>
      <trkpt lat="48.39382" lon="2.54368">
        <ele>94.9</ele>
        <time>2024-11-07T11:15:06Z</time>
      </trkpt>
      <trkpt lat="48.39395" lon="2.54346">
        <ele>96</ele>
        <time>2024-11-07T11:15:17Z</time>
      </trkpt>
      <trkpt lat="48.39393" lon="2.54317">
        <ele>96.3</ele>
        <time>2024-11-07T11:15:26Z</time>
      </trkpt>
      <trkpt lat="48.39381" lon="2.54294">
        <ele>98.8</ele>
        <time>2024-11-07T11:15:41Z</time>
      </trkpt>
      <trkpt lat="48.39381" lon="2.54266">
        <ele>100.7</ele>
        <time>2024-11-07T11:15:56Z</time>
      </trkpt>
      <trkpt lat="48.39387" lon="2.54241">
        <ele>103.2</ele>
        <time>2024-11-07T11:16:33Z</time>
      </trkpt>
      <trkpt lat="48.39396" lon="2.54217">
        <ele>107.9</ele>
        <time>2024-11-07T11:17:45Z</time>
      </trkpt>
      <trkpt lat="48.39403" lon="2.5419">
        <ele>112.7</ele>
        <time>2024-11-07T11:17:59Z</time>
      </trkpt>
      <trkpt lat="48.39409" lon="2.54164">
        <ele>116</ele>
        <time>2024-11-07T11:18:40Z</time>
      </trkpt>
      <trkpt lat="48.39418" lon="2.5414">
        <ele>117.8</ele>
        <time>2024-11-07T11:20:26Z</time>
      </trkpt>
      <trkpt lat="48.3943" lon="2.5412">
        <ele>117.1</ele>
        <time>2024-11-07T11:20:36Z</time>
      </trkpt>
      <trkpt lat="48.39439" lon="2.54092">
        <ele>117.8</ele>
        <time>2024-11-07T11:20:44Z</time>
      </trkpt>
      <trkpt lat="48.39448" lon="2.54065">
        <ele>118.4</ele>
        <time>2024-11-07T11:20:51Z</time>
      </trkpt>
      <trkpt lat="48.39457" lon="2.54039">
        <ele>118.9</ele>
        <time>2024-11-07T11:20:58Z</time>
      </trkpt>
      <trkpt lat="48.39465" lon="2.54012">
        <ele>119.2</ele>
        <time>2024-11-07T11:21:05Z</time>
      </trkpt>
      <trkpt lat="48.3947" lon="2.53985">
        <ele>119.6</ele>
        <time>2024-11-07T11:21:27Z</time>
      </trkpt>
      <trkpt lat="48.39475" lon="2.53957">
        <ele>120</ele>
        <time>2024-11-07T11:21:34Z</time>
      </trkpt>
      <trkpt lat="48.3948" lon="2.53928">
        <ele>119.6</ele>
        <time>2024-11-07T11:21:40Z</time>
      </trkpt>
      <trkpt lat="48.39481" lon="2.53898">
        <ele>119.3</ele>
        <time>2024-11-07T11:21:46Z</time>
      </trkpt>
      <trkpt lat="48.39481" lon="2.53869">
        <ele>118.6</ele>
        <time>2024-11-07T11:21:55Z</time>
      </trkpt>
      <trkpt lat="48.39481" lon="2.53839">
        <ele>119.1</ele>
        <time>2024-11-07T11:22:03Z</time>
      </trkpt>
      <trkpt lat="48.39481" lon="2.53811">
        <ele>119.3</ele>
        <time>2024-11-07T11:22:10Z</time>
      </trkpt>
      <trkpt lat="48.39466" lon="2.53795">
        <ele>119</ele>
        <time>2024-11-07T11:22:20Z</time>
      </trkpt>
      <trkpt lat="48.3945" lon="2.53777">
        <ele>119</ele>
        <time>2024-11-07T11:22:27Z</time>
      </trkpt>
      <trkpt lat="48.39432" lon="2.53765">
        <ele>119</ele>
        <time>2024-11-07T11:22:34Z</time>
      </trkpt>
      <trkpt lat="48.39414" lon="2.53771">
        <ele>119</ele>
        <time>2024-11-07T11:22:40Z</time>
      </trkpt>
      <trkpt lat="48.39393" lon="2.53765">
        <ele>119</ele>
        <time>2024-11-07T11:22:46Z</time>
      </trkpt>
      <trkpt lat="48.39376" lon="2.53753">
        <ele>118.9</ele>
        <time>2024-11-07T11:22:52Z</time>
      </trkpt>
      <trkpt lat="48.39381" lon="2.53781">
        <ele>118.8</ele>
        <time>2024-11-07T11:23:17Z</time>
      </trkpt>
      <trkpt lat="48.39368" lon="2.53801">
        <ele>118.9</ele>
        <time>2024-11-07T11:23:37Z</time>
      </trkpt>
      <trkpt lat="48.3935" lon="2.53805">
        <ele>118.6</ele>
        <time>2024-11-07T11:24:05Z</time>
      </trkpt>
      <trkpt lat="48.39335" lon="2.53822">
        <ele>118</ele>
        <time>2024-11-07T11:24:11Z</time>
      </trkpt>
      <trkpt lat="48.39316" lon="2.53829">
        <ele>116.9</ele>
        <time>2024-11-07T11:24:17Z</time>
      </trkpt>
      <trkpt lat="48.39294" lon="2.53831">
        <ele>114.9</ele>
        <time>2024-11-07T11:24:23Z</time>
      </trkpt>
      <trkpt lat="48.39276" lon="2.53829">
        <ele>113.2</ele>
        <time>2024-11-07T11:24:40Z</time>
      </trkpt>
      <trkpt lat="48.39266" lon="2.53806">
        <ele>113.2</ele>
        <time>2024-11-07T11:24:59Z</time>
      </trkpt>
      <trkpt lat="48.39253" lon="2.53785">
        <ele>112.2</ele>
        <time>2024-11-07T11:25:08Z</time>
      </trkpt>
      <trkpt lat="48.39248" lon="2.53759">
        <ele>112.2</ele>
        <time>2024-11-07T11:25:31Z</time>
      </trkpt>
      <trkpt lat="48.39249" lon="2.5373">
        <ele>112.7</ele>
        <time>2024-11-07T11:25:40Z</time>
      </trkpt>
      <trkpt lat="48.3925" lon="2.53702">
        <ele>112.9</ele>
        <time>2024-11-07T11:25:50Z</time>
      </trkpt>
      <trkpt lat="48.39249" lon="2.53673">
        <ele>112.7</ele>
        <time>2024-11-07T11:26:01Z</time>
      </trkpt>
      <trkpt lat="48.39254" lon="2.53645">
        <ele>112.9</ele>
        <time>2024-11-07T11:26:10Z</time>
      </trkpt>
      <trkpt lat="48.39261" lon="2.53617">
        <ele>113.6</ele>
        <time>2024-11-07T11:26:19Z</time>
      </trkpt>
      <trkpt lat="48.39264" lon="2.5359">
        <ele>115.2</ele>
        <time>2024-11-07T11:26:28Z</time>
      </trkpt>
      <trkpt lat="48.39249" lon="2.53574">
        <ele>114.5</ele>
        <time>2024-11-07T11:26:35Z</time>
      </trkpt>
      <trkpt lat="48.39246" lon="2.53547">
        <ele>116</ele>
        <time>2024-11-07T11:26:45Z</time>
      </trkpt>
      <trkpt lat="48.39244" lon="2.53518">
        <ele>116.6</ele>
        <time>2024-11-07T11:26:54Z</time>
      </trkpt>
      <trkpt lat="48.39239" lon="2.53491">
        <ele>116.2</ele>
        <time>2024-11-07T11:27:00Z</time>
      </trkpt>
      <trkpt lat="48.39243" lon="2.53461">
        <ele>116.6</ele>
        <time>2024-11-07T11:27:07Z</time>
      </trkpt>
      <trkpt lat="48.3924" lon="2.53431">
        <ele>116.8</ele>
        <time>2024-11-07T11:27:13Z</time>
      </trkpt>
      <trkpt lat="48.39233" lon="2.53402">
        <ele>117.2</ele>
        <time>2024-11-07T11:27:20Z</time>
      </trkpt>
      <trkpt lat="48.39227" lon="2.53372">
        <ele>117.2</ele>
        <time>2024-11-07T11:27:26Z</time>
      </trkpt>
      <trkpt lat="48.39209" lon="2.5337">
        <ele>117.5</ele>
        <time>2024-11-07T11:28:41Z</time>
      </trkpt>
      <trkpt lat="48.39194" lon="2.53389">
        <ele>118</ele>
        <time>2024-11-07T11:28:48Z</time>
      </trkpt>
      <trkpt lat="48.3918" lon="2.53406">
        <ele>118.2</ele>
        <time>2024-11-07T11:28:55Z</time>
      </trkpt>
      <trkpt lat="48.39172" lon="2.53435">
        <ele>118.6</ele>
        <time>2024-11-07T11:29:02Z</time>
      </trkpt>
      <trkpt lat="48.39161" lon="2.53458">
        <ele>118.8</ele>
        <time>2024-11-07T11:29:10Z</time>
      </trkpt>
      <trkpt lat="48.39148" lon="2.53479">
        <ele>119.1</ele>
        <time>2024-11-07T11:29:17Z</time>
      </trkpt>
      <trkpt lat="48.39139" lon="2.53503">
        <ele>118.8</ele>
        <time>2024-11-07T11:29:23Z</time>
      </trkpt>
      <trkpt lat="48.39129" lon="2.5353">
        <ele>118</ele>
        <time>2024-11-07T11:29:29Z</time>
      </trkpt>
      <trkpt lat="48.39115" lon="2.53551">
        <ele>118.8</ele>
        <time>2024-11-07T11:29:35Z</time>
      </trkpt>
      <trkpt lat="48.39102" lon="2.53573">
        <ele>118.6</ele>
        <time>2024-11-07T11:29:42Z</time>
      </trkpt>
      <trkpt lat="48.39086" lon="2.53591">
        <ele>119.1</ele>
        <time>2024-11-07T11:29:48Z</time>
      </trkpt>
      <trkpt lat="48.39067" lon="2.53597">
        <ele>120.2</ele>
        <time>2024-11-07T11:29:54Z</time>
      </trkpt>
      <trkpt lat="48.39052" lon="2.53616">
        <ele>120.9</ele>
        <time>2024-11-07T11:30:00Z</time>
      </trkpt>
      <trkpt lat="48.39039" lon="2.5364">
        <ele>120.6</ele>
        <time>2024-11-07T11:30:06Z</time>
      </trkpt>
      <trkpt lat="48.39022" lon="2.5366">
        <ele>120.6</ele>
        <time>2024-11-07T11:30:12Z</time>
      </trkpt>
      <trkpt lat="48.39004" lon="2.53664">
        <ele>121.7</ele>
        <time>2024-11-07T11:30:18Z</time>
      </trkpt>
      <trkpt lat="48.38986" lon="2.53675">
        <ele>121.7</ele>
        <time>2024-11-07T11:30:35Z</time>
      </trkpt>
      <trkpt lat="48.38969" lon="2.53664">
        <ele>122</ele>
        <time>2024-11-07T11:30:47Z</time>
      </trkpt>
      <trkpt lat="48.38959" lon="2.5364">
        <ele>121.6</ele>
        <time>2024-11-07T11:30:53Z</time>
      </trkpt>
      <trkpt lat="48.38949" lon="2.53616">
        <ele>119.6</ele>
        <time>2024-11-07T11:31:00Z</time>
      </trkpt>
      <trkpt lat="48.38931" lon="2.53627">
        <ele>119.3</ele>
        <time>2024-11-07T11:31:13Z</time>
      </trkpt>
      <trkpt lat="48.38915" lon="2.5364">
        <ele>120</ele>
        <time>2024-11-07T11:31:25Z</time>
      </trkpt>
      <trkpt lat="48.38898" lon="2.53651">
        <ele>120.1</ele>
        <time>2024-11-07T11:31:33Z</time>
      </trkpt>
      <trkpt lat="48.38881" lon="2.53641">
        <ele>118.6</ele>
        <time>2024-11-07T11:32:26Z</time>
      </trkpt>
      <trkpt lat="48.38867" lon="2.53659">
        <ele>119.5</ele>
        <time>2024-11-07T11:32:58Z</time>
      </trkpt>
      <trkpt lat="48.38849" lon="2.53671">
        <ele>120.1</ele>
        <time>2024-11-07T11:33:16Z</time>
      </trkpt>
      <trkpt lat="48.38831" lon="2.53675">
        <ele>120.1</ele>
        <time>2024-11-07T11:33:39Z</time>
      </trkpt>
      <trkpt lat="48.38838" lon="2.53702">
        <ele>120.6</ele>
        <time>2024-11-07T11:34:57Z</time>
      </trkpt>
      <trkpt lat="48.38849" lon="2.53726">
        <ele>120</ele>
        <time>2024-11-07T11:35:06Z</time>
      </trkpt>
      <trkpt lat="48.38859" lon="2.53749">
        <ele>119.8</ele>
        <time>2024-11-07T11:35:13Z</time>
      </trkpt>
      <trkpt lat="48.38874" lon="2.53769">
        <ele>119.4</ele>
        <time>2024-11-07T11:35:20Z</time>
      </trkpt>
      <trkpt lat="48.38892" lon="2.53784">
        <ele>120.1</ele>
        <time>2024-11-07T11:35:27Z</time>
      </trkpt>
      <trkpt lat="48.38896" lon="2.53813">
        <ele>119.7</ele>
        <time>2024-11-07T11:35:33Z</time>
      </trkpt>
      <trkpt lat="48.38899" lon="2.53843">
        <ele>118.4</ele>
        <time>2024-11-07T11:35:39Z</time>
      </trkpt>
      <trkpt lat="48.38889" lon="2.53869">
        <ele>119</ele>
        <time>2024-11-07T11:35:46Z</time>
      </trkpt>
      <trkpt lat="48.38888" lon="2.53899">
        <ele>119</ele>
        <time>2024-11-07T11:35:53Z</time>
      </trkpt>
      <trkpt lat="48.38892" lon="2.53926">
        <ele>117.3</ele>
        <time>2024-11-07T11:36:05Z</time>
      </trkpt>
      <trkpt lat="48.38871" lon="2.53932">
        <ele>119</ele>
        <time>2024-11-07T11:36:15Z</time>
      </trkpt>
      <trkpt lat="48.38856" lon="2.53951">
        <ele>119.9</ele>
        <time>2024-11-07T11:36:21Z</time>
      </trkpt>
      <trkpt lat="48.38843" lon="2.53974">
        <ele>120.3</ele>
        <time>2024-11-07T11:36:27Z</time>
      </trkpt>
      <trkpt lat="48.38834" lon="2.54">
        <ele>120.9</ele>
        <time>2024-11-07T11:36:33Z</time>
      </trkpt>
      <trkpt lat="48.38826" lon="2.54029">
        <ele>120.3</ele>
        <time>2024-11-07T11:36:40Z</time>
      </trkpt>
      <trkpt lat="48.38819" lon="2.54056">
        <ele>120</ele>
        <time>2024-11-07T11:36:46Z</time>
      </trkpt>
      <trkpt lat="48.38814" lon="2.54085">
        <ele>120.6</ele>
        <time>2024-11-07T11:36:52Z</time>
      </trkpt>
      <trkpt lat="48.38811" lon="2.54112">
        <ele>120.2</ele>
        <time>2024-11-07T11:36:58Z</time>
      </trkpt>
      <trkpt lat="48.38808" lon="2.54144">
        <ele>119.8</ele>
        <time>2024-11-07T11:37:04Z</time>
      </trkpt>
      <trkpt lat="48.38805" lon="2.54172">
        <ele>119</ele>
        <time>2024-11-07T11:37:09Z</time>
      </trkpt>
      <trkpt lat="48.38794" lon="2.54195">
        <ele>118.6</ele>
        <time>2024-11-07T11:37:15Z</time>
      </trkpt>
      <trkpt lat="48.38773" lon="2.54197">
        <ele>117.8</ele>
        <time>2024-11-07T11:37:20Z</time>
      </trkpt>
      <trkpt lat="48.38764" lon="2.54223">
        <ele>116.5</ele>
        <time>2024-11-07T11:37:26Z</time>
      </trkpt>
      <trkpt lat="48.38764" lon="2.54255">
        <ele>115.9</ele>
        <time>2024-11-07T11:37:32Z</time>
      </trkpt>
      <trkpt lat="48.38754" lon="2.54283">
        <ele>116.8</ele>
        <time>2024-11-07T11:37:38Z</time>
      </trkpt>
      <trkpt lat="48.38736" lon="2.54303">
        <ele>117.9</ele>
        <time>2024-11-07T11:37:42Z</time>
      </trkpt>
      <trkpt lat="48.38717" lon="2.54323">
        <ele>118.5</ele>
        <time>2024-11-07T11:37:46Z</time>
      </trkpt>
      <trkpt lat="48.38698" lon="2.5434">
        <ele>118.1</ele>
        <time>2024-11-07T11:37:50Z</time>
      </trkpt>
      <trkpt lat="48.38687" lon="2.54364">
        <ele>117.7</ele>
        <time>2024-11-07T11:37:55Z</time>
      </trkpt>
      <trkpt lat="48.38671" lon="2.54381">
        <ele>117.1</ele>
        <time>2024-11-07T11:38:00Z</time>
      </trkpt>
      <trkpt lat="48.38668" lon="2.54351">
        <ele>117.1</ele>
        <time>2024-11-07T11:38:06Z</time>
      </trkpt>
      <trkpt lat="48.38672" lon="2.54321">
        <ele>117.2</ele>
        <time>2024-11-07T11:38:11Z</time>
      </trkpt>
      <trkpt lat="48.38674" lon="2.54294">
        <ele>117.1</ele>
        <time>2024-11-07T11:38:15Z</time>
      </trkpt>
      <trkpt lat="48.38676" lon="2.54265">
        <ele>116.7</ele>
        <time>2024-11-07T11:38:20Z</time>
      </trkpt>
      <trkpt lat="48.3868" lon="2.54235">
        <ele>116.2</ele>
        <time>2024-11-07T11:38:25Z</time>
      </trkpt>
      <trkpt lat="48.38685" lon="2.54208">
        <ele>116</ele>
        <time>2024-11-07T11:38:29Z</time>
      </trkpt>
      <trkpt lat="48.38688" lon="2.54181">
        <ele>115.5</ele>
        <time>2024-11-07T11:38:33Z</time>
      </trkpt>
      <trkpt lat="48.3869" lon="2.54152">
        <ele>115</ele>
        <time>2024-11-07T11:38:37Z</time>
      </trkpt>
      <trkpt lat="48.38693" lon="2.54119">
        <ele>115</ele>
        <time>2024-11-07T11:38:42Z</time>
      </trkpt>
      <trkpt lat="48.38697" lon="2.54087">
        <ele>114.9</ele>
        <time>2024-11-07T11:38:47Z</time>
      </trkpt>
      <trkpt lat="48.38701" lon="2.54056">
        <ele>114.8</ele>
        <time>2024-11-07T11:38:52Z</time>
      </trkpt>
      <trkpt lat="48.38703" lon="2.54028">
        <ele>114.7</ele>
        <time>2024-11-07T11:38:56Z</time>
      </trkpt>
      <trkpt lat="48.38705" lon="2.53997">
        <ele>114</ele>
        <time>2024-11-07T11:39:00Z</time>
      </trkpt>
      <trkpt lat="48.38707" lon="2.53962">
        <ele>113.6</ele>
        <time>2024-11-07T11:39:04Z</time>
      </trkpt>
      <trkpt lat="48.38708" lon="2.53934">
        <ele>112.4</ele>
        <time>2024-11-07T11:39:07Z</time>
      </trkpt>
      <trkpt lat="48.3871" lon="2.53907">
        <ele>110.7</ele>
        <time>2024-11-07T11:39:10Z</time>
      </trkpt>
      <trkpt lat="48.38714" lon="2.53872">
        <ele>107.7</ele>
        <time>2024-11-07T11:39:14Z</time>
      </trkpt>
      <trkpt lat="48.38718" lon="2.53841">
        <ele>104.3</ele>
        <time>2024-11-07T11:39:18Z</time>
      </trkpt>
      <trkpt lat="48.38706" lon="2.53813">
        <ele>102.5</ele>
        <time>2024-11-07T11:39:23Z</time>
      </trkpt>
      <trkpt lat="48.38695" lon="2.53791">
        <ele>100.9</ele>
        <time>2024-11-07T11:39:27Z</time>
      </trkpt>
      <trkpt lat="48.38676" lon="2.53781">
        <ele>102</ele>
        <time>2024-11-07T11:39:33Z</time>
      </trkpt>
      <trkpt lat="48.3866" lon="2.53799">
        <ele>105</ele>
        <time>2024-11-07T11:39:42Z</time>
      </trkpt>
      <trkpt lat="48.38648" lon="2.53824">
        <ele>106.1</ele>
        <time>2024-11-07T11:39:50Z</time>
      </trkpt>
      <trkpt lat="48.38639" lon="2.53851">
        <ele>107.3</ele>
        <time>2024-11-07T11:39:58Z</time>
      </trkpt>
      <trkpt lat="48.38631" lon="2.53876">
        <ele>108.4</ele>
        <time>2024-11-07T11:40:06Z</time>
      </trkpt>
      <trkpt lat="48.38625" lon="2.53903">
        <ele>109.3</ele>
        <time>2024-11-07T11:40:14Z</time>
      </trkpt>
      <trkpt lat="48.38625" lon="2.53931">
        <ele>110.5</ele>
        <time>2024-11-07T11:40:22Z</time>
      </trkpt>
      <trkpt lat="48.38617" lon="2.53958">
        <ele>110.6</ele>
        <time>2024-11-07T11:40:30Z</time>
      </trkpt>
      <trkpt lat="48.38607" lon="2.53981">
        <ele>110.7</ele>
        <time>2024-11-07T11:40:38Z</time>
      </trkpt>
      <trkpt lat="48.38599" lon="2.54005">
        <ele>111.5</ele>
        <time>2024-11-07T11:40:47Z</time>
      </trkpt>
      <trkpt lat="48.3859" lon="2.54031">
        <ele>112.1</ele>
        <time>2024-11-07T11:40:57Z</time>
      </trkpt>
      <trkpt lat="48.3858" lon="2.54058">
        <ele>113.1</ele>
        <time>2024-11-07T11:41:05Z</time>
      </trkpt>
      <trkpt lat="48.38567" lon="2.54079">
        <ele>113.6</ele>
        <time>2024-11-07T11:41:14Z</time>
      </trkpt>
      <trkpt lat="48.38555" lon="2.541">
        <ele>113.4</ele>
        <time>2024-11-07T11:41:21Z</time>
      </trkpt>
      <trkpt lat="48.38545" lon="2.54126">
        <ele>113.4</ele>
        <time>2024-11-07T11:41:28Z</time>
      </trkpt>
      <trkpt lat="48.38533" lon="2.5415">
        <ele>113.5</ele>
        <time>2024-11-07T11:41:35Z</time>
      </trkpt>
      <trkpt lat="48.38523" lon="2.54175">
        <ele>113.5</ele>
        <time>2024-11-07T11:41:43Z</time>
      </trkpt>
      <trkpt lat="48.38516" lon="2.542">
        <ele>114</ele>
        <time>2024-11-07T11:41:50Z</time>
      </trkpt>
      <trkpt lat="48.38516" lon="2.54231">
        <ele>114.4</ele>
        <time>2024-11-07T11:41:57Z</time>
      </trkpt>
      <trkpt lat="48.38519" lon="2.54259">
        <ele>114.3</ele>
        <time>2024-11-07T11:42:04Z</time>
      </trkpt>
      <trkpt lat="48.38517" lon="2.54288">
        <ele>114.4</ele>
        <time>2024-11-07T11:42:39Z</time>
      </trkpt>
      <trkpt lat="48.38517" lon="2.54317">
        <ele>114.4</ele>
        <time>2024-11-07T11:42:46Z</time>
      </trkpt>
      <trkpt lat="48.38515" lon="2.54347">
        <ele>114.5</ele>
        <time>2024-11-07T11:42:53Z</time>
      </trkpt>
      <trkpt lat="48.38516" lon="2.54379">
        <ele>114.4</ele>
        <time>2024-11-07T11:42:59Z</time>
      </trkpt>
      <trkpt lat="48.38517" lon="2.54408">
        <ele>114.4</ele>
        <time>2024-11-07T11:44:53Z</time>
      </trkpt>
      <trkpt lat="48.38514" lon="2.54435">
        <ele>114.5</ele>
        <time>2024-11-07T11:45:01Z</time>
      </trkpt>
      <trkpt lat="48.38508" lon="2.54464">
        <ele>114.9</ele>
        <time>2024-11-07T11:45:08Z</time>
      </trkpt>
      <trkpt lat="48.38505" lon="2.54493">
        <ele>115</ele>
        <time>2024-11-07T11:45:15Z</time>
      </trkpt>
      <trkpt lat="48.38502" lon="2.54521">
        <ele>115</ele>
        <time>2024-11-07T11:45:21Z</time>
      </trkpt>
      <trkpt lat="48.38493" lon="2.54545">
        <ele>115</ele>
        <time>2024-11-07T11:45:28Z</time>
      </trkpt>
      <trkpt lat="48.38482" lon="2.5457">
        <ele>115</ele>
        <time>2024-11-07T11:45:36Z</time>
      </trkpt>
      <trkpt lat="48.38481" lon="2.54598">
        <ele>115</ele>
        <time>2024-11-07T11:45:45Z</time>
      </trkpt>
      <trkpt lat="48.38485" lon="2.54625">
        <ele>115</ele>
        <time>2024-11-07T11:45:54Z</time>
      </trkpt>
      <trkpt lat="48.38472" lon="2.54648">
        <ele>115</ele>
        <time>2024-11-07T11:46:17Z</time>
      </trkpt>
      <trkpt lat="48.38463" lon="2.54672">
        <ele>114.6</ele>
        <time>2024-11-07T11:46:22Z</time>
      </trkpt>
      <trkpt lat="48.38446" lon="2.54688">
        <ele>114.7</ele>
        <time>2024-11-07T11:46:27Z</time>
      </trkpt>
      <trkpt lat="48.38428" lon="2.54705">
        <ele>114.6</ele>
        <time>2024-11-07T11:46:32Z</time>
      </trkpt>
      <trkpt lat="48.3841" lon="2.54717">
        <ele>114.6</ele>
        <time>2024-11-07T11:46:37Z</time>
      </trkpt>
      <trkpt lat="48.38392" lon="2.54725">
        <ele>114.2</ele>
        <time>2024-11-07T11:46:42Z</time>
      </trkpt>
      <trkpt lat="48.38377" lon="2.54744">
        <ele>114.4</ele>
        <time>2024-11-07T11:46:46Z</time>
      </trkpt>
      <trkpt lat="48.38364" lon="2.54764">
        <ele>114.1</ele>
        <time>2024-11-07T11:46:51Z</time>
      </trkpt>
      <trkpt lat="48.38348" lon="2.54777">
        <ele>112.6</ele>
        <time>2024-11-07T11:46:55Z</time>
      </trkpt>
      <trkpt lat="48.38331" lon="2.54801">
        <ele>110.9</ele>
        <time>2024-11-07T11:46:59Z</time>
      </trkpt>
      <trkpt lat="48.38314" lon="2.54821">
        <ele>109.7</ele>
        <time>2024-11-07T11:47:02Z</time>
      </trkpt>
      <trkpt lat="48.38305" lon="2.54855">
        <ele>109</ele>
        <time>2024-11-07T11:47:06Z</time>
      </trkpt>
      <trkpt lat="48.38302" lon="2.5489">
        <ele>109</ele>
        <time>2024-11-07T11:47:10Z</time>
      </trkpt>
      <trkpt lat="48.383" lon="2.54921">
        <ele>109</ele>
        <time>2024-11-07T11:47:13Z</time>
      </trkpt>
      <trkpt lat="48.38287" lon="2.5495">
        <ele>108.3</ele>
        <time>2024-11-07T11:47:16Z</time>
      </trkpt>
      <trkpt lat="48.38278" lon="2.54977">
        <ele>107.8</ele>
        <time>2024-11-07T11:47:19Z</time>
      </trkpt>
      <trkpt lat="48.38266" lon="2.54998">
        <ele>107.5</ele>
        <time>2024-11-07T11:47:22Z</time>
      </trkpt>
      <trkpt lat="48.38262" lon="2.55029">
        <ele>107.6</ele>
        <time>2024-11-07T11:47:26Z</time>
      </trkpt>
      <trkpt lat="48.38279" lon="2.55037">
        <ele>107</ele>
        <time>2024-11-07T11:47:36Z</time>
      </trkpt>
      <trkpt lat="48.38296" lon="2.55028">
        <ele>107.6</ele>
        <time>2024-11-07T11:47:46Z</time>
      </trkpt>
      <trkpt lat="48.38315" lon="2.55025">
        <ele>109.3</ele>
        <time>2024-11-07T11:47:58Z</time>
      </trkpt>
      <trkpt lat="48.38332" lon="2.55036">
        <ele>112.1</ele>
        <time>2024-11-07T11:48:12Z</time>
      </trkpt>
      <trkpt lat="48.38345" lon="2.55055">
        <ele>114.3</ele>
        <time>2024-11-07T11:48:25Z</time>
      </trkpt>
      <trkpt lat="48.38353" lon="2.5508">
        <ele>115.2</ele>
        <time>2024-11-07T11:48:38Z</time>
      </trkpt>
      <trkpt lat="48.38372" lon="2.5508">
        <ele>116</ele>
        <time>2024-11-07T11:48:48Z</time>
      </trkpt>
      <trkpt lat="48.38391" lon="2.55089">
        <ele>115.9</ele>
        <time>2024-11-07T11:48:57Z</time>
      </trkpt>
      <trkpt lat="48.38407" lon="2.551">
        <ele>115.3</ele>
        <time>2024-11-07T11:49:03Z</time>
      </trkpt>
      <trkpt lat="48.38428" lon="2.55111">
        <ele>114.6</ele>
        <time>2024-11-07T11:49:07Z</time>
      </trkpt>
      <trkpt lat="48.38447" lon="2.55124">
        <ele>114</ele>
        <time>2024-11-07T11:49:11Z</time>
      </trkpt>
      <trkpt lat="48.38464" lon="2.55136">
        <ele>114</ele>
        <time>2024-11-07T11:49:14Z</time>
      </trkpt>
      <trkpt lat="48.38483" lon="2.55146">
        <ele>113.6</ele>
        <time>2024-11-07T11:49:17Z</time>
      </trkpt>
      <trkpt lat="48.38504" lon="2.55156">
        <ele>113</ele>
        <time>2024-11-07T11:49:20Z</time>
      </trkpt>
      <trkpt lat="48.38516" lon="2.55179">
        <ele>113.3</ele>
        <time>2024-11-07T11:49:24Z</time>
      </trkpt>
      <trkpt lat="48.38518" lon="2.55209">
        <ele>113.3</ele>
        <time>2024-11-07T11:49:30Z</time>
      </trkpt>
      <trkpt lat="48.38519" lon="2.5524">
        <ele>112.8</ele>
        <time>2024-11-07T11:49:37Z</time>
      </trkpt>
      <trkpt lat="48.38517" lon="2.55271">
        <ele>112.3</ele>
        <time>2024-11-07T11:49:42Z</time>
      </trkpt>
      <trkpt lat="48.38514" lon="2.55299">
        <ele>111.7</ele>
        <time>2024-11-07T11:49:46Z</time>
      </trkpt>
      <trkpt lat="48.38511" lon="2.55332">
        <ele>110.7</ele>
        <time>2024-11-07T11:49:50Z</time>
      </trkpt>
      <trkpt lat="48.38508" lon="2.55359">
        <ele>109.9</ele>
        <time>2024-11-07T11:49:53Z</time>
      </trkpt>
      <trkpt lat="48.38504" lon="2.55386">
        <ele>108.6</ele>
        <time>2024-11-07T11:49:56Z</time>
      </trkpt>
      <trkpt lat="48.38501" lon="2.55413">
        <ele>107.3</ele>
        <time>2024-11-07T11:49:59Z</time>
      </trkpt>
      <trkpt lat="48.38499" lon="2.5544">
        <ele>106.2</ele>
        <time>2024-11-07T11:50:02Z</time>
      </trkpt>
      <trkpt lat="48.38495" lon="2.55475">
        <ele>104.9</ele>
        <time>2024-11-07T11:50:06Z</time>
      </trkpt>
      <trkpt lat="48.38487" lon="2.55508">
        <ele>103.9</ele>
        <time>2024-11-07T11:50:10Z</time>
      </trkpt>
      <trkpt lat="48.3848" lon="2.55542">
        <ele>103.1</ele>
        <time>2024-11-07T11:50:14Z</time>
      </trkpt>
      <trkpt lat="48.38472" lon="2.55574">
        <ele>103</ele>
        <time>2024-11-07T11:50:18Z</time>
      </trkpt>
      <trkpt lat="48.38465" lon="2.55604">
        <ele>103</ele>
        <time>2024-11-07T11:50:22Z</time>
      </trkpt>
      <trkpt lat="48.38458" lon="2.55634">
        <ele>103</ele>
        <time>2024-11-07T11:50:26Z</time>
      </trkpt>
      <trkpt lat="48.38452" lon="2.55667">
        <ele>103</ele>
        <time>2024-11-07T11:50:30Z</time>
      </trkpt>
      <trkpt lat="48.38446" lon="2.557">
        <ele>103</ele>
        <time>2024-11-07T11:50:34Z</time>
      </trkpt>
      <trkpt lat="48.38437" lon="2.55732">
        <ele>103.3</ele>
        <time>2024-11-07T11:50:38Z</time>
      </trkpt>
      <trkpt lat="48.38422" lon="2.55756">
        <ele>103.8</ele>
        <time>2024-11-07T11:50:42Z</time>
      </trkpt>
      <trkpt lat="48.38414" lon="2.55782">
        <ele>104.2</ele>
        <time>2024-11-07T11:50:46Z</time>
      </trkpt>
      <trkpt lat="48.38418" lon="2.55816">
        <ele>104</ele>
        <time>2024-11-07T11:50:51Z</time>
      </trkpt>
      <trkpt lat="48.38427" lon="2.5584">
        <ele>104.1</ele>
        <time>2024-11-07T11:50:55Z</time>
      </trkpt>
      <trkpt lat="48.38425" lon="2.5587">
        <ele>104.4</ele>
        <time>2024-11-07T11:51:00Z</time>
      </trkpt>
      <trkpt lat="48.38412" lon="2.55897">
        <ele>104.1</ele>
        <time>2024-11-07T11:51:05Z</time>
      </trkpt>
      <trkpt lat="48.38406" lon="2.55927">
        <ele>104</ele>
        <time>2024-11-07T11:51:10Z</time>
      </trkpt>
      <trkpt lat="48.38401" lon="2.55954">
        <ele>104.2</ele>
        <time>2024-11-07T11:51:15Z</time>
      </trkpt>
      <trkpt lat="48.38399" lon="2.55983">
        <ele>104.5</ele>
        <time>2024-11-07T11:51:21Z</time>
      </trkpt>
      <trkpt lat="48.38397" lon="2.56014">
        <ele>105.1</ele>
        <time>2024-11-07T11:51:28Z</time>
      </trkpt>
      <trkpt lat="48.38394" lon="2.56042">
        <ele>105.5</ele>
        <time>2024-11-07T11:51:35Z</time>
      </trkpt>
      <trkpt lat="48.38389" lon="2.5607">
        <ele>105.5</ele>
        <time>2024-11-07T11:51:43Z</time>
      </trkpt>
      <trkpt lat="48.38384" lon="2.56099">
        <ele>107.3</ele>
        <time>2024-11-07T11:51:51Z</time>
      </trkpt>
      <trkpt lat="48.3837" lon="2.56118">
        <ele>108.1</ele>
        <time>2024-11-07T11:51:59Z</time>
      </trkpt>
      <trkpt lat="48.38356" lon="2.56138">
        <ele>108.8</ele>
        <time>2024-11-07T11:52:06Z</time>
      </trkpt>
      <trkpt lat="48.3834" lon="2.56156">
        <ele>110.7</ele>
        <time>2024-11-07T11:52:13Z</time>
      </trkpt>
      <trkpt lat="48.38323" lon="2.56165">
        <ele>111.8</ele>
        <time>2024-11-07T11:52:21Z</time>
      </trkpt>
      <trkpt lat="48.38304" lon="2.56176">
        <ele>113.2</ele>
        <time>2024-11-07T11:52:29Z</time>
      </trkpt>
      <trkpt lat="48.38296" lon="2.56202">
        <ele>113.8</ele>
        <time>2024-11-07T11:52:36Z</time>
      </trkpt>
      <trkpt lat="48.3829" lon="2.56228">
        <ele>114</ele>
        <time>2024-11-07T11:52:43Z</time>
      </trkpt>
      <trkpt lat="48.38279" lon="2.56253">
        <ele>114</ele>
        <time>2024-11-07T11:52:51Z</time>
      </trkpt>
      <trkpt lat="48.3826" lon="2.56265">
        <ele>114.6</ele>
        <time>2024-11-07T11:52:59Z</time>
      </trkpt>
      <trkpt lat="48.38242" lon="2.56273">
        <ele>115.3</ele>
        <time>2024-11-07T11:53:06Z</time>
      </trkpt>
      <trkpt lat="48.38226" lon="2.56287">
        <ele>115.6</ele>
        <time>2024-11-07T11:53:14Z</time>
      </trkpt>
      <trkpt lat="48.38215" lon="2.56308">
        <ele>114.7</ele>
        <time>2024-11-07T11:53:24Z</time>
      </trkpt>
      <trkpt lat="48.38207" lon="2.56334">
        <ele>114.5</ele>
        <time>2024-11-07T11:53:32Z</time>
      </trkpt>
      <trkpt lat="48.38198" lon="2.5636">
        <ele>115</ele>
        <time>2024-11-07T11:53:40Z</time>
      </trkpt>
      <trkpt lat="48.3819" lon="2.56385">
        <ele>114.8</ele>
        <time>2024-11-07T11:53:48Z</time>
      </trkpt>
      <trkpt lat="48.38183" lon="2.56411">
        <ele>114.6</ele>
        <time>2024-11-07T11:53:55Z</time>
      </trkpt>
      <trkpt lat="48.38173" lon="2.56434">
        <ele>114.7</ele>
        <time>2024-11-07T11:54:01Z</time>
      </trkpt>
      <trkpt lat="48.38157" lon="2.56453">
        <ele>114.1</ele>
        <time>2024-11-07T11:54:06Z</time>
      </trkpt>
      <trkpt lat="48.38154" lon="2.56481">
        <ele>113.9</ele>
        <time>2024-11-07T11:54:11Z</time>
      </trkpt>
      <trkpt lat="48.38142" lon="2.5646">
        <ele>112.8</ele>
        <time>2024-11-07T11:55:27Z</time>
      </trkpt>
      <trkpt lat="48.3814" lon="2.56429">
        <ele>111.5</ele>
        <time>2024-11-07T11:55:52Z</time>
      </trkpt>
      <trkpt lat="48.38147" lon="2.56396">
        <ele>111.3</ele>
        <time>2024-11-07T11:55:57Z</time>
      </trkpt>
      <trkpt lat="48.38153" lon="2.56366">
        <ele>110.4</ele>
        <time>2024-11-07T11:56:01Z</time>
      </trkpt>
      <trkpt lat="48.3816" lon="2.56334">
        <ele>109</ele>
        <time>2024-11-07T11:56:05Z</time>
      </trkpt>
      <trkpt lat="48.38165" lon="2.56305">
        <ele>107.8</ele>
        <time>2024-11-07T11:56:08Z</time>
      </trkpt>
      <trkpt lat="48.38165" lon="2.56274">
        <ele>106.7</ele>
        <time>2024-11-07T11:56:11Z</time>
      </trkpt>
      <trkpt lat="48.38162" lon="2.56244">
        <ele>106.3</ele>
        <time>2024-11-07T11:56:14Z</time>
      </trkpt>
      <trkpt lat="48.38157" lon="2.56215">
        <ele>105.8</ele>
        <time>2024-11-07T11:56:17Z</time>
      </trkpt>
      <trkpt lat="48.38152" lon="2.56187">
        <ele>105.3</ele>
        <time>2024-11-07T11:56:20Z</time>
      </trkpt>
      <trkpt lat="48.38147" lon="2.56157">
        <ele>104.5</ele>
        <time>2024-11-07T11:56:24Z</time>
      </trkpt>
      <trkpt lat="48.38149" lon="2.56129">
        <ele>104.6</ele>
        <time>2024-11-07T11:56:28Z</time>
      </trkpt>
      <trkpt lat="48.38146" lon="2.56102">
        <ele>104</ele>
        <time>2024-11-07T11:56:32Z</time>
      </trkpt>
      <trkpt lat="48.38143" lon="2.56073">
        <ele>104.3</ele>
        <time>2024-11-07T11:56:36Z</time>
      </trkpt>
      <trkpt lat="48.38127" lon="2.5605">
        <ele>105</ele>
        <time>2024-11-07T11:56:41Z</time>
      </trkpt>
      <trkpt lat="48.38108" lon="2.56039">
        <ele>104.4</ele>
        <time>2024-11-07T11:56:45Z</time>
      </trkpt>
      <trkpt lat="48.38094" lon="2.56019">
        <ele>104</ele>
        <time>2024-11-07T11:56:50Z</time>
      </trkpt>
      <trkpt lat="48.38074" lon="2.56013">
        <ele>102.8</ele>
        <time>2024-11-07T11:56:56Z</time>
      </trkpt>
      <trkpt lat="48.38056" lon="2.56017">
        <ele>102.6</ele>
        <time>2024-11-07T11:57:01Z</time>
      </trkpt>
      <trkpt lat="48.38046" lon="2.55992">
        <ele>102.9</ele>
        <time>2024-11-07T11:57:08Z</time>
      </trkpt>
      <trkpt lat="48.38042" lon="2.55963">
        <ele>102.3</ele>
        <time>2024-11-07T11:57:14Z</time>
      </trkpt>
      <trkpt lat="48.38039" lon="2.55935">
        <ele>102</ele>
        <time>2024-11-07T11:57:19Z</time>
      </trkpt>
      <trkpt lat="48.38036" lon="2.55904">
        <ele>102</ele>
        <time>2024-11-07T11:57:25Z</time>
      </trkpt>
      <trkpt lat="48.38035" lon="2.55877">
        <ele>102</ele>
        <time>2024-11-07T11:57:30Z</time>
      </trkpt>
      <trkpt lat="48.38032" lon="2.55846">
        <ele>102</ele>
        <time>2024-11-07T11:57:36Z</time>
      </trkpt>
      <trkpt lat="48.38034" lon="2.55817">
        <ele>102</ele>
        <time>2024-11-07T11:57:41Z</time>
      </trkpt>
      <trkpt lat="48.38034" lon="2.55789">
        <ele>102</ele>
        <time>2024-11-07T11:57:46Z</time>
      </trkpt>
      <trkpt lat="48.38035" lon="2.55758">
        <ele>102</ele>
        <time>2024-11-07T11:57:52Z</time>
      </trkpt>
      <trkpt lat="48.38033" lon="2.55729">
        <ele>102</ele>
        <time>2024-11-07T11:58:23Z</time>
      </trkpt>
      <trkpt lat="48.38021" lon="2.55707">
        <ele>102</ele>
        <time>2024-11-07T11:58:28Z</time>
      </trkpt>
      <trkpt lat="48.38016" lon="2.5568">
        <ele>102</ele>
        <time>2024-11-07T11:58:33Z</time>
      </trkpt>
      <trkpt lat="48.38018" lon="2.55653">
        <ele>102</ele>
        <time>2024-11-07T11:58:38Z</time>
      </trkpt>
      <trkpt lat="48.38022" lon="2.55624">
        <ele>102</ele>
        <time>2024-11-07T11:58:43Z</time>
      </trkpt>
      <trkpt lat="48.38025" lon="2.55595">
        <ele>102</ele>
        <time>2024-11-07T11:58:48Z</time>
      </trkpt>
      <trkpt lat="48.38021" lon="2.55567">
        <ele>102</ele>
        <time>2024-11-07T11:58:53Z</time>
      </trkpt>
      <trkpt lat="48.38014" lon="2.55538">
        <ele>102</ele>
        <time>2024-11-07T11:58:58Z</time>
      </trkpt>
      <trkpt lat="48.38015" lon="2.55511">
        <ele>102.3</ele>
        <time>2024-11-07T11:59:02Z</time>
      </trkpt>
      <trkpt lat="48.38022" lon="2.55482">
        <ele>102.2</ele>
        <time>2024-11-07T11:59:06Z</time>
      </trkpt>
      <trkpt lat="48.38029" lon="2.55453">
        <ele>102</ele>
        <time>2024-11-07T11:59:10Z</time>
      </trkpt>
      <trkpt lat="48.38032" lon="2.55424">
        <ele>102</ele>
        <time>2024-11-07T11:59:14Z</time>
      </trkpt>
      <trkpt lat="48.3803" lon="2.55394">
        <ele>102</ele>
        <time>2024-11-07T11:59:18Z</time>
      </trkpt>
      <trkpt lat="48.38031" lon="2.55364">
        <ele>102.1</ele>
        <time>2024-11-07T11:59:22Z</time>
      </trkpt>
      <trkpt lat="48.38037" lon="2.55336">
        <ele>102.3</ele>
        <time>2024-11-07T11:59:26Z</time>
      </trkpt>
      <trkpt lat="48.38045" lon="2.55309">
        <ele>102.6</ele>
        <time>2024-11-07T11:59:30Z</time>
      </trkpt>
      <trkpt lat="48.38051" lon="2.55277">
        <ele>102</ele>
        <time>2024-11-07T11:59:35Z</time>
      </trkpt>
      <trkpt lat="48.38052" lon="2.55248">
        <ele>102</ele>
        <time>2024-11-07T11:59:40Z</time>
      </trkpt>
      <trkpt lat="48.38055" lon="2.55215">
        <ele>102</ele>
        <time>2024-11-07T11:59:45Z</time>
      </trkpt>
      <trkpt lat="48.3806" lon="2.55186">
        <ele>102.3</ele>
        <time>2024-11-07T11:59:49Z</time>
      </trkpt>
      <trkpt lat="48.38064" lon="2.55159">
        <ele>102.2</ele>
        <time>2024-11-07T11:59:53Z</time>
      </trkpt>
      <trkpt lat="48.38069" lon="2.55133">
        <ele>102.1</ele>
        <time>2024-11-07T11:59:57Z</time>
      </trkpt>
      <trkpt lat="48.38073" lon="2.55106">
        <ele>102.4</ele>
        <time>2024-11-07T12:00:01Z</time>
      </trkpt>
      <trkpt lat="48.38075" lon="2.55073">
        <ele>102.3</ele>
        <time>2024-11-07T12:00:06Z</time>
      </trkpt>
      <trkpt lat="48.38081" lon="2.55044">
        <ele>102.1</ele>
        <time>2024-11-07T12:00:11Z</time>
      </trkpt>
      <trkpt lat="48.38084" lon="2.55015">
        <ele>102</ele>
        <time>2024-11-07T12:00:16Z</time>
      </trkpt>
      <trkpt lat="48.38088" lon="2.54985">
        <ele>102.2</ele>
        <time>2024-11-07T12:00:21Z</time>
      </trkpt>
      <trkpt lat="48.38081" lon="2.54957">
        <ele>102</ele>
        <time>2024-11-07T12:00:27Z</time>
      </trkpt>
      <trkpt lat="48.38068" lon="2.54933">
        <ele>102</ele>
        <time>2024-11-07T12:00:34Z</time>
      </trkpt>
      <trkpt lat="48.38062" lon="2.54905">
        <ele>102.4</ele>
        <time>2024-11-07T12:00:41Z</time>
      </trkpt>
      <trkpt lat="48.38056" lon="2.54877">
        <ele>103.4</ele>
        <time>2024-11-07T12:00:48Z</time>
      </trkpt>
      <trkpt lat="48.38046" lon="2.54851">
        <ele>105.2</ele>
        <time>2024-11-07T12:00:56Z</time>
      </trkpt>
      <trkpt lat="48.3804" lon="2.54822">
        <ele>105.4</ele>
        <time>2024-11-07T12:01:04Z</time>
      </trkpt>
      <trkpt lat="48.38036" lon="2.54795">
        <ele>104.7</ele>
        <time>2024-11-07T12:01:09Z</time>
      </trkpt>
      <trkpt lat="48.38017" lon="2.54787">
        <ele>103.9</ele>
        <time>2024-11-07T12:01:14Z</time>
      </trkpt>
      <trkpt lat="48.38004" lon="2.54768">
        <ele>102</ele>
        <time>2024-11-07T12:01:21Z</time>
      </trkpt>
      <trkpt lat="48.38" lon="2.54737">
        <ele>100</ele>
        <time>2024-11-07T12:01:25Z</time>
      </trkpt>
      <trkpt lat="48.38004" lon="2.54701">
        <ele>100.3</ele>
        <time>2024-11-07T12:01:29Z</time>
      </trkpt>
      <trkpt lat="48.38007" lon="2.54666">
        <ele>100.3</ele>
        <time>2024-11-07T12:01:33Z</time>
      </trkpt>
      <trkpt lat="48.38014" lon="2.54632">
        <ele>99.6</ele>
        <time>2024-11-07T12:01:37Z</time>
      </trkpt>
      <trkpt lat="48.38019" lon="2.54605">
        <ele>98</ele>
        <time>2024-11-07T12:01:40Z</time>
      </trkpt>
      <trkpt lat="48.38021" lon="2.54571">
        <ele>95.2</ele>
        <time>2024-11-07T12:01:44Z</time>
      </trkpt>
      <trkpt lat="48.38024" lon="2.54538">
        <ele>91.3</ele>
        <time>2024-11-07T12:01:48Z</time>
      </trkpt>
      <trkpt lat="48.38026" lon="2.54507">
        <ele>87.9</ele>
        <time>2024-11-07T12:01:52Z</time>
      </trkpt>
      <trkpt lat="48.38024" lon="2.54478">
        <ele>84.8</ele>
        <time>2024-11-07T12:01:55Z</time>
      </trkpt>
      <trkpt lat="48.38019" lon="2.54445">
        <ele>82.1</ele>
        <time>2024-11-07T12:01:59Z</time>
      </trkpt>
      <trkpt lat="48.38006" lon="2.54418">
        <ele>80.1</ele>
        <time>2024-11-07T12:02:03Z</time>
      </trkpt>
      <trkpt lat="48.37994" lon="2.54393">
        <ele>78.3</ele>
        <time>2024-11-07T12:02:07Z</time>
      </trkpt>
      <trkpt lat="48.37977" lon="2.5438">
        <ele>77.7</ele>
        <time>2024-11-07T12:02:45Z</time>
      </trkpt>
      <trkpt lat="48.37959" lon="2.54376">
        <ele>77.8</ele>
        <time>2024-11-07T12:02:51Z</time>
      </trkpt>
      <trkpt lat="48.3794" lon="2.54362">
        <ele>77.3</ele>
        <time>2024-11-07T12:02:57Z</time>
      </trkpt>
      <trkpt lat="48.37921" lon="2.54347">
        <ele>76.9</ele>
        <time>2024-11-07T12:03:02Z</time>
      </trkpt>
      <trkpt lat="48.37903" lon="2.54351">
        <ele>77.3</ele>
        <time>2024-11-07T12:03:16Z</time>
      </trkpt>
      <trkpt lat="48.37884" lon="2.54354">
        <ele>77.5</ele>
        <time>2024-11-07T12:03:23Z</time>
      </trkpt>
      <trkpt lat="48.37864" lon="2.5436">
        <ele>77.9</ele>
        <time>2024-11-07T12:03:30Z</time>
      </trkpt>
      <trkpt lat="48.37847" lon="2.54348">
        <ele>76.8</ele>
        <time>2024-11-07T12:03:35Z</time>
      </trkpt>
      <trkpt lat="48.37826" lon="2.54342">
        <ele>76.3</ele>
        <time>2024-11-07T12:03:41Z</time>
      </trkpt>
      <trkpt lat="48.37808" lon="2.54347">
        <ele>76.5</ele>
        <time>2024-11-07T12:03:46Z</time>
      </trkpt>
      <trkpt lat="48.3779" lon="2.5436">
        <ele>76.4</ele>
        <time>2024-11-07T12:03:51Z</time>
      </trkpt>
      <trkpt lat="48.37773" lon="2.54375">
        <ele>76.4</ele>
        <time>2024-11-07T12:03:56Z</time>
      </trkpt>
      <trkpt lat="48.37757" lon="2.5439">
        <ele>77.1</ele>
        <time>2024-11-07T12:04:01Z</time>
      </trkpt>
      <trkpt lat="48.37738" lon="2.54405">
        <ele>77.7</ele>
        <time>2024-11-07T12:04:07Z</time>
      </trkpt>
      <trkpt lat="48.37723" lon="2.54424">
        <ele>78.6</ele>
        <time>2024-11-07T12:04:13Z</time>
      </trkpt>
      <trkpt lat="48.37707" lon="2.54444">
        <ele>80</ele>
        <time>2024-11-07T12:04:20Z</time>
      </trkpt>
      <trkpt lat="48.37693" lon="2.54466">
        <ele>80.9</ele>
        <time>2024-11-07T12:04:27Z</time>
      </trkpt>
      <trkpt lat="48.37683" lon="2.54492">
        <ele>83.8</ele>
        <time>2024-11-07T12:04:37Z</time>
      </trkpt>
      <trkpt lat="48.3768" lon="2.54519">
        <ele>86.6</ele>
        <time>2024-11-07T12:04:47Z</time>
      </trkpt>
      <trkpt lat="48.37678" lon="2.54547">
        <ele>89.2</ele>
        <time>2024-11-07T12:04:58Z</time>
      </trkpt>
      <trkpt lat="48.37677" lon="2.54576">
        <ele>91.4</ele>
        <time>2024-11-07T12:05:09Z</time>
      </trkpt>
      <trkpt lat="48.37674" lon="2.54605">
        <ele>92.6</ele>
        <time>2024-11-07T12:05:20Z</time>
      </trkpt>
      <trkpt lat="48.37667" lon="2.54632">
        <ele>92.8</ele>
        <time>2024-11-07T12:05:31Z</time>
      </trkpt>
      <trkpt lat="48.37685" lon="2.54635">
        <ele>95.9</ele>
        <time>2024-11-07T12:07:07Z</time>
      </trkpt>
      <trkpt lat="48.37667" lon="2.54646">
        <ele>93.4</ele>
        <time>2024-11-07T12:42:45Z</time>
      </trkpt>
      <trkpt lat="48.37661" lon="2.54673">
        <ele>94.7</ele>
        <time>2024-11-07T12:42:58Z</time>
      </trkpt>
      <trkpt lat="48.37651" lon="2.54696">
        <ele>96.8</ele>
        <time>2024-11-07T12:43:16Z</time>
      </trkpt>
      <trkpt lat="48.37641" lon="2.54719">
        <ele>99.5</ele>
        <time>2024-11-07T12:43:36Z</time>
      </trkpt>
      <trkpt lat="48.37626" lon="2.54703">
        <ele>100.5</ele>
        <time>2024-11-07T12:44:12Z</time>
      </trkpt>
      <trkpt lat="48.3762" lon="2.54675">
        <ele>100.2</ele>
        <time>2024-11-07T12:44:23Z</time>
      </trkpt>
      <trkpt lat="48.37619" lon="2.54647">
        <ele>100.7</ele>
        <time>2024-11-07T12:44:32Z</time>
      </trkpt>
      <trkpt lat="48.37621" lon="2.54675">
        <ele>100.1</ele>
        <time>2024-11-07T12:44:52Z</time>
      </trkpt>
      <trkpt lat="48.37605" lon="2.54689">
        <ele>101.8</ele>
        <time>2024-11-07T12:45:04Z</time>
      </trkpt>
      <trkpt lat="48.3759" lon="2.54673">
        <ele>101.2</ele>
        <time>2024-11-07T12:45:10Z</time>
      </trkpt>
      <trkpt lat="48.37574" lon="2.5466">
        <ele>98.9</ele>
        <time>2024-11-07T12:45:20Z</time>
      </trkpt>
      <trkpt lat="48.37554" lon="2.54658">
        <ele>93.9</ele>
        <time>2024-11-07T12:45:26Z</time>
      </trkpt>
      <trkpt lat="48.37538" lon="2.54674">
        <ele>89</ele>
        <time>2024-11-07T12:45:32Z</time>
      </trkpt>
      <trkpt lat="48.37519" lon="2.54672">
        <ele>84.7</ele>
        <time>2024-11-07T12:45:36Z</time>
      </trkpt>
      <trkpt lat="48.375" lon="2.54672">
        <ele>82</ele>
        <time>2024-11-07T12:45:40Z</time>
      </trkpt>
      <trkpt lat="48.37483" lon="2.54685">
        <ele>81.2</ele>
        <time>2024-11-07T12:45:46Z</time>
      </trkpt>
      <trkpt lat="48.37488" lon="2.54712">
        <ele>81.8</ele>
        <time>2024-11-07T12:45:52Z</time>
      </trkpt>
      <trkpt lat="48.37491" lon="2.54741">
        <ele>82</ele>
        <time>2024-11-07T12:45:59Z</time>
      </trkpt>
      <trkpt lat="48.37491" lon="2.54769">
        <ele>82.7</ele>
        <time>2024-11-07T12:46:06Z</time>
      </trkpt>
      <trkpt lat="48.37495" lon="2.54796">
        <ele>83</ele>
        <time>2024-11-07T12:46:13Z</time>
      </trkpt>
      <trkpt lat="48.37498" lon="2.54823">
        <ele>83</ele>
        <time>2024-11-07T12:46:20Z</time>
      </trkpt>
      <trkpt lat="48.37501" lon="2.5485">
        <ele>83.1</ele>
        <time>2024-11-07T12:46:27Z</time>
      </trkpt>
      <trkpt lat="48.37501" lon="2.54879">
        <ele>83.1</ele>
        <time>2024-11-07T12:46:35Z</time>
      </trkpt>
      <trkpt lat="48.37496" lon="2.54907">
        <ele>83.9</ele>
        <time>2024-11-07T12:46:47Z</time>
      </trkpt>
      <trkpt lat="48.37493" lon="2.54935">
        <ele>84.5</ele>
        <time>2024-11-07T12:46:55Z</time>
      </trkpt>
      <trkpt lat="48.37493" lon="2.54966">
        <ele>85.1</ele>
        <time>2024-11-07T12:47:03Z</time>
      </trkpt>
      <trkpt lat="48.37491" lon="2.54994">
        <ele>85.3</ele>
        <time>2024-11-07T12:47:11Z</time>
      </trkpt>
      <trkpt lat="48.37487" lon="2.55023">
        <ele>85.9</ele>
        <time>2024-11-07T12:47:21Z</time>
      </trkpt>
      <trkpt lat="48.37484" lon="2.55053">
        <ele>86.9</ele>
        <time>2024-11-07T12:47:29Z</time>
      </trkpt>
      <trkpt lat="48.37489" lon="2.55082">
        <ele>88.5</ele>
        <time>2024-11-07T12:47:36Z</time>
      </trkpt>
      <trkpt lat="48.37487" lon="2.55109">
        <ele>89</ele>
        <time>2024-11-07T12:47:43Z</time>
      </trkpt>
      <trkpt lat="48.37488" lon="2.55139">
        <ele>90.2</ele>
        <time>2024-11-07T12:47:50Z</time>
      </trkpt>
      <trkpt lat="48.37488" lon="2.55169">
        <ele>90.1</ele>
        <time>2024-11-07T12:47:57Z</time>
      </trkpt>
      <trkpt lat="48.37494" lon="2.55199">
        <ele>90.1</ele>
        <time>2024-11-07T12:48:04Z</time>
      </trkpt>
      <trkpt lat="48.37504" lon="2.55223">
        <ele>90.2</ele>
        <time>2024-11-07T12:48:12Z</time>
      </trkpt>
      <trkpt lat="48.37523" lon="2.55224">
        <ele>90.8</ele>
        <time>2024-11-07T12:48:20Z</time>
      </trkpt>
      <trkpt lat="48.37537" lon="2.55242">
        <ele>92</ele>
        <time>2024-11-07T12:48:28Z</time>
      </trkpt>
      <trkpt lat="48.37548" lon="2.55266">
        <ele>91.7</ele>
        <time>2024-11-07T12:48:35Z</time>
      </trkpt>
      <trkpt lat="48.3756" lon="2.5529">
        <ele>91.1</ele>
        <time>2024-11-07T12:48:42Z</time>
      </trkpt>
      <trkpt lat="48.37564" lon="2.5532">
        <ele>90.3</ele>
        <time>2024-11-07T12:48:50Z</time>
      </trkpt>
      <trkpt lat="48.37566" lon="2.55347">
        <ele>90</ele>
        <time>2024-11-07T12:48:57Z</time>
      </trkpt>
      <trkpt lat="48.37566" lon="2.55375">
        <ele>90.3</ele>
        <time>2024-11-07T12:49:04Z</time>
      </trkpt>
      <trkpt lat="48.37565" lon="2.55405">
        <ele>91.2</ele>
        <time>2024-11-07T12:49:12Z</time>
      </trkpt>
      <trkpt lat="48.37563" lon="2.55433">
        <ele>91.7</ele>
        <time>2024-11-07T12:49:19Z</time>
      </trkpt>
      <trkpt lat="48.37566" lon="2.55461">
        <ele>92.2</ele>
        <time>2024-11-07T12:49:26Z</time>
      </trkpt>
      <trkpt lat="48.37568" lon="2.55491">
        <ele>92.9</ele>
        <time>2024-11-07T12:49:34Z</time>
      </trkpt>
      <trkpt lat="48.3756" lon="2.55518">
        <ele>93</ele>
        <time>2024-11-07T12:49:41Z</time>
      </trkpt>
      <trkpt lat="48.37553" lon="2.55546">
        <ele>93.1</ele>
        <time>2024-11-07T12:49:49Z</time>
      </trkpt>
      <trkpt lat="48.3755" lon="2.55573">
        <ele>93.7</ele>
        <time>2024-11-07T12:49:57Z</time>
      </trkpt>
      <trkpt lat="48.37542" lon="2.556">
        <ele>94</ele>
        <time>2024-11-07T12:50:06Z</time>
      </trkpt>
      <trkpt lat="48.37541" lon="2.5563">
        <ele>94.3</ele>
        <time>2024-11-07T12:50:16Z</time>
      </trkpt>
      <trkpt lat="48.37542" lon="2.55658">
        <ele>95.5</ele>
        <time>2024-11-07T12:50:25Z</time>
      </trkpt>
      <trkpt lat="48.37541" lon="2.55685">
        <ele>96.7</ele>
        <time>2024-11-07T12:50:34Z</time>
      </trkpt>
      <trkpt lat="48.37538" lon="2.55714">
        <ele>98.6</ele>
        <time>2024-11-07T12:50:45Z</time>
      </trkpt>
      <trkpt lat="48.37535" lon="2.55741">
        <ele>100.5</ele>
        <time>2024-11-07T12:50:55Z</time>
      </trkpt>
      <trkpt lat="48.37534" lon="2.55769">
        <ele>102</ele>
        <time>2024-11-07T12:51:07Z</time>
      </trkpt>
      <trkpt lat="48.37523" lon="2.55791">
        <ele>103.4</ele>
        <time>2024-11-07T12:51:19Z</time>
      </trkpt>
      <trkpt lat="48.37516" lon="2.55818">
        <ele>105.5</ele>
        <time>2024-11-07T12:51:32Z</time>
      </trkpt>
      <trkpt lat="48.3751" lon="2.55845">
        <ele>107.1</ele>
        <time>2024-11-07T12:51:44Z</time>
      </trkpt>
      <trkpt lat="48.37502" lon="2.5587">
        <ele>107.8</ele>
        <time>2024-11-07T12:51:57Z</time>
      </trkpt>
      <trkpt lat="48.37485" lon="2.55884">
        <ele>110.6</ele>
        <time>2024-11-07T12:52:15Z</time>
      </trkpt>
      <trkpt lat="48.37467" lon="2.55892">
        <ele>113</ele>
        <time>2024-11-07T12:52:33Z</time>
      </trkpt>
      <trkpt lat="48.37449" lon="2.55893">
        <ele>116.2</ele>
        <time>2024-11-07T12:52:54Z</time>
      </trkpt>
      <trkpt lat="48.37431" lon="2.55896">
        <ele>118</ele>
        <time>2024-11-07T12:53:09Z</time>
      </trkpt>
      <trkpt lat="48.37413" lon="2.55897">
        <ele>119</ele>
        <time>2024-11-07T12:53:19Z</time>
      </trkpt>
      <trkpt lat="48.37395" lon="2.55886">
        <ele>119</ele>
        <time>2024-11-07T12:53:30Z</time>
      </trkpt>
      <trkpt lat="48.37377" lon="2.55891">
        <ele>119.4</ele>
        <time>2024-11-07T12:53:40Z</time>
      </trkpt>
      <trkpt lat="48.37358" lon="2.55885">
        <ele>120</ele>
        <time>2024-11-07T12:53:47Z</time>
      </trkpt>
      <trkpt lat="48.37339" lon="2.55884">
        <ele>120</ele>
        <time>2024-11-07T12:53:56Z</time>
      </trkpt>
      <trkpt lat="48.37321" lon="2.55889">
        <ele>119.5</ele>
        <time>2024-11-07T12:54:04Z</time>
      </trkpt>
      <trkpt lat="48.37302" lon="2.55884">
        <ele>118.8</ele>
        <time>2024-11-07T12:54:10Z</time>
      </trkpt>
      <trkpt lat="48.37281" lon="2.55883">
        <ele>117.3</ele>
        <time>2024-11-07T12:54:16Z</time>
      </trkpt>
      <trkpt lat="48.37263" lon="2.5589">
        <ele>117</ele>
        <time>2024-11-07T12:54:21Z</time>
      </trkpt>
      <trkpt lat="48.37248" lon="2.55908">
        <ele>117</ele>
        <time>2024-11-07T12:54:28Z</time>
      </trkpt>
      <trkpt lat="48.37232" lon="2.55928">
        <ele>117</ele>
        <time>2024-11-07T12:54:36Z</time>
      </trkpt>
      <trkpt lat="48.37216" lon="2.55945">
        <ele>117</ele>
        <time>2024-11-07T12:54:42Z</time>
      </trkpt>
      <trkpt lat="48.372" lon="2.55967">
        <ele>117</ele>
        <time>2024-11-07T12:54:48Z</time>
      </trkpt>
      <trkpt lat="48.37187" lon="2.55989">
        <ele>117</ele>
        <time>2024-11-07T12:54:54Z</time>
      </trkpt>
      <trkpt lat="48.37178" lon="2.56015">
        <ele>117</ele>
        <time>2024-11-07T12:55:00Z</time>
      </trkpt>
      <trkpt lat="48.37165" lon="2.56038">
        <ele>117.1</ele>
        <time>2024-11-07T12:55:10Z</time>
      </trkpt>
      <trkpt lat="48.37151" lon="2.56054">
        <ele>117.6</ele>
        <time>2024-11-07T12:57:20Z</time>
      </trkpt>
      <trkpt lat="48.37132" lon="2.56059">
        <ele>118.4</ele>
        <time>2024-11-07T12:57:28Z</time>
      </trkpt>
      <trkpt lat="48.37113" lon="2.56073">
        <ele>119</ele>
        <time>2024-11-07T12:57:35Z</time>
      </trkpt>
      <trkpt lat="48.37097" lon="2.56088">
        <ele>119</ele>
        <time>2024-11-07T12:57:41Z</time>
      </trkpt>
      <trkpt lat="48.37084" lon="2.56108">
        <ele>119</ele>
        <time>2024-11-07T12:57:47Z</time>
      </trkpt>
      <trkpt lat="48.37072" lon="2.56129">
        <ele>119</ele>
        <time>2024-11-07T12:57:53Z</time>
      </trkpt>
      <trkpt lat="48.37054" lon="2.56143">
        <ele>118.9</ele>
        <time>2024-11-07T12:57:59Z</time>
      </trkpt>
      <trkpt lat="48.37033" lon="2.56142">
        <ele>118.2</ele>
        <time>2024-11-07T12:58:05Z</time>
      </trkpt>
      <trkpt lat="48.37013" lon="2.56147">
        <ele>117.5</ele>
        <time>2024-11-07T12:58:11Z</time>
      </trkpt>
      <trkpt lat="48.36995" lon="2.56128">
        <ele>117</ele>
        <time>2024-11-07T12:58:20Z</time>
      </trkpt>
      <trkpt lat="48.36982" lon="2.56108">
        <ele>116.9</ele>
        <time>2024-11-07T12:58:23Z</time>
      </trkpt>
      <trkpt lat="48.36979" lon="2.56079">
        <ele>116.3</ele>
        <time>2024-11-07T12:58:26Z</time>
      </trkpt>
      <trkpt lat="48.36984" lon="2.56049">
        <ele>116.3</ele>
        <time>2024-11-07T12:58:29Z</time>
      </trkpt>
      <trkpt lat="48.36991" lon="2.56021">
        <ele>116</ele>
        <time>2024-11-07T12:58:32Z</time>
      </trkpt>
      <trkpt lat="48.36996" lon="2.55993">
        <ele>115.8</ele>
        <time>2024-11-07T12:58:35Z</time>
      </trkpt>
      <trkpt lat="48.37003" lon="2.55967">
        <ele>115.2</ele>
        <time>2024-11-07T12:58:38Z</time>
      </trkpt>
      <trkpt lat="48.37015" lon="2.55936">
        <ele>115.4</ele>
        <time>2024-11-07T12:58:42Z</time>
      </trkpt>
      <trkpt lat="48.3703" lon="2.55909">
        <ele>114.2</ele>
        <time>2024-11-07T12:58:46Z</time>
      </trkpt>
      <trkpt lat="48.37042" lon="2.55888">
        <ele>114</ele>
        <time>2024-11-07T12:58:49Z</time>
      </trkpt>
      <trkpt lat="48.37054" lon="2.55866">
        <ele>114</ele>
        <time>2024-11-07T12:58:52Z</time>
      </trkpt>
      <trkpt lat="48.37067" lon="2.55841">
        <ele>114.2</ele>
        <time>2024-11-07T12:58:56Z</time>
      </trkpt>
      <trkpt lat="48.3708" lon="2.5582">
        <ele>113.3</ele>
        <time>2024-11-07T12:59:00Z</time>
      </trkpt>
      <trkpt lat="48.37096" lon="2.55806">
        <ele>112.6</ele>
        <time>2024-11-07T12:59:04Z</time>
      </trkpt>
      <trkpt lat="48.37113" lon="2.55789">
        <ele>112.7</ele>
        <time>2024-11-07T12:59:08Z</time>
      </trkpt>
      <trkpt lat="48.37131" lon="2.5577">
        <ele>112.9</ele>
        <time>2024-11-07T12:59:12Z</time>
      </trkpt>
      <trkpt lat="48.37147" lon="2.55747">
        <ele>111.9</ele>
        <time>2024-11-07T12:59:16Z</time>
      </trkpt>
      <trkpt lat="48.3716" lon="2.55729">
        <ele>110.9</ele>
        <time>2024-11-07T12:59:19Z</time>
      </trkpt>
      <trkpt lat="48.37174" lon="2.55709">
        <ele>109.3</ele>
        <time>2024-11-07T12:59:22Z</time>
      </trkpt>
      <trkpt lat="48.37189" lon="2.5569">
        <ele>108.1</ele>
        <time>2024-11-07T12:59:25Z</time>
      </trkpt>
      <trkpt lat="48.37204" lon="2.55671">
        <ele>106.8</ele>
        <time>2024-11-07T12:59:28Z</time>
      </trkpt>
      <trkpt lat="48.37216" lon="2.55651">
        <ele>106.3</ele>
        <time>2024-11-07T12:59:31Z</time>
      </trkpt>
      <trkpt lat="48.37228" lon="2.5563">
        <ele>106.2</ele>
        <time>2024-11-07T12:59:34Z</time>
      </trkpt>
      <trkpt lat="48.37235" lon="2.55604">
        <ele>105.9</ele>
        <time>2024-11-07T12:59:37Z</time>
      </trkpt>
      <trkpt lat="48.37241" lon="2.55575">
        <ele>104.7</ele>
        <time>2024-11-07T12:59:40Z</time>
      </trkpt>
      <trkpt lat="48.37244" lon="2.55546">
        <ele>103.7</ele>
        <time>2024-11-07T12:59:43Z</time>
      </trkpt>
      <trkpt lat="48.37248" lon="2.55518">
        <ele>103.2</ele>
        <time>2024-11-07T12:59:47Z</time>
      </trkpt>
      <trkpt lat="48.37234" lon="2.55535">
        <ele>104.8</ele>
        <time>2024-11-07T13:00:17Z</time>
      </trkpt>
      <trkpt lat="48.37215" lon="2.55531">
        <ele>107.2</ele>
        <time>2024-11-07T13:00:50Z</time>
      </trkpt>
      <trkpt lat="48.37197" lon="2.55528">
        <ele>110.5</ele>
        <time>2024-11-07T13:01:23Z</time>
      </trkpt>
      <trkpt lat="48.37179" lon="2.55521">
        <ele>113.2</ele>
        <time>2024-11-07T13:01:39Z</time>
      </trkpt>
      <trkpt lat="48.37162" lon="2.55511">
        <ele>115.1</ele>
        <time>2024-11-07T13:01:56Z</time>
      </trkpt>
      <trkpt lat="48.37147" lon="2.5549">
        <ele>115.7</ele>
        <time>2024-11-07T13:02:09Z</time>
      </trkpt>
      <trkpt lat="48.37134" lon="2.55471">
        <ele>116.2</ele>
        <time>2024-11-07T13:02:17Z</time>
      </trkpt>
      <trkpt lat="48.3712" lon="2.5545">
        <ele>116.9</ele>
        <time>2024-11-07T13:02:27Z</time>
      </trkpt>
      <trkpt lat="48.37106" lon="2.5543">
        <ele>117.2</ele>
        <time>2024-11-07T13:02:35Z</time>
      </trkpt>
      <trkpt lat="48.37093" lon="2.5541">
        <ele>117.7</ele>
        <time>2024-11-07T13:02:42Z</time>
      </trkpt>
      <trkpt lat="48.37078" lon="2.55395">
        <ele>118</ele>
        <time>2024-11-07T13:02:49Z</time>
      </trkpt>
      <trkpt lat="48.37069" lon="2.55422">
        <ele>118</ele>
        <time>2024-11-07T13:02:56Z</time>
      </trkpt>
      <trkpt lat="48.37061" lon="2.55448">
        <ele>118</ele>
        <time>2024-11-07T13:03:03Z</time>
      </trkpt>
      <trkpt lat="48.37051" lon="2.55471">
        <ele>118</ele>
        <time>2024-11-07T13:03:11Z</time>
      </trkpt>
      <trkpt lat="48.37043" lon="2.55496">
        <ele>118</ele>
        <time>2024-11-07T13:03:19Z</time>
      </trkpt>
      <trkpt lat="48.3703" lon="2.5552">
        <ele>118</ele>
        <time>2024-11-07T13:03:27Z</time>
      </trkpt>
      <trkpt lat="48.37022" lon="2.55544">
        <ele>118</ele>
        <time>2024-11-07T13:03:34Z</time>
      </trkpt>
      <trkpt lat="48.37011" lon="2.55568">
        <ele>118.3</ele>
        <time>2024-11-07T13:03:41Z</time>
      </trkpt>
      <trkpt lat="48.37" lon="2.55591">
        <ele>119</ele>
        <time>2024-11-07T13:03:47Z</time>
      </trkpt>
      <trkpt lat="48.36983" lon="2.55609">
        <ele>119</ele>
        <time>2024-11-07T13:03:53Z</time>
      </trkpt>
      <trkpt lat="48.36965" lon="2.55603">
        <ele>118.5</ele>
        <time>2024-11-07T13:04:01Z</time>
      </trkpt>
      <trkpt lat="48.3695" lon="2.55582">
        <ele>118</ele>
        <time>2024-11-07T13:04:08Z</time>
      </trkpt>
      <trkpt lat="48.36934" lon="2.55567">
        <ele>118</ele>
        <time>2024-11-07T13:04:14Z</time>
      </trkpt>
      <trkpt lat="48.36917" lon="2.55549">
        <ele>118</ele>
        <time>2024-11-07T13:04:20Z</time>
      </trkpt>
      <trkpt lat="48.36901" lon="2.55534">
        <ele>117.4</ele>
        <time>2024-11-07T13:04:26Z</time>
      </trkpt>
      <trkpt lat="48.36887" lon="2.55512">
        <ele>117.5</ele>
        <time>2024-11-07T13:04:32Z</time>
      </trkpt>
      <trkpt lat="48.36875" lon="2.55492">
        <ele>117.5</ele>
        <time>2024-11-07T13:04:37Z</time>
      </trkpt>
      <trkpt lat="48.36855" lon="2.55478">
        <ele>117</ele>
        <time>2024-11-07T13:04:42Z</time>
      </trkpt>
      <trkpt lat="48.36837" lon="2.55471">
        <ele>117</ele>
        <time>2024-11-07T13:04:47Z</time>
      </trkpt>
      <trkpt lat="48.36819" lon="2.55482">
        <ele>116.8</ele>
        <time>2024-11-07T13:04:52Z</time>
      </trkpt>
      <trkpt lat="48.36804" lon="2.55496">
        <ele>116.1</ele>
        <time>2024-11-07T13:04:57Z</time>
      </trkpt>
      <trkpt lat="48.36786" lon="2.55508">
        <ele>116</ele>
        <time>2024-11-07T13:05:03Z</time>
      </trkpt>
      <trkpt lat="48.36766" lon="2.55521">
        <ele>116</ele>
        <time>2024-11-07T13:05:09Z</time>
      </trkpt>
      <trkpt lat="48.36746" lon="2.55532">
        <ele>115.9</ele>
        <time>2024-11-07T13:05:15Z</time>
      </trkpt>
      <trkpt lat="48.3673" lon="2.55547">
        <ele>115.3</ele>
        <time>2024-11-07T13:05:21Z</time>
      </trkpt>
      <trkpt lat="48.36713" lon="2.55567">
        <ele>115</ele>
        <time>2024-11-07T13:05:27Z</time>
      </trkpt>
      <trkpt lat="48.36697" lon="2.55585">
        <ele>115</ele>
        <time>2024-11-07T13:05:33Z</time>
      </trkpt>
      <trkpt lat="48.36683" lon="2.55608">
        <ele>115</ele>
        <time>2024-11-07T13:05:38Z</time>
      </trkpt>
      <trkpt lat="48.36669" lon="2.5563">
        <ele>114.4</ele>
        <time>2024-11-07T13:05:43Z</time>
      </trkpt>
      <trkpt lat="48.36648" lon="2.55637">
        <ele>114</ele>
        <time>2024-11-07T13:05:48Z</time>
      </trkpt>
      <trkpt lat="48.36632" lon="2.55654">
        <ele>113.9</ele>
        <time>2024-11-07T13:05:53Z</time>
      </trkpt>
      <trkpt lat="48.36618" lon="2.55677">
        <ele>113.2</ele>
        <time>2024-11-07T13:05:58Z</time>
      </trkpt>
      <trkpt lat="48.36602" lon="2.55699">
        <ele>113</ele>
        <time>2024-11-07T13:06:03Z</time>
      </trkpt>
      <trkpt lat="48.36589" lon="2.55721">
        <ele>113</ele>
        <time>2024-11-07T13:06:08Z</time>
      </trkpt>
      <trkpt lat="48.36573" lon="2.55742">
        <ele>112.6</ele>
        <time>2024-11-07T13:06:14Z</time>
      </trkpt>
      <trkpt lat="48.36559" lon="2.55762">
        <ele>112.1</ele>
        <time>2024-11-07T13:06:19Z</time>
      </trkpt>
      <trkpt lat="48.36544" lon="2.55784">
        <ele>111.6</ele>
        <time>2024-11-07T13:06:24Z</time>
      </trkpt>
      <trkpt lat="48.36531" lon="2.55807">
        <ele>111.2</ele>
        <time>2024-11-07T13:06:29Z</time>
      </trkpt>
      <trkpt lat="48.36518" lon="2.55832">
        <ele>111.6</ele>
        <time>2024-11-07T13:06:34Z</time>
      </trkpt>
      <trkpt lat="48.36504" lon="2.55857">
        <ele>111.9</ele>
        <time>2024-11-07T13:06:39Z</time>
      </trkpt>
      <trkpt lat="48.3649" lon="2.55876">
        <ele>111.8</ele>
        <time>2024-11-07T13:06:43Z</time>
      </trkpt>
      <trkpt lat="48.36477" lon="2.55896">
        <ele>112.2</ele>
        <time>2024-11-07T13:06:48Z</time>
      </trkpt>
      <trkpt lat="48.36465" lon="2.55917">
        <ele>113</ele>
        <time>2024-11-07T13:06:53Z</time>
      </trkpt>
      <trkpt lat="48.36452" lon="2.5594">
        <ele>113</ele>
        <time>2024-11-07T13:06:59Z</time>
      </trkpt>
      <trkpt lat="48.36436" lon="2.55923">
        <ele>113.1</ele>
        <time>2024-11-07T13:07:06Z</time>
      </trkpt>
      <trkpt lat="48.36439" lon="2.55895">
        <ele>112.4</ele>
        <time>2024-11-07T13:07:11Z</time>
      </trkpt>
      <trkpt lat="48.36443" lon="2.55868">
        <ele>112</ele>
        <time>2024-11-07T13:07:15Z</time>
      </trkpt>
      <trkpt lat="48.36444" lon="2.55839">
        <ele>111.2</ele>
        <time>2024-11-07T13:07:19Z</time>
      </trkpt>
      <trkpt lat="48.36446" lon="2.55811">
        <ele>110.2</ele>
        <time>2024-11-07T13:07:23Z</time>
      </trkpt>
      <trkpt lat="48.36447" lon="2.55782">
        <ele>109.3</ele>
        <time>2024-11-07T13:07:28Z</time>
      </trkpt>
      <trkpt lat="48.36447" lon="2.55754">
        <ele>109.1</ele>
        <time>2024-11-07T13:07:33Z</time>
      </trkpt>
      <trkpt lat="48.36446" lon="2.55724">
        <ele>109.1</ele>
        <time>2024-11-07T13:07:38Z</time>
      </trkpt>
      <trkpt lat="48.36445" lon="2.55695">
        <ele>110</ele>
        <time>2024-11-07T13:07:43Z</time>
      </trkpt>
      <trkpt lat="48.36428" lon="2.55681">
        <ele>109.7</ele>
        <time>2024-11-07T13:07:49Z</time>
      </trkpt>
      <trkpt lat="48.3641" lon="2.55683">
        <ele>109</ele>
        <time>2024-11-07T13:07:54Z</time>
      </trkpt>
      <trkpt lat="48.36398" lon="2.55662">
        <ele>109.4</ele>
        <time>2024-11-07T13:07:59Z</time>
      </trkpt>
      <trkpt lat="48.36384" lon="2.55638">
        <ele>110</ele>
        <time>2024-11-07T13:08:05Z</time>
      </trkpt>
      <trkpt lat="48.36367" lon="2.55625">
        <ele>110.1</ele>
        <time>2024-11-07T13:08:10Z</time>
      </trkpt>
      <trkpt lat="48.36349" lon="2.55609">
        <ele>109.6</ele>
        <time>2024-11-07T13:08:15Z</time>
      </trkpt>
      <trkpt lat="48.36338" lon="2.55586">
        <ele>109.2</ele>
        <time>2024-11-07T13:08:20Z</time>
      </trkpt>
      <trkpt lat="48.36325" lon="2.55561">
        <ele>108.7</ele>
        <time>2024-11-07T13:08:25Z</time>
      </trkpt>
      <trkpt lat="48.36314" lon="2.55535">
        <ele>107.8</ele>
        <time>2024-11-07T13:08:31Z</time>
      </trkpt>
      <trkpt lat="48.36315" lon="2.55505">
        <ele>107.4</ele>
        <time>2024-11-07T13:08:36Z</time>
      </trkpt>
      <trkpt lat="48.36323" lon="2.55479">
        <ele>106.9</ele>
        <time>2024-11-07T13:08:41Z</time>
      </trkpt>
      <trkpt lat="48.36333" lon="2.55452">
        <ele>106.2</ele>
        <time>2024-11-07T13:08:46Z</time>
      </trkpt>
      <trkpt lat="48.36343" lon="2.55426">
        <ele>106.3</ele>
        <time>2024-11-07T13:08:51Z</time>
      </trkpt>
      <trkpt lat="48.36353" lon="2.55401">
        <ele>107.1</ele>
        <time>2024-11-07T13:08:56Z</time>
      </trkpt>
      <trkpt lat="48.36354" lon="2.55369">
        <ele>107.4</ele>
        <time>2024-11-07T13:09:02Z</time>
      </trkpt>
      <trkpt lat="48.36352" lon="2.55338">
        <ele>107.6</ele>
        <time>2024-11-07T13:09:08Z</time>
      </trkpt>
      <trkpt lat="48.3635" lon="2.55306">
        <ele>108.6</ele>
        <time>2024-11-07T13:09:14Z</time>
      </trkpt>
      <trkpt lat="48.36349" lon="2.55275">
        <ele>108.6</ele>
        <time>2024-11-07T13:09:20Z</time>
      </trkpt>
      <trkpt lat="48.36353" lon="2.55245">
        <ele>109</ele>
        <time>2024-11-07T13:09:26Z</time>
      </trkpt>
      <trkpt lat="48.36359" lon="2.55215">
        <ele>109</ele>
        <time>2024-11-07T13:09:32Z</time>
      </trkpt>
      <trkpt lat="48.36365" lon="2.55187">
        <ele>109.1</ele>
        <time>2024-11-07T13:09:38Z</time>
      </trkpt>
      <trkpt lat="48.36368" lon="2.55158">
        <ele>109.6</ele>
        <time>2024-11-07T13:09:44Z</time>
      </trkpt>
      <trkpt lat="48.36368" lon="2.55129">
        <ele>110.3</ele>
        <time>2024-11-07T13:09:50Z</time>
      </trkpt>
      <trkpt lat="48.36367" lon="2.551">
        <ele>110.6</ele>
        <time>2024-11-07T13:09:56Z</time>
      </trkpt>
      <trkpt lat="48.36363" lon="2.5507">
        <ele>111.5</ele>
        <time>2024-11-07T13:10:03Z</time>
      </trkpt>
      <trkpt lat="48.36358" lon="2.55043">
        <ele>112</ele>
        <time>2024-11-07T13:10:09Z</time>
      </trkpt>
      <trkpt lat="48.36353" lon="2.55013">
        <ele>112.5</ele>
        <time>2024-11-07T13:10:16Z</time>
      </trkpt>
      <trkpt lat="48.36357" lon="2.55042">
        <ele>112</ele>
        <time>2024-11-07T13:11:07Z</time>
      </trkpt>
      <trkpt lat="48.36362" lon="2.5507">
        <ele>111.5</ele>
        <time>2024-11-07T13:11:16Z</time>
      </trkpt>
      <trkpt lat="48.36377" lon="2.55053">
        <ele>112.1</ele>
        <time>2024-11-07T13:11:30Z</time>
      </trkpt>
      <trkpt lat="48.36392" lon="2.55034">
        <ele>112.9</ele>
        <time>2024-11-07T13:11:38Z</time>
      </trkpt>
      <trkpt lat="48.36406" lon="2.55015">
        <ele>113.6</ele>
        <time>2024-11-07T13:11:45Z</time>
      </trkpt>
      <trkpt lat="48.36417" lon="2.54989">
        <ele>114</ele>
        <time>2024-11-07T13:11:53Z</time>
      </trkpt>
      <trkpt lat="48.36425" lon="2.54964">
        <ele>114.3</ele>
        <time>2024-11-07T13:12:00Z</time>
      </trkpt>
      <trkpt lat="48.3643" lon="2.54935">
        <ele>114.7</ele>
        <time>2024-11-07T13:12:07Z</time>
      </trkpt>
      <trkpt lat="48.36438" lon="2.54907">
        <ele>115</ele>
        <time>2024-11-07T13:12:14Z</time>
      </trkpt>
      <trkpt lat="48.36451" lon="2.54888">
        <ele>115.3</ele>
        <time>2024-11-07T13:12:20Z</time>
      </trkpt>
      <trkpt lat="48.36468" lon="2.54869">
        <ele>116</ele>
        <time>2024-11-07T13:12:27Z</time>
      </trkpt>
      <trkpt lat="48.36483" lon="2.54849">
        <ele>116.4</ele>
        <time>2024-11-07T13:12:34Z</time>
      </trkpt>
      <trkpt lat="48.365" lon="2.54833">
        <ele>117</ele>
        <time>2024-11-07T13:12:41Z</time>
      </trkpt>
      <trkpt lat="48.36518" lon="2.54824">
        <ele>117</ele>
        <time>2024-11-07T13:12:47Z</time>
      </trkpt>
      <trkpt lat="48.36534" lon="2.54808">
        <ele>117.2</ele>
        <time>2024-11-07T13:12:54Z</time>
      </trkpt>
      <trkpt lat="48.36541" lon="2.5478">
        <ele>117.5</ele>
        <time>2024-11-07T13:13:00Z</time>
      </trkpt>
      <trkpt lat="48.36549" lon="2.54755">
        <ele>117.8</ele>
        <time>2024-11-07T13:13:06Z</time>
      </trkpt>
      <trkpt lat="48.3656" lon="2.54732">
        <ele>118</ele>
        <time>2024-11-07T13:13:12Z</time>
      </trkpt>
      <trkpt lat="48.36577" lon="2.54716">
        <ele>118</ele>
        <time>2024-11-07T13:13:19Z</time>
      </trkpt>
      <trkpt lat="48.36596" lon="2.54709">
        <ele>118</ele>
        <time>2024-11-07T13:13:27Z</time>
      </trkpt>
      <trkpt lat="48.36613" lon="2.54699">
        <ele>117.9</ele>
        <time>2024-11-07T13:13:36Z</time>
      </trkpt>
      <trkpt lat="48.36631" lon="2.54687">
        <ele>117.3</ele>
        <time>2024-11-07T13:13:45Z</time>
      </trkpt>
      <trkpt lat="48.36647" lon="2.54673">
        <ele>117</ele>
        <time>2024-11-07T13:13:50Z</time>
      </trkpt>
      <trkpt lat="48.36666" lon="2.54679">
        <ele>117</ele>
        <time>2024-11-07T13:13:55Z</time>
      </trkpt>
      <trkpt lat="48.36687" lon="2.54674">
        <ele>117</ele>
        <time>2024-11-07T13:14:01Z</time>
      </trkpt>
      <trkpt lat="48.36688" lon="2.54644">
        <ele>117</ele>
        <time>2024-11-07T13:14:07Z</time>
      </trkpt>
      <trkpt lat="48.36689" lon="2.54617">
        <ele>117</ele>
        <time>2024-11-07T13:14:12Z</time>
      </trkpt>
      <trkpt lat="48.36692" lon="2.54585">
        <ele>116.1</ele>
        <time>2024-11-07T13:14:18Z</time>
      </trkpt>
      <trkpt lat="48.36695" lon="2.54556">
        <ele>116</ele>
        <time>2024-11-07T13:14:24Z</time>
      </trkpt>
      <trkpt lat="48.36701" lon="2.54526">
        <ele>115.8</ele>
        <time>2024-11-07T13:14:31Z</time>
      </trkpt>
      <trkpt lat="48.36707" lon="2.54497">
        <ele>115.6</ele>
        <time>2024-11-07T13:14:39Z</time>
      </trkpt>
      <trkpt lat="48.36709" lon="2.54466">
        <ele>115.3</ele>
        <time>2024-11-07T13:14:46Z</time>
      </trkpt>
      <trkpt lat="48.36714" lon="2.54437">
        <ele>114.6</ele>
        <time>2024-11-07T13:14:54Z</time>
      </trkpt>
      <trkpt lat="48.36716" lon="2.54409">
        <ele>113.9</ele>
        <time>2024-11-07T13:15:00Z</time>
      </trkpt>
      <trkpt lat="48.36718" lon="2.54381">
        <ele>111.8</ele>
        <time>2024-11-07T13:15:05Z</time>
      </trkpt>
      <trkpt lat="48.3672" lon="2.54353">
        <ele>108.7</ele>
        <time>2024-11-07T13:15:10Z</time>
      </trkpt>
      <trkpt lat="48.3672" lon="2.54321">
        <ele>106.7</ele>
        <time>2024-11-07T13:15:15Z</time>
      </trkpt>
      <trkpt lat="48.3672" lon="2.54291">
        <ele>104.9</ele>
        <time>2024-11-07T13:15:20Z</time>
      </trkpt>
      <trkpt lat="48.36716" lon="2.54259">
        <ele>103.9</ele>
        <time>2024-11-07T13:15:24Z</time>
      </trkpt>
      <trkpt lat="48.36712" lon="2.54227">
        <ele>103.1</ele>
        <time>2024-11-07T13:15:28Z</time>
      </trkpt>
      <trkpt lat="48.36706" lon="2.54201">
        <ele>102.4</ele>
        <time>2024-11-07T13:15:31Z</time>
      </trkpt>
      <trkpt lat="48.36699" lon="2.54169">
        <ele>101.6</ele>
        <time>2024-11-07T13:15:35Z</time>
      </trkpt>
      <trkpt lat="48.36692" lon="2.54139">
        <ele>101.3</ele>
        <time>2024-11-07T13:15:39Z</time>
      </trkpt>
      <trkpt lat="48.36686" lon="2.54114">
        <ele>101.9</ele>
        <time>2024-11-07T13:15:43Z</time>
      </trkpt>
      <trkpt lat="48.3668" lon="2.54088">
        <ele>101.7</ele>
        <time>2024-11-07T13:15:47Z</time>
      </trkpt>
      <trkpt lat="48.36675" lon="2.54061">
        <ele>101.4</ele>
        <time>2024-11-07T13:15:51Z</time>
      </trkpt>
      <trkpt lat="48.36669" lon="2.54029">
        <ele>100.4</ele>
        <time>2024-11-07T13:15:56Z</time>
      </trkpt>
      <trkpt lat="48.36662" lon="2.53999">
        <ele>100.3</ele>
        <time>2024-11-07T13:16:01Z</time>
      </trkpt>
      <trkpt lat="48.36663" lon="2.53971">
        <ele>100</ele>
        <time>2024-11-07T13:16:05Z</time>
      </trkpt>
      <trkpt lat="48.3666" lon="2.53941">
        <ele>99.4</ele>
        <time>2024-11-07T13:16:10Z</time>
      </trkpt>
      <trkpt lat="48.36652" lon="2.5391">
        <ele>97.9</ele>
        <time>2024-11-07T13:16:15Z</time>
      </trkpt>
      <trkpt lat="48.36643" lon="2.53885">
        <ele>96.7</ele>
        <time>2024-11-07T13:16:19Z</time>
      </trkpt>
      <trkpt lat="48.36637" lon="2.53859">
        <ele>96.1</ele>
        <time>2024-11-07T13:16:23Z</time>
      </trkpt>
      <trkpt lat="48.36627" lon="2.53831">
        <ele>95.3</ele>
        <time>2024-11-07T13:16:28Z</time>
      </trkpt>
      <trkpt lat="48.36618" lon="2.53806">
        <ele>94.3</ele>
        <time>2024-11-07T13:16:32Z</time>
      </trkpt>
      <trkpt lat="48.36607" lon="2.53779">
        <ele>93.6</ele>
        <time>2024-11-07T13:16:37Z</time>
      </trkpt>
      <trkpt lat="48.36602" lon="2.53752">
        <ele>94.9</ele>
        <time>2024-11-07T13:16:41Z</time>
      </trkpt>
      <trkpt lat="48.36596" lon="2.53726">
        <ele>95.1</ele>
        <time>2024-11-07T13:16:45Z</time>
      </trkpt>
      <trkpt lat="48.36595" lon="2.53697">
        <ele>94.5</ele>
        <time>2024-11-07T13:16:49Z</time>
      </trkpt>
      <trkpt lat="48.36586" lon="2.53671">
        <ele>94.2</ele>
        <time>2024-11-07T13:16:54Z</time>
      </trkpt>
      <trkpt lat="48.36571" lon="2.53646">
        <ele>94.9</ele>
        <time>2024-11-07T13:16:59Z</time>
      </trkpt>
      <trkpt lat="48.36557" lon="2.53627">
        <ele>94.5</ele>
        <time>2024-11-07T13:17:04Z</time>
      </trkpt>
      <trkpt lat="48.3654" lon="2.53614">
        <ele>94.4</ele>
        <time>2024-11-07T13:17:47Z</time>
      </trkpt>
      <trkpt lat="48.36521" lon="2.5362">
        <ele>94.7</ele>
        <time>2024-11-07T13:18:09Z</time>
      </trkpt>
      <trkpt lat="48.36503" lon="2.53609">
        <ele>94.8</ele>
        <time>2024-11-07T13:18:16Z</time>
      </trkpt>
      <trkpt lat="48.36483" lon="2.53615">
        <ele>95.3</ele>
        <time>2024-11-07T13:18:25Z</time>
      </trkpt>
      <trkpt lat="48.36467" lon="2.5363">
        <ele>95.9</ele>
        <time>2024-11-07T13:18:34Z</time>
      </trkpt>
      <trkpt lat="48.36446" lon="2.53631">
        <ele>94.1</ele>
        <time>2024-11-07T13:18:40Z</time>
      </trkpt>
      <trkpt lat="48.36427" lon="2.5364">
        <ele>92.1</ele>
        <time>2024-11-07T13:18:44Z</time>
      </trkpt>
      <trkpt lat="48.36409" lon="2.53654">
        <ele>90.2</ele>
        <time>2024-11-07T13:18:48Z</time>
      </trkpt>
      <trkpt lat="48.36389" lon="2.53651">
        <ele>88.1</ele>
        <time>2024-11-07T13:18:52Z</time>
      </trkpt>
      <trkpt lat="48.36372" lon="2.53632">
        <ele>87.5</ele>
        <time>2024-11-07T13:18:56Z</time>
      </trkpt>
      <trkpt lat="48.36357" lon="2.53612">
        <ele>86.9</ele>
        <time>2024-11-07T13:19:00Z</time>
      </trkpt>
      <trkpt lat="48.36342" lon="2.53588">
        <ele>86.3</ele>
        <time>2024-11-07T13:19:05Z</time>
      </trkpt>
      <trkpt lat="48.36329" lon="2.5356">
        <ele>85.6</ele>
        <time>2024-11-07T13:19:10Z</time>
      </trkpt>
      <trkpt lat="48.36322" lon="2.53535">
        <ele>85.9</ele>
        <time>2024-11-07T13:19:14Z</time>
      </trkpt>
      <trkpt lat="48.3632" lon="2.53503">
        <ele>85.9</ele>
        <time>2024-11-07T13:19:19Z</time>
      </trkpt>
      <trkpt lat="48.36322" lon="2.53472">
        <ele>85.8</ele>
        <time>2024-11-07T13:19:24Z</time>
      </trkpt>
      <trkpt lat="48.36326" lon="2.53443">
        <ele>84.8</ele>
        <time>2024-11-07T13:19:29Z</time>
      </trkpt>
      <trkpt lat="48.36334" lon="2.53417">
        <ele>83</ele>
        <time>2024-11-07T13:19:34Z</time>
      </trkpt>
      <trkpt lat="48.36346" lon="2.5339">
        <ele>83.1</ele>
        <time>2024-11-07T13:19:39Z</time>
      </trkpt>
      <trkpt lat="48.36355" lon="2.53362">
        <ele>83.2</ele>
        <time>2024-11-07T13:19:44Z</time>
      </trkpt>
      <trkpt lat="48.36366" lon="2.5334">
        <ele>81.8</ele>
        <time>2024-11-07T13:19:49Z</time>
      </trkpt>
      <trkpt lat="48.3637" lon="2.53314">
        <ele>81.4</ele>
        <time>2024-11-07T13:19:56Z</time>
      </trkpt>
      <trkpt lat="48.36382" lon="2.53288">
        <ele>78.2</ele>
        <time>2024-11-07T13:20:02Z</time>
      </trkpt>
      <trkpt lat="48.36385" lon="2.53255">
        <ele>76</ele>
        <time>2024-11-07T13:20:07Z</time>
      </trkpt>
      <trkpt lat="48.36383" lon="2.53225">
        <ele>75.7</ele>
        <time>2024-11-07T13:20:12Z</time>
      </trkpt>
      <trkpt lat="48.36379" lon="2.53198">
        <ele>75.5</ele>
        <time>2024-11-07T13:20:16Z</time>
      </trkpt>
      <trkpt lat="48.36374" lon="2.53172">
        <ele>74.6</ele>
        <time>2024-11-07T13:20:20Z</time>
      </trkpt>
      <trkpt lat="48.36364" lon="2.53143">
        <ele>74.1</ele>
        <time>2024-11-07T13:20:25Z</time>
      </trkpt>
      <trkpt lat="48.36363" lon="2.53114">
        <ele>73.2</ele>
        <time>2024-11-07T13:20:45Z</time>
      </trkpt>
      <trkpt lat="48.3635" lon="2.53091">
        <ele>72.3</ele>
        <time>2024-11-07T13:20:52Z</time>
      </trkpt>
      <trkpt lat="48.36336" lon="2.5307">
        <ele>71.2</ele>
        <time>2024-11-07T13:20:58Z</time>
      </trkpt>
      <trkpt lat="48.36323" lon="2.53047">
        <ele>70.9</ele>
        <time>2024-11-07T13:21:03Z</time>
      </trkpt>
      <trkpt lat="48.36312" lon="2.53019">
        <ele>70.1</ele>
        <time>2024-11-07T13:21:08Z</time>
      </trkpt>
      <trkpt lat="48.363" lon="2.52991">
        <ele>70</ele>
        <time>2024-11-07T13:21:13Z</time>
      </trkpt>
      <trkpt lat="48.36287" lon="2.52965">
        <ele>70</ele>
        <time>2024-11-07T13:21:18Z</time>
      </trkpt>
      <trkpt lat="48.36274" lon="2.5294">
        <ele>70</ele>
        <time>2024-11-07T13:21:23Z</time>
      </trkpt>
      <trkpt lat="48.36264" lon="2.52916">
        <ele>70</ele>
        <time>2024-11-07T13:21:28Z</time>
      </trkpt>
      <trkpt lat="48.36253" lon="2.52889">
        <ele>69</ele>
        <time>2024-11-07T13:21:34Z</time>
      </trkpt>
      <trkpt lat="48.36244" lon="2.52859">
        <ele>69</ele>
        <time>2024-11-07T13:21:40Z</time>
      </trkpt>
      <trkpt lat="48.36237" lon="2.52829">
        <ele>69</ele>
        <time>2024-11-07T13:21:46Z</time>
      </trkpt>
      <trkpt lat="48.36247" lon="2.52805">
        <ele>69</ele>
        <time>2024-11-07T13:21:54Z</time>
      </trkpt>
      <trkpt lat="48.36265" lon="2.52802">
        <ele>68.4</ele>
        <time>2024-11-07T13:22:01Z</time>
      </trkpt>
      <trkpt lat="48.36284" lon="2.52791">
        <ele>68</ele>
        <time>2024-11-07T13:22:07Z</time>
      </trkpt>
      <trkpt lat="48.36302" lon="2.52782">
        <ele>68</ele>
        <time>2024-11-07T13:22:13Z</time>
      </trkpt>
      <trkpt lat="48.36321" lon="2.52772">
        <ele>68</ele>
        <time>2024-11-07T13:22:19Z</time>
      </trkpt>
      <trkpt lat="48.36337" lon="2.52755">
        <ele>68</ele>
        <time>2024-11-07T13:22:26Z</time>
      </trkpt>
      <trkpt lat="48.36356" lon="2.52749">
        <ele>68</ele>
        <time>2024-11-07T13:22:33Z</time>
      </trkpt>
      <trkpt lat="48.36373" lon="2.5274">
        <ele>68</ele>
        <time>2024-11-07T13:22:40Z</time>
      </trkpt>
      <trkpt lat="48.36391" lon="2.52725">
        <ele>68.1</ele>
        <time>2024-11-07T13:22:46Z</time>
      </trkpt>
      <trkpt lat="48.36401" lon="2.52702">
        <ele>69.2</ele>
        <time>2024-11-07T13:22:53Z</time>
      </trkpt>
      <trkpt lat="48.36422" lon="2.52709">
        <ele>69.6</ele>
        <time>2024-11-07T13:23:01Z</time>
      </trkpt>
      <trkpt lat="48.36442" lon="2.52714">
        <ele>69.9</ele>
        <time>2024-11-07T13:23:07Z</time>
      </trkpt>
      <trkpt lat="48.36463" lon="2.52715">
        <ele>70.2</ele>
        <time>2024-11-07T13:23:14Z</time>
      </trkpt>
      <trkpt lat="48.36482" lon="2.52706">
        <ele>70.6</ele>
        <time>2024-11-07T13:23:20Z</time>
      </trkpt>
      <trkpt lat="48.36499" lon="2.52695">
        <ele>71</ele>
        <time>2024-11-07T13:23:25Z</time>
      </trkpt>
      <trkpt lat="48.36516" lon="2.52686">
        <ele>70.4</ele>
        <time>2024-11-07T13:23:30Z</time>
      </trkpt>
      <trkpt lat="48.36536" lon="2.52682">
        <ele>70</ele>
        <time>2024-11-07T13:23:35Z</time>
      </trkpt>
      <trkpt lat="48.36557" lon="2.52679">
        <ele>70</ele>
        <time>2024-11-07T13:23:41Z</time>
      </trkpt>
      <trkpt lat="48.36575" lon="2.52676">
        <ele>70</ele>
        <time>2024-11-07T13:23:45Z</time>
      </trkpt>
      <trkpt lat="48.36592" lon="2.52668">
        <ele>70</ele>
        <time>2024-11-07T13:23:50Z</time>
      </trkpt>
      <trkpt lat="48.36609" lon="2.52652">
        <ele>69.5</ele>
        <time>2024-11-07T13:23:56Z</time>
      </trkpt>
      <trkpt lat="48.36628" lon="2.52646">
        <ele>69.1</ele>
        <time>2024-11-07T13:24:01Z</time>
      </trkpt>
      <trkpt lat="48.36648" lon="2.52646">
        <ele>68.9</ele>
        <time>2024-11-07T13:24:06Z</time>
      </trkpt>
      <trkpt lat="48.36666" lon="2.52649">
        <ele>68.6</ele>
        <time>2024-11-07T13:24:11Z</time>
      </trkpt>
      <trkpt lat="48.36686" lon="2.52652">
        <ele>68.5</ele>
        <time>2024-11-07T13:24:16Z</time>
      </trkpt>
      <trkpt lat="48.36706" lon="2.52656">
        <ele>68.8</ele>
        <time>2024-11-07T13:24:21Z</time>
      </trkpt>
      <trkpt lat="48.36727" lon="2.52657">
        <ele>69.3</ele>
        <time>2024-11-07T13:24:27Z</time>
      </trkpt>
      <trkpt lat="48.36726" lon="2.52687">
        <ele>68.4</ele>
        <time>2024-11-07T13:24:48Z</time>
      </trkpt>
      <trkpt lat="48.36739" lon="2.52712">
        <ele>68.2</ele>
        <time>2024-11-07T13:24:54Z</time>
      </trkpt>
      <trkpt lat="48.36758" lon="2.52714">
        <ele>68.5</ele>
        <time>2024-11-07T13:25:00Z</time>
      </trkpt>
      <trkpt lat="48.36776" lon="2.52711">
        <ele>69</ele>
        <time>2024-11-07T13:25:05Z</time>
      </trkpt>
      <trkpt lat="48.36795" lon="2.52701">
        <ele>69</ele>
        <time>2024-11-07T13:25:10Z</time>
      </trkpt>
      <trkpt lat="48.36816" lon="2.52707">
        <ele>69.4</ele>
        <time>2024-11-07T13:25:15Z</time>
      </trkpt>
      <trkpt lat="48.36833" lon="2.52721">
        <ele>70</ele>
        <time>2024-11-07T13:25:20Z</time>
      </trkpt>
      <trkpt lat="48.36852" lon="2.52725">
        <ele>70.7</ele>
        <time>2024-11-07T13:25:26Z</time>
      </trkpt>
      <trkpt lat="48.36866" lon="2.52742">
        <ele>71.1</ele>
        <time>2024-11-07T13:25:32Z</time>
      </trkpt>
      <trkpt lat="48.36857" lon="2.52718">
        <ele>70.9</ele>
        <time>2024-11-07T13:25:58Z</time>
      </trkpt>
      <trkpt lat="48.36854" lon="2.52686">
        <ele>71.1</ele>
        <time>2024-11-07T13:26:05Z</time>
      </trkpt>
      <trkpt lat="48.36856" lon="2.52659">
        <ele>71.8</ele>
        <time>2024-11-07T13:26:10Z</time>
      </trkpt>
      <trkpt lat="48.36851" lon="2.52632">
        <ele>71.7</ele>
        <time>2024-11-07T13:26:16Z</time>
      </trkpt>
      <trkpt lat="48.3684" lon="2.52609">
        <ele>72</ele>
        <time>2024-11-07T13:26:23Z</time>
      </trkpt>
      <trkpt lat="48.36827" lon="2.52585">
        <ele>72</ele>
        <time>2024-11-07T13:26:30Z</time>
      </trkpt>
      <trkpt lat="48.3681" lon="2.52572">
        <ele>72</ele>
        <time>2024-11-07T13:26:35Z</time>
      </trkpt>
      <trkpt lat="48.36819" lon="2.52546">
        <ele>71.8</ele>
        <time>2024-11-07T13:26:43Z</time>
      </trkpt>
      <trkpt lat="48.36837" lon="2.52527">
        <ele>70.8</ele>
        <time>2024-11-07T13:26:49Z</time>
      </trkpt>
      <trkpt lat="48.36851" lon="2.52504">
        <ele>69.5</ele>
        <time>2024-11-07T13:26:53Z</time>
      </trkpt>
      <trkpt lat="48.36866" lon="2.5248">
        <ele>68.9</ele>
        <time>2024-11-07T13:26:57Z</time>
      </trkpt>
      <trkpt lat="48.36877" lon="2.52455">
        <ele>68.4</ele>
        <time>2024-11-07T13:27:01Z</time>
      </trkpt>
      <trkpt lat="48.36886" lon="2.52427">
        <ele>68.1</ele>
        <time>2024-11-07T13:27:05Z</time>
      </trkpt>
      <trkpt lat="48.36898" lon="2.52404">
        <ele>68</ele>
        <time>2024-11-07T13:27:09Z</time>
      </trkpt>
      <trkpt lat="48.36911" lon="2.52384">
        <ele>68</ele>
        <time>2024-11-07T13:27:13Z</time>
      </trkpt>
      <trkpt lat="48.36925" lon="2.52363">
        <ele>68</ele>
        <time>2024-11-07T13:27:17Z</time>
      </trkpt>
      <trkpt lat="48.36938" lon="2.52339">
        <ele>68</ele>
        <time>2024-11-07T13:27:21Z</time>
      </trkpt>
      <trkpt lat="48.36957" lon="2.52327">
        <ele>68</ele>
        <time>2024-11-07T13:27:26Z</time>
      </trkpt>
      <trkpt lat="48.36974" lon="2.52313">
        <ele>68.1</ele>
        <time>2024-11-07T13:27:30Z</time>
      </trkpt>
      <trkpt lat="48.36991" lon="2.52299">
        <ele>68.7</ele>
        <time>2024-11-07T13:27:34Z</time>
      </trkpt>
      <trkpt lat="48.37009" lon="2.52287">
        <ele>69</ele>
        <time>2024-11-07T13:27:38Z</time>
      </trkpt>
      <trkpt lat="48.37029" lon="2.52276">
        <ele>69</ele>
        <time>2024-11-07T13:27:43Z</time>
      </trkpt>
      <trkpt lat="48.37048" lon="2.52266">
        <ele>69</ele>
        <time>2024-11-07T13:27:48Z</time>
      </trkpt>
      <trkpt lat="48.37066" lon="2.52251">
        <ele>69</ele>
        <time>2024-11-07T13:27:53Z</time>
      </trkpt>
      <trkpt lat="48.37086" lon="2.52234">
        <ele>69</ele>
        <time>2024-11-07T13:27:58Z</time>
      </trkpt>
      <trkpt lat="48.37104" lon="2.52218">
        <ele>69</ele>
        <time>2024-11-07T13:28:03Z</time>
      </trkpt>
      <trkpt lat="48.37121" lon="2.52205">
        <ele>69</ele>
        <time>2024-11-07T13:28:08Z</time>
      </trkpt>
      <trkpt lat="48.37139" lon="2.52196">
        <ele>69</ele>
        <time>2024-11-07T13:28:13Z</time>
      </trkpt>
      <trkpt lat="48.37156" lon="2.52183">
        <ele>69</ele>
        <time>2024-11-07T13:28:19Z</time>
      </trkpt>
      <trkpt lat="48.37171" lon="2.52163">
        <ele>69</ele>
        <time>2024-11-07T13:28:25Z</time>
      </trkpt>
      <trkpt lat="48.37168" lon="2.52133">
        <ele>69</ele>
        <time>2024-11-07T13:28:31Z</time>
      </trkpt>
      <trkpt lat="48.37165" lon="2.52101">
        <ele>69</ele>
        <time>2024-11-07T13:28:37Z</time>
      </trkpt>
      <trkpt lat="48.37162" lon="2.52073">
        <ele>69</ele>
        <time>2024-11-07T13:28:42Z</time>
      </trkpt>
      <trkpt lat="48.37157" lon="2.52045">
        <ele>68.7</ele>
        <time>2024-11-07T13:28:48Z</time>
      </trkpt>
      <trkpt lat="48.37151" lon="2.52018">
        <ele>68.5</ele>
        <time>2024-11-07T13:30:27Z</time>
      </trkpt>
      <trkpt lat="48.3717" lon="2.52028">
        <ele>68</ele>
        <time>2024-11-07T13:30:52Z</time>
      </trkpt>
      <trkpt lat="48.37188" lon="2.52014">
        <ele>68</ele>
        <time>2024-11-07T13:30:57Z</time>
      </trkpt>
      <trkpt lat="48.37206" lon="2.52002">
        <ele>68</ele>
        <time>2024-11-07T13:31:02Z</time>
      </trkpt>
      <trkpt lat="48.37224" lon="2.51988">
        <ele>68</ele>
        <time>2024-11-07T13:31:07Z</time>
      </trkpt>
      <trkpt lat="48.37243" lon="2.51976">
        <ele>68</ele>
        <time>2024-11-07T13:31:12Z</time>
      </trkpt>
      <trkpt lat="48.37264" lon="2.5196">
        <ele>68.2</ele>
        <time>2024-11-07T13:31:17Z</time>
      </trkpt>
      <trkpt lat="48.37283" lon="2.51947">
        <ele>69.1</ele>
        <time>2024-11-07T13:31:22Z</time>
      </trkpt>
      <trkpt lat="48.37302" lon="2.5194">
        <ele>70</ele>
        <time>2024-11-07T13:31:29Z</time>
      </trkpt>
      <trkpt lat="48.37316" lon="2.51956">
        <ele>70.3</ele>
        <time>2024-11-07T13:31:35Z</time>
      </trkpt>
      <trkpt lat="48.37329" lon="2.51978">
        <ele>70.5</ele>
        <time>2024-11-07T13:31:41Z</time>
      </trkpt>
      <trkpt lat="48.3734" lon="2.52001">
        <ele>70.5</ele>
        <time>2024-11-07T13:31:47Z</time>
      </trkpt>
      <trkpt lat="48.37358" lon="2.5201">
        <ele>71.4</ele>
        <time>2024-11-07T13:31:55Z</time>
      </trkpt>
      <trkpt lat="48.37376" lon="2.52022">
        <ele>72.3</ele>
        <time>2024-11-07T13:32:02Z</time>
      </trkpt>
      <trkpt lat="48.37393" lon="2.52034">
        <ele>72.7</ele>
        <time>2024-11-07T13:32:09Z</time>
      </trkpt>
      <trkpt lat="48.3741" lon="2.52045">
        <ele>72.5</ele>
        <time>2024-11-07T13:32:15Z</time>
      </trkpt>
      <trkpt lat="48.37428" lon="2.52055">
        <ele>72.4</ele>
        <time>2024-11-07T13:32:21Z</time>
      </trkpt>
      <trkpt lat="48.37446" lon="2.52063">
        <ele>72.5</ele>
        <time>2024-11-07T13:32:27Z</time>
      </trkpt>
      <trkpt lat="48.37464" lon="2.52067">
        <ele>72.5</ele>
        <time>2024-11-07T13:32:34Z</time>
      </trkpt>
      <trkpt lat="48.37483" lon="2.52071">
        <ele>72.6</ele>
        <time>2024-11-07T13:32:40Z</time>
      </trkpt>
      <trkpt lat="48.37502" lon="2.52075">
        <ele>72.6</ele>
        <time>2024-11-07T13:32:45Z</time>
      </trkpt>
      <trkpt lat="48.37521" lon="2.52079">
        <ele>72.2</ele>
        <time>2024-11-07T13:32:51Z</time>
      </trkpt>
      <trkpt lat="48.37533" lon="2.52057">
        <ele>73.1</ele>
        <time>2024-11-07T13:32:59Z</time>
      </trkpt>
      <trkpt lat="48.37543" lon="2.52033">
        <ele>74.7</ele>
        <time>2024-11-07T13:33:07Z</time>
      </trkpt>
      <trkpt lat="48.37554" lon="2.52009">
        <ele>76.4</ele>
        <time>2024-11-07T13:33:16Z</time>
      </trkpt>
      <trkpt lat="48.37573" lon="2.52013">
        <ele>76.4</ele>
        <time>2024-11-07T13:34:10Z</time>
      </trkpt>
      <trkpt lat="48.37588" lon="2.52033">
        <ele>75.7</ele>
        <time>2024-11-07T13:34:17Z</time>
      </trkpt>
      <trkpt lat="48.37602" lon="2.52054">
        <ele>74.7</ele>
        <time>2024-11-07T13:34:23Z</time>
      </trkpt>
      <trkpt lat="48.37619" lon="2.52066">
        <ele>74.4</ele>
        <time>2024-11-07T13:34:31Z</time>
      </trkpt>
      <trkpt lat="48.37626" lon="2.52038">
        <ele>75.6</ele>
        <time>2024-11-07T13:36:03Z</time>
      </trkpt>
      <trkpt lat="48.3762" lon="2.52011">
        <ele>76.6</ele>
        <time>2024-11-07T13:36:11Z</time>
      </trkpt>
      <trkpt lat="48.37618" lon="2.51981">
        <ele>77.8</ele>
        <time>2024-11-07T13:36:18Z</time>
      </trkpt>
      <trkpt lat="48.37612" lon="2.51953">
        <ele>78.1</ele>
        <time>2024-11-07T13:36:25Z</time>
      </trkpt>
      <trkpt lat="48.3761" lon="2.51924">
        <ele>78.7</ele>
        <time>2024-11-07T13:36:33Z</time>
      </trkpt>
      <trkpt lat="48.37605" lon="2.51896">
        <ele>79.2</ele>
        <time>2024-11-07T13:36:41Z</time>
      </trkpt>
      <trkpt lat="48.37606" lon="2.51869">
        <ele>79.2</ele>
        <time>2024-11-07T13:36:46Z</time>
      </trkpt>
      <trkpt lat="48.37607" lon="2.51839">
        <ele>78.5</ele>
        <time>2024-11-07T13:36:51Z</time>
      </trkpt>
      <trkpt lat="48.37611" lon="2.51812">
        <ele>76.5</ele>
        <time>2024-11-07T13:36:55Z</time>
      </trkpt>
      <trkpt lat="48.37616" lon="2.51784">
        <ele>75.3</ele>
        <time>2024-11-07T13:36:59Z</time>
      </trkpt>
      <trkpt lat="48.37623" lon="2.51758">
        <ele>74.3</ele>
        <time>2024-11-07T13:37:04Z</time>
      </trkpt>
      <trkpt lat="48.37629" lon="2.51728">
        <ele>72.7</ele>
        <time>2024-11-07T13:37:10Z</time>
      </trkpt>
      <trkpt lat="48.37634" lon="2.51699">
        <ele>71.3</ele>
        <time>2024-11-07T13:37:16Z</time>
      </trkpt>
      <trkpt lat="48.37645" lon="2.51672">
        <ele>70.2</ele>
        <time>2024-11-07T13:37:23Z</time>
      </trkpt>
      <trkpt lat="48.37653" lon="2.51646">
        <ele>69.3</ele>
        <time>2024-11-07T13:37:30Z</time>
      </trkpt>
      <trkpt lat="48.37656" lon="2.51615">
        <ele>69</ele>
        <time>2024-11-07T13:37:36Z</time>
      </trkpt>
      <trkpt lat="48.37662" lon="2.51589">
        <ele>68.2</ele>
        <time>2024-11-07T13:37:43Z</time>
      </trkpt>
      <trkpt lat="48.37676" lon="2.51571">
        <ele>68</ele>
        <time>2024-11-07T13:38:45Z</time>
      </trkpt>
      <trkpt lat="48.37691" lon="2.51593">
        <ele>68.4</ele>
        <time>2024-11-07T13:38:52Z</time>
      </trkpt>
      <trkpt lat="48.37706" lon="2.51612">
        <ele>68.6</ele>
        <time>2024-11-07T13:38:57Z</time>
      </trkpt>
      <trkpt lat="48.37725" lon="2.51618">
        <ele>68.2</ele>
        <time>2024-11-07T13:39:02Z</time>
      </trkpt>
      <trkpt lat="48.37745" lon="2.51629">
        <ele>68.1</ele>
        <time>2024-11-07T13:39:09Z</time>
      </trkpt>
      <trkpt lat="48.37759" lon="2.51648">
        <ele>67.7</ele>
        <time>2024-11-07T13:39:14Z</time>
      </trkpt>
      <trkpt lat="48.37775" lon="2.51662">
        <ele>67.1</ele>
        <time>2024-11-07T13:39:19Z</time>
      </trkpt>
      <trkpt lat="48.37786" lon="2.51688">
        <ele>67.5</ele>
        <time>2024-11-07T13:39:25Z</time>
      </trkpt>
      <trkpt lat="48.378" lon="2.51705">
        <ele>67.6</ele>
        <time>2024-11-07T13:39:31Z</time>
      </trkpt>
      <trkpt lat="48.37814" lon="2.51724">
        <ele>67.7</ele>
        <time>2024-11-07T13:39:37Z</time>
      </trkpt>
      <trkpt lat="48.37827" lon="2.51745">
        <ele>67.9</ele>
        <time>2024-11-07T13:39:43Z</time>
      </trkpt>
      <trkpt lat="48.37838" lon="2.51768">
        <ele>68.5</ele>
        <time>2024-11-07T13:39:49Z</time>
      </trkpt>
      <trkpt lat="48.37848" lon="2.51792">
        <ele>68.7</ele>
        <time>2024-11-07T13:39:55Z</time>
      </trkpt>
      <trkpt lat="48.37863" lon="2.5181">
        <ele>68.3</ele>
        <time>2024-11-07T13:40:01Z</time>
      </trkpt>
      <trkpt lat="48.37878" lon="2.5183">
        <ele>68.6</ele>
        <time>2024-11-07T13:40:07Z</time>
      </trkpt>
      <trkpt lat="48.37892" lon="2.5185">
        <ele>68.4</ele>
        <time>2024-11-07T13:40:13Z</time>
      </trkpt>
      <trkpt lat="48.37903" lon="2.51872">
        <ele>68.2</ele>
        <time>2024-11-07T13:40:18Z</time>
      </trkpt>
      <trkpt lat="48.37908" lon="2.51898">
        <ele>68.1</ele>
        <time>2024-11-07T13:40:24Z</time>
      </trkpt>
      <trkpt lat="48.37915" lon="2.51924">
        <ele>68.1</ele>
        <time>2024-11-07T13:40:30Z</time>
      </trkpt>
      <trkpt lat="48.37921" lon="2.51951">
        <ele>68.1</ele>
        <time>2024-11-07T13:40:36Z</time>
      </trkpt>
      <trkpt lat="48.37929" lon="2.51979">
        <ele>68.6</ele>
        <time>2024-11-07T13:40:42Z</time>
      </trkpt>
      <trkpt lat="48.37934" lon="2.52007">
        <ele>68.4</ele>
        <time>2024-11-07T13:40:47Z</time>
      </trkpt>
      <trkpt lat="48.37939" lon="2.52038">
        <ele>68.1</ele>
        <time>2024-11-07T13:40:53Z</time>
      </trkpt>
      <trkpt lat="48.37946" lon="2.52065">
        <ele>68</ele>
        <time>2024-11-07T13:40:58Z</time>
      </trkpt>
      <trkpt lat="48.37956" lon="2.52089">
        <ele>68.1</ele>
        <time>2024-11-07T13:41:03Z</time>
      </trkpt>
      <trkpt lat="48.37966" lon="2.52114">
        <ele>68.8</ele>
        <time>2024-11-07T13:41:08Z</time>
      </trkpt>
      <trkpt lat="48.37979" lon="2.52134">
        <ele>69</ele>
        <time>2024-11-07T13:41:13Z</time>
      </trkpt>
      <trkpt lat="48.37994" lon="2.52151">
        <ele>69</ele>
        <time>2024-11-07T13:41:18Z</time>
      </trkpt>
      <trkpt lat="48.38012" lon="2.52152">
        <ele>69</ele>
        <time>2024-11-07T13:41:27Z</time>
      </trkpt>
      <trkpt lat="48.3803" lon="2.52145">
        <ele>69</ele>
        <time>2024-11-07T13:41:35Z</time>
      </trkpt>
      <trkpt lat="48.38049" lon="2.52136">
        <ele>69</ele>
        <time>2024-11-07T13:41:42Z</time>
      </trkpt>
      <trkpt lat="48.38067" lon="2.52126">
        <ele>68.6</ele>
        <time>2024-11-07T13:41:48Z</time>
      </trkpt>
      <trkpt lat="48.38082" lon="2.5211">
        <ele>68</ele>
        <time>2024-11-07T13:41:54Z</time>
      </trkpt>
      <trkpt lat="48.38098" lon="2.52093">
        <ele>67.5</ele>
        <time>2024-11-07T13:42:00Z</time>
      </trkpt>
      <trkpt lat="48.38112" lon="2.52071">
        <ele>67</ele>
        <time>2024-11-07T13:42:06Z</time>
      </trkpt>
      <trkpt lat="48.3812" lon="2.52044">
        <ele>67</ele>
        <time>2024-11-07T13:42:12Z</time>
      </trkpt>
      <trkpt lat="48.38132" lon="2.5202">
        <ele>67</ele>
        <time>2024-11-07T13:42:18Z</time>
      </trkpt>
      <trkpt lat="48.38143" lon="2.51996">
        <ele>67</ele>
        <time>2024-11-07T13:42:26Z</time>
      </trkpt>
      <trkpt lat="48.38161" lon="2.51985">
        <ele>67.4</ele>
        <time>2024-11-07T13:42:50Z</time>
      </trkpt>
      <trkpt lat="48.38182" lon="2.51984">
        <ele>68.1</ele>
        <time>2024-11-07T13:42:58Z</time>
      </trkpt>
      <trkpt lat="48.38199" lon="2.51989">
        <ele>68.6</ele>
        <time>2024-11-07T13:43:05Z</time>
      </trkpt>
      <trkpt lat="48.38219" lon="2.51981">
        <ele>70.2</ele>
        <time>2024-11-07T13:43:13Z</time>
      </trkpt>
      <trkpt lat="48.38235" lon="2.51963">
        <ele>72.1</ele>
        <time>2024-11-07T13:43:22Z</time>
      </trkpt>
      <trkpt lat="48.38252" lon="2.51949">
        <ele>73.7</ele>
        <time>2024-11-07T13:43:32Z</time>
      </trkpt>
      <trkpt lat="48.38269" lon="2.51938">
        <ele>74.6</ele>
        <time>2024-11-07T13:43:42Z</time>
      </trkpt>
      <trkpt lat="48.38286" lon="2.51926">
        <ele>75.7</ele>
        <time>2024-11-07T13:43:52Z</time>
      </trkpt>
      <trkpt lat="48.38303" lon="2.51915">
        <ele>77</ele>
        <time>2024-11-07T13:44:01Z</time>
      </trkpt>
      <trkpt lat="48.38322" lon="2.51915">
        <ele>78.3</ele>
        <time>2024-11-07T13:44:11Z</time>
      </trkpt>
      <trkpt lat="48.38341" lon="2.51909">
        <ele>79.7</ele>
        <time>2024-11-07T13:44:21Z</time>
      </trkpt>
      <trkpt lat="48.38358" lon="2.51892">
        <ele>80.1</ele>
        <time>2024-11-07T13:44:29Z</time>
      </trkpt>
      <trkpt lat="48.38375" lon="2.51876">
        <ele>79.5</ele>
        <time>2024-11-07T13:44:37Z</time>
      </trkpt>
      <trkpt lat="48.3839" lon="2.51858">
        <ele>78.2</ele>
        <time>2024-11-07T13:44:44Z</time>
      </trkpt>
      <trkpt lat="48.38402" lon="2.51834">
        <ele>78.5</ele>
        <time>2024-11-07T13:44:50Z</time>
      </trkpt>
      <trkpt lat="48.38413" lon="2.51812">
        <ele>77.7</ele>
        <time>2024-11-07T13:44:55Z</time>
      </trkpt>
      <trkpt lat="48.38423" lon="2.51789">
        <ele>76.3</ele>
        <time>2024-11-07T13:45:00Z</time>
      </trkpt>
      <trkpt lat="48.38435" lon="2.51761">
        <ele>75.2</ele>
        <time>2024-11-07T13:45:05Z</time>
      </trkpt>
      <trkpt lat="48.38446" lon="2.51738">
        <ele>74.1</ele>
        <time>2024-11-07T13:45:09Z</time>
      </trkpt>
      <trkpt lat="48.3846" lon="2.51716">
        <ele>73.9</ele>
        <time>2024-11-07T13:45:13Z</time>
      </trkpt>
      <trkpt lat="48.38472" lon="2.51691">
        <ele>72.9</ele>
        <time>2024-11-07T13:45:17Z</time>
      </trkpt>
      <trkpt lat="48.38483" lon="2.51668">
        <ele>72.1</ele>
        <time>2024-11-07T13:45:21Z</time>
      </trkpt>
      <trkpt lat="48.38495" lon="2.51642">
        <ele>71.3</ele>
        <time>2024-11-07T13:45:26Z</time>
      </trkpt>
      <trkpt lat="48.38504" lon="2.51615">
        <ele>71</ele>
        <time>2024-11-07T13:45:31Z</time>
      </trkpt>
      <trkpt lat="48.3851" lon="2.5159">
        <ele>70.2</ele>
        <time>2024-11-07T13:45:36Z</time>
      </trkpt>
      <trkpt lat="48.3852" lon="2.51563">
        <ele>70</ele>
        <time>2024-11-07T13:45:42Z</time>
      </trkpt>
      <trkpt lat="48.38528" lon="2.51536">
        <ele>69.3</ele>
        <time>2024-11-07T13:45:48Z</time>
      </trkpt>
      <trkpt lat="48.38541" lon="2.51513">
        <ele>69</ele>
        <time>2024-11-07T13:45:54Z</time>
      </trkpt>
      <trkpt lat="48.38547" lon="2.51539">
        <ele>69.1</ele>
        <time>2024-11-07T13:46:14Z</time>
      </trkpt>
      <trkpt lat="48.38564" lon="2.51559">
        <ele>69.1</ele>
        <time>2024-11-07T13:46:20Z</time>
      </trkpt>
      <trkpt lat="48.38578" lon="2.51583">
        <ele>69.2</ele>
        <time>2024-11-07T13:46:26Z</time>
      </trkpt>
      <trkpt lat="48.38595" lon="2.51602">
        <ele>69.7</ele>
        <time>2024-11-07T13:46:32Z</time>
      </trkpt>
      <trkpt lat="48.3861" lon="2.51621">
        <ele>70.4</ele>
        <time>2024-11-07T13:46:37Z</time>
      </trkpt>
      <trkpt lat="48.38625" lon="2.51636">
        <ele>70.4</ele>
        <time>2024-11-07T13:46:42Z</time>
      </trkpt>
      <trkpt lat="48.38644" lon="2.51627">
        <ele>69.6</ele>
        <time>2024-11-07T13:46:49Z</time>
      </trkpt>
      <trkpt lat="48.38664" lon="2.51632">
        <ele>69.7</ele>
        <time>2024-11-07T13:46:54Z</time>
      </trkpt>
      <trkpt lat="48.38676" lon="2.51659">
        <ele>69.7</ele>
        <time>2024-11-07T13:47:00Z</time>
      </trkpt>
      <trkpt lat="48.38689" lon="2.51679">
        <ele>69.6</ele>
        <time>2024-11-07T13:47:05Z</time>
      </trkpt>
      <trkpt lat="48.38708" lon="2.51692">
        <ele>69.5</ele>
        <time>2024-11-07T13:47:10Z</time>
      </trkpt>
      <trkpt lat="48.38723" lon="2.51713">
        <ele>69</ele>
        <time>2024-11-07T13:47:15Z</time>
      </trkpt>
      <trkpt lat="48.38738" lon="2.51735">
        <ele>68.4</ele>
        <time>2024-11-07T13:47:20Z</time>
      </trkpt>
      <trkpt lat="48.38749" lon="2.51761">
        <ele>68</ele>
        <time>2024-11-07T13:47:25Z</time>
      </trkpt>
      <trkpt lat="48.38755" lon="2.51792">
        <ele>68</ele>
        <time>2024-11-07T13:47:31Z</time>
      </trkpt>
      <trkpt lat="48.38762" lon="2.5182">
        <ele>68</ele>
        <time>2024-11-07T13:47:36Z</time>
      </trkpt>
      <trkpt lat="48.38761" lon="2.51848">
        <ele>68</ele>
        <time>2024-11-07T13:47:41Z</time>
      </trkpt>
      <trkpt lat="48.38751" lon="2.51876">
        <ele>68</ele>
        <time>2024-11-07T13:47:47Z</time>
      </trkpt>
      <trkpt lat="48.38755" lon="2.51903">
        <ele>68.5</ele>
        <time>2024-11-07T13:49:27Z</time>
      </trkpt>
      <trkpt lat="48.38757" lon="2.51931">
        <ele>69</ele>
        <time>2024-11-07T13:49:34Z</time>
      </trkpt>
      <trkpt lat="48.38759" lon="2.51961">
        <ele>69.6</ele>
        <time>2024-11-07T13:49:41Z</time>
      </trkpt>
      <trkpt lat="48.38769" lon="2.51987">
        <ele>70.5</ele>
        <time>2024-11-07T13:49:49Z</time>
      </trkpt>
      <trkpt lat="48.38777" lon="2.52012">
        <ele>71.4</ele>
        <time>2024-11-07T13:49:58Z</time>
      </trkpt>
      <trkpt lat="48.38788" lon="2.51988">
        <ele>70.6</ele>
        <time>2024-11-07T13:50:12Z</time>
      </trkpt>
      <trkpt lat="48.38806" lon="2.51977">
        <ele>70.2</ele>
        <time>2024-11-07T13:50:20Z</time>
      </trkpt>
      <trkpt lat="48.38827" lon="2.51971">
        <ele>70</ele>
        <time>2024-11-07T13:50:27Z</time>
      </trkpt>
      <trkpt lat="48.38847" lon="2.51965">
        <ele>70.4</ele>
        <time>2024-11-07T13:50:33Z</time>
      </trkpt>
      <trkpt lat="48.38867" lon="2.51965">
        <ele>70.8</ele>
        <time>2024-11-07T13:50:40Z</time>
      </trkpt>
      <trkpt lat="48.38884" lon="2.51953">
        <ele>70.9</ele>
        <time>2024-11-07T13:51:20Z</time>
      </trkpt>
      <trkpt lat="48.38891" lon="2.51924">
        <ele>70.3</ele>
        <time>2024-11-07T13:51:31Z</time>
      </trkpt>
      <trkpt lat="48.38908" lon="2.5191">
        <ele>70.7</ele>
        <time>2024-11-07T13:51:37Z</time>
      </trkpt>
      <trkpt lat="48.38922" lon="2.51889">
        <ele>71</ele>
        <time>2024-11-07T13:51:43Z</time>
      </trkpt>
      <trkpt lat="48.3894" lon="2.51881">
        <ele>70.7</ele>
        <time>2024-11-07T13:51:49Z</time>
      </trkpt>
      <trkpt lat="48.38958" lon="2.51873">
        <ele>70.7</ele>
        <time>2024-11-07T13:51:55Z</time>
      </trkpt>
      <trkpt lat="48.38969" lon="2.51851">
        <ele>70.6</ele>
        <time>2024-11-07T13:52:01Z</time>
      </trkpt>
      <trkpt lat="48.38983" lon="2.51873">
        <ele>71</ele>
        <time>2024-11-07T13:52:07Z</time>
      </trkpt>
      <trkpt lat="48.38998" lon="2.51892">
        <ele>71.1</ele>
        <time>2024-11-07T13:52:13Z</time>
      </trkpt>
      <trkpt lat="48.39018" lon="2.51893">
        <ele>71.7</ele>
        <time>2024-11-07T13:52:29Z</time>
      </trkpt>
      <trkpt lat="48.39032" lon="2.51876">
        <ele>71.6</ele>
        <time>2024-11-07T13:52:35Z</time>
      </trkpt>
      <trkpt lat="48.39048" lon="2.51857">
        <ele>71.6</ele>
        <time>2024-11-07T13:52:42Z</time>
      </trkpt>
      <trkpt lat="48.39064" lon="2.5184">
        <ele>71.5</ele>
        <time>2024-11-07T13:52:48Z</time>
      </trkpt>
      <trkpt lat="48.3908" lon="2.51825">
        <ele>71.6</ele>
        <time>2024-11-07T13:52:54Z</time>
      </trkpt>
      <trkpt lat="48.39096" lon="2.51813">
        <ele>71.7</ele>
        <time>2024-11-07T13:53:00Z</time>
      </trkpt>
      <trkpt lat="48.3911" lon="2.51795">
        <ele>72</ele>
        <time>2024-11-07T13:53:06Z</time>
      </trkpt>
      <trkpt lat="48.39121" lon="2.51773">
        <ele>72.6</ele>
        <time>2024-11-07T13:53:12Z</time>
      </trkpt>
      <trkpt lat="48.39132" lon="2.5175">
        <ele>72.5</ele>
        <time>2024-11-07T13:53:18Z</time>
      </trkpt>
      <trkpt lat="48.39141" lon="2.51723">
        <ele>72.3</ele>
        <time>2024-11-07T13:53:24Z</time>
      </trkpt>
      <trkpt lat="48.39147" lon="2.51697">
        <ele>72.6</ele>
        <time>2024-11-07T13:53:29Z</time>
      </trkpt>
      <trkpt lat="48.39157" lon="2.51674">
        <ele>72.9</ele>
        <time>2024-11-07T13:53:33Z</time>
      </trkpt>
      <trkpt lat="48.39175" lon="2.51659">
        <ele>73</ele>
        <time>2024-11-07T13:53:38Z</time>
      </trkpt>
      <trkpt lat="48.39196" lon="2.51649">
        <ele>73.4</ele>
        <time>2024-11-07T13:53:44Z</time>
      </trkpt>
      <trkpt lat="48.39215" lon="2.51646">
        <ele>73.5</ele>
        <time>2024-11-07T13:53:49Z</time>
      </trkpt>
      <trkpt lat="48.3923" lon="2.5163">
        <ele>73.2</ele>
        <time>2024-11-07T13:53:54Z</time>
      </trkpt>
      <trkpt lat="48.39245" lon="2.51608">
        <ele>72.7</ele>
        <time>2024-11-07T13:53:59Z</time>
      </trkpt>
      <trkpt lat="48.39257" lon="2.51582">
        <ele>72.2</ele>
        <time>2024-11-07T13:54:04Z</time>
      </trkpt>
      <trkpt lat="48.39263" lon="2.51557">
        <ele>71.5</ele>
        <time>2024-11-07T13:54:09Z</time>
      </trkpt>
      <trkpt lat="48.39262" lon="2.51529">
        <ele>71</ele>
        <time>2024-11-07T13:54:14Z</time>
      </trkpt>
      <trkpt lat="48.39274" lon="2.51501">
        <ele>70.9</ele>
        <time>2024-11-07T13:54:20Z</time>
      </trkpt>
      <trkpt lat="48.39285" lon="2.51479">
        <ele>70.7</ele>
        <time>2024-11-07T13:54:25Z</time>
      </trkpt>
      <trkpt lat="48.39294" lon="2.51451">
        <ele>70.7</ele>
        <time>2024-11-07T13:54:30Z</time>
      </trkpt>
      <trkpt lat="48.39304" lon="2.51426">
        <ele>70.9</ele>
        <time>2024-11-07T13:54:35Z</time>
      </trkpt>
      <trkpt lat="48.39315" lon="2.51402">
        <ele>71.1</ele>
        <time>2024-11-07T13:54:40Z</time>
      </trkpt>
      <trkpt lat="48.39332" lon="2.51384">
        <ele>71.8</ele>
        <time>2024-11-07T13:54:46Z</time>
      </trkpt>
      <trkpt lat="48.39353" lon="2.51378">
        <ele>74.1</ele>
        <time>2024-11-07T13:54:53Z</time>
      </trkpt>
      <trkpt lat="48.39369" lon="2.51366">
        <ele>75.6</ele>
        <time>2024-11-07T13:55:01Z</time>
      </trkpt>
      <trkpt lat="48.39388" lon="2.51371">
        <ele>78.7</ele>
        <time>2024-11-07T13:55:09Z</time>
      </trkpt>
      <trkpt lat="48.39406" lon="2.51375">
        <ele>79.3</ele>
        <time>2024-11-07T13:55:17Z</time>
      </trkpt>
      <trkpt lat="48.39425" lon="2.51378">
        <ele>79.3</ele>
        <time>2024-11-07T13:55:24Z</time>
      </trkpt>
      <trkpt lat="48.39443" lon="2.51388">
        <ele>79</ele>
        <time>2024-11-07T13:55:32Z</time>
      </trkpt>
      <trkpt lat="48.39461" lon="2.51401">
        <ele>80.6</ele>
        <time>2024-11-07T13:55:42Z</time>
      </trkpt>
      <trkpt lat="48.39479" lon="2.51402">
        <ele>81.1</ele>
        <time>2024-11-07T13:56:10Z</time>
      </trkpt>
      <trkpt lat="48.39492" lon="2.5142">
        <ele>82.3</ele>
        <time>2024-11-07T13:56:36Z</time>
      </trkpt>
      <trkpt lat="48.39512" lon="2.51417">
        <ele>81.1</ele>
        <time>2024-11-07T13:56:58Z</time>
      </trkpt>
      <trkpt lat="48.3953" lon="2.51423">
        <ele>80</ele>
        <time>2024-11-07T13:57:05Z</time>
      </trkpt>
      <trkpt lat="48.39549" lon="2.51434">
        <ele>78.1</ele>
        <time>2024-11-07T13:57:11Z</time>
      </trkpt>
      <trkpt lat="48.39539" lon="2.51459">
        <ele>80.8</ele>
        <time>2024-11-07T13:57:23Z</time>
      </trkpt>
      <trkpt lat="48.39529" lon="2.51484">
        <ele>82.4</ele>
        <time>2024-11-07T13:57:35Z</time>
      </trkpt>
      <trkpt lat="48.39527" lon="2.51511">
        <ele>83.8</ele>
        <time>2024-11-07T13:57:48Z</time>
      </trkpt>
      <trkpt lat="48.39523" lon="2.51538">
        <ele>85.7</ele>
        <time>2024-11-07T13:58:02Z</time>
      </trkpt>
      <trkpt lat="48.39521" lon="2.51566">
        <ele>87</ele>
        <time>2024-11-07T13:58:16Z</time>
      </trkpt>
      <trkpt lat="48.39523" lon="2.51594">
        <ele>87.9</ele>
        <time>2024-11-07T13:58:26Z</time>
      </trkpt>
      <trkpt lat="48.39523" lon="2.51625">
        <ele>88.5</ele>
        <time>2024-11-07T13:58:33Z</time>
      </trkpt>
      <trkpt lat="48.39521" lon="2.51654">
        <ele>89</ele>
        <time>2024-11-07T13:58:38Z</time>
      </trkpt>
      <trkpt lat="48.39516" lon="2.51686">
        <ele>89.5</ele>
        <time>2024-11-07T13:58:44Z</time>
      </trkpt>
      <trkpt lat="48.39514" lon="2.51718">
        <ele>90.3</ele>
        <time>2024-11-07T13:58:50Z</time>
      </trkpt>
      <trkpt lat="48.39511" lon="2.51747">
        <ele>92</ele>
        <time>2024-11-07T13:58:56Z</time>
      </trkpt>
      <trkpt lat="48.39517" lon="2.51775">
        <ele>94.6</ele>
        <time>2024-11-07T13:59:07Z</time>
      </trkpt>
      <trkpt lat="48.39512" lon="2.51802">
        <ele>96.3</ele>
        <time>2024-11-07T13:59:16Z</time>
      </trkpt>
      <trkpt lat="48.39505" lon="2.51828">
        <ele>96.8</ele>
        <time>2024-11-07T13:59:26Z</time>
      </trkpt>
      <trkpt lat="48.39502" lon="2.51858">
        <ele>98.2</ele>
        <time>2024-11-07T13:59:36Z</time>
      </trkpt>
      <trkpt lat="48.39494" lon="2.51882">
        <ele>99</ele>
        <time>2024-11-07T13:59:44Z</time>
      </trkpt>
      <trkpt lat="48.39483" lon="2.51906">
        <ele>100</ele>
        <time>2024-11-07T13:59:53Z</time>
      </trkpt>
      <trkpt lat="48.39472" lon="2.51932">
        <ele>99.6</ele>
        <time>2024-11-07T14:00:02Z</time>
      </trkpt>
      <trkpt lat="48.39461" lon="2.51957">
        <ele>101.2</ele>
        <time>2024-11-07T14:00:10Z</time>
      </trkpt>
      <trkpt lat="48.39452" lon="2.51983">
        <ele>101.5</ele>
        <time>2024-11-07T14:00:18Z</time>
      </trkpt>
      <trkpt lat="48.39444" lon="2.5201">
        <ele>101.5</ele>
        <time>2024-11-07T14:00:26Z</time>
      </trkpt>
      <trkpt lat="48.39438" lon="2.52036">
        <ele>104.1</ele>
        <time>2024-11-07T14:00:34Z</time>
      </trkpt>
      <trkpt lat="48.3944" lon="2.52063">
        <ele>105</ele>
        <time>2024-11-07T14:00:41Z</time>
      </trkpt>
      <trkpt lat="48.39441" lon="2.52092">
        <ele>105.9</ele>
        <time>2024-11-07T14:00:49Z</time>
      </trkpt>
      <trkpt lat="48.39435" lon="2.52118">
        <ele>108</ele>
        <time>2024-11-07T14:00:59Z</time>
      </trkpt>
      <trkpt lat="48.39433" lon="2.52145">
        <ele>109.3</ele>
        <time>2024-11-07T14:01:08Z</time>
      </trkpt>
      <trkpt lat="48.39431" lon="2.52172">
        <ele>110.6</ele>
        <time>2024-11-07T14:01:16Z</time>
      </trkpt>
      <trkpt lat="48.39426" lon="2.52202">
        <ele>111</ele>
        <time>2024-11-07T14:01:24Z</time>
      </trkpt>
      <trkpt lat="48.39419" lon="2.52228">
        <ele>111.4</ele>
        <time>2024-11-07T14:01:32Z</time>
      </trkpt>
      <trkpt lat="48.39418" lon="2.52255">
        <ele>111.9</ele>
        <time>2024-11-07T14:01:45Z</time>
      </trkpt>
      <trkpt lat="48.39412" lon="2.52229">
        <ele>111.4</ele>
        <time>2024-11-07T14:03:46Z</time>
      </trkpt>
      <trkpt lat="48.39394" lon="2.52224">
        <ele>111.9</ele>
        <time>2024-11-07T14:03:57Z</time>
      </trkpt>
      <trkpt lat="48.39382" lon="2.52244">
        <ele>111.7</ele>
        <time>2024-11-07T14:04:11Z</time>
      </trkpt>
      <trkpt lat="48.39374" lon="2.52269">
        <ele>111.3</ele>
        <time>2024-11-07T14:04:40Z</time>
      </trkpt>
      <trkpt lat="48.3937" lon="2.52297">
        <ele>111.8</ele>
        <time>2024-11-07T14:04:59Z</time>
      </trkpt>
      <trkpt lat="48.39368" lon="2.52324">
        <ele>111.4</ele>
        <time>2024-11-07T14:05:36Z</time>
      </trkpt>
      <trkpt lat="48.39365" lon="2.52352">
        <ele>110.3</ele>
        <time>2024-11-07T14:05:47Z</time>
      </trkpt>
      <trkpt lat="48.39366" lon="2.52381">
        <ele>107.4</ele>
        <time>2024-11-07T14:06:38Z</time>
      </trkpt>
      <trkpt lat="48.39359" lon="2.52408">
        <ele>103.6</ele>
        <time>2024-11-07T14:06:45Z</time>
      </trkpt>
      <trkpt lat="48.39369" lon="2.52434">
        <ele>105</ele>
        <time>2024-11-07T14:06:53Z</time>
      </trkpt>
      <trkpt lat="48.3938" lon="2.52459">
        <ele>107.4</ele>
        <time>2024-11-07T14:07:01Z</time>
      </trkpt>
      <trkpt lat="48.39376" lon="2.5249">
        <ele>107.5</ele>
        <time>2024-11-07T14:07:09Z</time>
      </trkpt>
      <trkpt lat="48.39375" lon="2.52518">
        <ele>105.7</ele>
        <time>2024-11-07T14:07:16Z</time>
      </trkpt>
      <trkpt lat="48.3936" lon="2.52534">
        <ele>100.7</ele>
        <time>2024-11-07T14:07:55Z</time>
      </trkpt>
      <trkpt lat="48.39348" lon="2.52553">
        <ele>99.5</ele>
        <time>2024-11-07T14:08:04Z</time>
      </trkpt>
      <trkpt lat="48.39352" lon="2.5258">
        <ele>101.4</ele>
        <time>2024-11-07T14:08:13Z</time>
      </trkpt>
      <trkpt lat="48.39354" lon="2.52608">
        <ele>103.8</ele>
        <time>2024-11-07T14:08:22Z</time>
      </trkpt>
      <trkpt lat="48.39355" lon="2.52637">
        <ele>105.6</ele>
        <time>2024-11-07T14:08:32Z</time>
      </trkpt>
      <trkpt lat="48.39352" lon="2.52666">
        <ele>106</ele>
        <time>2024-11-07T14:08:43Z</time>
      </trkpt>
      <trkpt lat="48.39349" lon="2.52694">
        <ele>105.5</ele>
        <time>2024-11-07T14:08:55Z</time>
      </trkpt>
      <trkpt lat="48.39346" lon="2.52722">
        <ele>107</ele>
        <time>2024-11-07T14:09:35Z</time>
      </trkpt>
      <trkpt lat="48.39335" lon="2.52746">
        <ele>107.9</ele>
        <time>2024-11-07T14:09:45Z</time>
      </trkpt>
      <trkpt lat="48.39329" lon="2.52773">
        <ele>110</ele>
        <time>2024-11-07T14:09:55Z</time>
      </trkpt>
      <trkpt lat="48.39324" lon="2.52801">
        <ele>111.2</ele>
        <time>2024-11-07T14:10:20Z</time>
      </trkpt>
      <trkpt lat="48.39317" lon="2.52829">
        <ele>112.8</ele>
        <time>2024-11-07T14:10:30Z</time>
      </trkpt>
      <trkpt lat="48.39305" lon="2.5285">
        <ele>114.2</ele>
        <time>2024-11-07T14:10:42Z</time>
      </trkpt>
      <trkpt lat="48.39295" lon="2.52873">
        <ele>116.3</ele>
        <time>2024-11-07T14:10:56Z</time>
      </trkpt>
      <trkpt lat="48.39287" lon="2.52898">
        <ele>117.5</ele>
        <time>2024-11-07T14:11:09Z</time>
      </trkpt>
      <trkpt lat="48.39278" lon="2.52924">
        <ele>118.3</ele>
        <time>2024-11-07T14:11:21Z</time>
      </trkpt>
      <trkpt lat="48.39294" lon="2.5294">
        <ele>119.4</ele>
        <time>2024-11-07T14:11:39Z</time>
      </trkpt>
      <trkpt lat="48.39312" lon="2.52928">
        <ele>119.5</ele>
        <time>2024-11-07T14:11:47Z</time>
      </trkpt>
      <trkpt lat="48.39329" lon="2.52919">
        <ele>119.9</ele>
        <time>2024-11-07T14:11:53Z</time>
      </trkpt>
      <trkpt lat="48.39347" lon="2.5292">
        <ele>120.1</ele>
        <time>2024-11-07T14:11:59Z</time>
      </trkpt>
      <trkpt lat="48.39365" lon="2.52904">
        <ele>119.7</ele>
        <time>2024-11-07T14:12:05Z</time>
      </trkpt>
      <trkpt lat="48.39376" lon="2.52883">
        <ele>119.3</ele>
        <time>2024-11-07T14:12:10Z</time>
      </trkpt>
      <trkpt lat="48.3939" lon="2.5286">
        <ele>118.9</ele>
        <time>2024-11-07T14:12:15Z</time>
      </trkpt>
      <trkpt lat="48.39405" lon="2.52835">
        <ele>118.6</ele>
        <time>2024-11-07T14:12:20Z</time>
      </trkpt>
      <trkpt lat="48.39419" lon="2.52809">
        <ele>118.2</ele>
        <time>2024-11-07T14:12:25Z</time>
      </trkpt>
      <trkpt lat="48.39433" lon="2.52784">
        <ele>117.8</ele>
        <time>2024-11-07T14:12:30Z</time>
      </trkpt>
      <trkpt lat="48.39446" lon="2.52764">
        <ele>118.1</ele>
        <time>2024-11-07T14:12:35Z</time>
      </trkpt>
      <trkpt lat="48.39463" lon="2.52754">
        <ele>118.7</ele>
        <time>2024-11-07T14:12:41Z</time>
      </trkpt>
      <trkpt lat="48.39484" lon="2.52757">
        <ele>119.1</ele>
        <time>2024-11-07T14:12:47Z</time>
      </trkpt>
      <trkpt lat="48.39502" lon="2.52764">
        <ele>119.5</ele>
        <time>2024-11-07T14:12:52Z</time>
      </trkpt>
      <trkpt lat="48.39522" lon="2.52766">
        <ele>119.1</ele>
        <time>2024-11-07T14:12:57Z</time>
      </trkpt>
      <trkpt lat="48.39543" lon="2.52764">
        <ele>117.9</ele>
        <time>2024-11-07T14:13:02Z</time>
      </trkpt>
      <trkpt lat="48.39562" lon="2.5275">
        <ele>115.6</ele>
        <time>2024-11-07T14:13:06Z</time>
      </trkpt>
      <trkpt lat="48.39582" lon="2.52732">
        <ele>112.5</ele>
        <time>2024-11-07T14:13:10Z</time>
      </trkpt>
      <trkpt lat="48.39591" lon="2.52706">
        <ele>111.5</ele>
        <time>2024-11-07T14:13:14Z</time>
      </trkpt>
      <trkpt lat="48.39597" lon="2.52674">
        <ele>110.6</ele>
        <time>2024-11-07T14:13:18Z</time>
      </trkpt>
      <trkpt lat="48.39601" lon="2.52647">
        <ele>109.6</ele>
        <time>2024-11-07T14:13:21Z</time>
      </trkpt>
      <trkpt lat="48.39605" lon="2.52617">
        <ele>108.9</ele>
        <time>2024-11-07T14:13:24Z</time>
      </trkpt>
      <trkpt lat="48.39611" lon="2.52587">
        <ele>107.2</ele>
        <time>2024-11-07T14:13:27Z</time>
      </trkpt>
      <trkpt lat="48.39617" lon="2.52554">
        <ele>105.5</ele>
        <time>2024-11-07T14:13:30Z</time>
      </trkpt>
      <trkpt lat="48.39626" lon="2.52519">
        <ele>103.8</ele>
        <time>2024-11-07T14:13:33Z</time>
      </trkpt>
      <trkpt lat="48.39636" lon="2.52485">
        <ele>101.4</ele>
        <time>2024-11-07T14:13:36Z</time>
      </trkpt>
      <trkpt lat="48.39647" lon="2.5245">
        <ele>100</ele>
        <time>2024-11-07T14:13:39Z</time>
      </trkpt>
      <trkpt lat="48.39659" lon="2.52421">
        <ele>97.8</ele>
        <time>2024-11-07T14:13:42Z</time>
      </trkpt>
      <trkpt lat="48.3967" lon="2.52394">
        <ele>95.6</ele>
        <time>2024-11-07T14:13:45Z</time>
      </trkpt>
      <trkpt lat="48.3968" lon="2.52363">
        <ele>93.6</ele>
        <time>2024-11-07T14:13:48Z</time>
      </trkpt>
      <trkpt lat="48.3969" lon="2.52331">
        <ele>91.7</ele>
        <time>2024-11-07T14:13:51Z</time>
      </trkpt>
      <trkpt lat="48.39698" lon="2.523">
        <ele>90.3</ele>
        <time>2024-11-07T14:13:54Z</time>
      </trkpt>
      <trkpt lat="48.39708" lon="2.52273">
        <ele>90.9</ele>
        <time>2024-11-07T14:13:57Z</time>
      </trkpt>
      <trkpt lat="48.39718" lon="2.52247">
        <ele>90.1</ele>
        <time>2024-11-07T14:14:00Z</time>
      </trkpt>
      <trkpt lat="48.39721" lon="2.52218">
        <ele>89.1</ele>
        <time>2024-11-07T14:14:03Z</time>
      </trkpt>
      <trkpt lat="48.39724" lon="2.52191">
        <ele>89.1</ele>
        <time>2024-11-07T14:14:06Z</time>
      </trkpt>
      <trkpt lat="48.39731" lon="2.52159">
        <ele>88.7</ele>
        <time>2024-11-07T14:14:10Z</time>
      </trkpt>
      <trkpt lat="48.39735" lon="2.52127">
        <ele>88</ele>
        <time>2024-11-07T14:14:14Z</time>
      </trkpt>
      <trkpt lat="48.3974" lon="2.52099">
        <ele>87.5</ele>
        <time>2024-11-07T14:14:18Z</time>
      </trkpt>
      <trkpt lat="48.39744" lon="2.52071">
        <ele>87</ele>
        <time>2024-11-07T14:14:22Z</time>
      </trkpt>
      <trkpt lat="48.3975" lon="2.5204">
        <ele>86</ele>
        <time>2024-11-07T14:14:27Z</time>
      </trkpt>
      <trkpt lat="48.39756" lon="2.52009">
        <ele>86</ele>
        <time>2024-11-07T14:14:32Z</time>
      </trkpt>
      <trkpt lat="48.39767" lon="2.5198">
        <ele>84.8</ele>
        <time>2024-11-07T14:14:37Z</time>
      </trkpt>
      <trkpt lat="48.39788" lon="2.51969">
        <ele>83</ele>
        <time>2024-11-07T14:14:42Z</time>
      </trkpt>
      <trkpt lat="48.39808" lon="2.51958">
        <ele>82.6</ele>
        <time>2024-11-07T14:14:47Z</time>
      </trkpt>
      <trkpt lat="48.39825" lon="2.51945">
        <ele>82.1</ele>
        <time>2024-11-07T14:14:51Z</time>
      </trkpt>
      <trkpt lat="48.39837" lon="2.51919">
        <ele>80.4</ele>
        <time>2024-11-07T14:14:55Z</time>
      </trkpt>
      <trkpt lat="48.39848" lon="2.51891">
        <ele>79.2</ele>
        <time>2024-11-07T14:14:59Z</time>
      </trkpt>
      <trkpt lat="48.39864" lon="2.51869">
        <ele>78.2</ele>
        <time>2024-11-07T14:15:03Z</time>
      </trkpt>
      <trkpt lat="48.39884" lon="2.51861">
        <ele>77.2</ele>
        <time>2024-11-07T14:15:07Z</time>
      </trkpt>
      <trkpt lat="48.39903" lon="2.51851">
        <ele>76.3</ele>
        <time>2024-11-07T14:15:13Z</time>
      </trkpt>
      <trkpt lat="48.39913" lon="2.51829">
        <ele>75.9</ele>
        <time>2024-11-07T14:15:19Z</time>
      </trkpt>
      <trkpt lat="48.39922" lon="2.51805">
        <ele>74.8</ele>
        <time>2024-11-07T14:15:23Z</time>
      </trkpt>
      <trkpt lat="48.39931" lon="2.5178">
        <ele>74.5</ele>
        <time>2024-11-07T14:15:28Z</time>
      </trkpt>
      <trkpt lat="48.39939" lon="2.51753">
        <ele>74</ele>
        <time>2024-11-07T14:15:34Z</time>
      </trkpt>
      <trkpt lat="48.39948" lon="2.51727">
        <ele>73.1</ele>
        <time>2024-11-07T14:15:40Z</time>
      </trkpt>
      <trkpt lat="48.39956" lon="2.51703">
        <ele>72.7</ele>
        <time>2024-11-07T14:15:46Z</time>
      </trkpt>
      <trkpt lat="48.39974" lon="2.51713">
        <ele>72.6</ele>
        <time>2024-11-07T14:15:56Z</time>
      </trkpt>
      <trkpt lat="48.39985" lon="2.51737">
        <ele>72.8</ele>
        <time>2024-11-07T14:16:06Z</time>
      </trkpt>
      <trkpt lat="48.39996" lon="2.51759">
        <ele>73</ele>
        <time>2024-11-07T14:17:25Z</time>
      </trkpt>
      <trkpt lat="48.40008" lon="2.5178">
        <ele>72.7</ele>
        <time>2024-11-07T14:17:30Z</time>
      </trkpt>
      <trkpt lat="48.40022" lon="2.51804">
        <ele>73</ele>
        <time>2024-11-07T14:17:35Z</time>
      </trkpt>
      <trkpt lat="48.40036" lon="2.5183">
        <ele>72.7</ele>
        <time>2024-11-07T14:17:40Z</time>
      </trkpt>
      <trkpt lat="48.40048" lon="2.51853">
        <ele>72.8</ele>
        <time>2024-11-07T14:17:44Z</time>
      </trkpt>
      <trkpt lat="48.40062" lon="2.51876">
        <ele>72.8</ele>
        <time>2024-11-07T14:17:48Z</time>
      </trkpt>
      <trkpt lat="48.40075" lon="2.51902">
        <ele>72.6</ele>
        <time>2024-11-07T14:17:52Z</time>
      </trkpt>
      <trkpt lat="48.4009" lon="2.51927">
        <ele>72.8</ele>
        <time>2024-11-07T14:17:56Z</time>
      </trkpt>
      <trkpt lat="48.40101" lon="2.51949">
        <ele>72.4</ele>
        <time>2024-11-07T14:17:59Z</time>
      </trkpt>
      <trkpt lat="48.40113" lon="2.51971">
        <ele>72</ele>
        <time>2024-11-07T14:18:02Z</time>
      </trkpt>
      <trkpt lat="48.40125" lon="2.51993">
        <ele>72</ele>
        <time>2024-11-07T14:18:05Z</time>
      </trkpt>
      <trkpt lat="48.40138" lon="2.52015">
        <ele>72</ele>
        <time>2024-11-07T14:18:08Z</time>
      </trkpt>
      <trkpt lat="48.4015" lon="2.52037">
        <ele>72</ele>
        <time>2024-11-07T14:18:11Z</time>
      </trkpt>
      <trkpt lat="48.40164" lon="2.52065">
        <ele>72.3</ele>
        <time>2024-11-07T14:18:15Z</time>
      </trkpt>
      <trkpt lat="48.40177" lon="2.5209">
        <ele>73.3</ele>
        <time>2024-11-07T14:18:19Z</time>
      </trkpt>
      <trkpt lat="48.40188" lon="2.52116">
        <ele>74</ele>
        <time>2024-11-07T14:18:23Z</time>
      </trkpt>
      <trkpt lat="48.40195" lon="2.52144">
        <ele>74</ele>
        <time>2024-11-07T14:18:27Z</time>
      </trkpt>
      <trkpt lat="48.40198" lon="2.52175">
        <ele>74</ele>
        <time>2024-11-07T14:18:31Z</time>
      </trkpt>
      <trkpt lat="48.40201" lon="2.52208">
        <ele>73.6</ele>
        <time>2024-11-07T14:18:35Z</time>
      </trkpt>
      <trkpt lat="48.40204" lon="2.52239">
        <ele>73.3</ele>
        <time>2024-11-07T14:18:39Z</time>
      </trkpt>
      <trkpt lat="48.40206" lon="2.52269">
        <ele>73.4</ele>
        <time>2024-11-07T14:18:43Z</time>
      </trkpt>
      <trkpt lat="48.40209" lon="2.52299">
        <ele>73.5</ele>
        <time>2024-11-07T14:18:47Z</time>
      </trkpt>
      <trkpt lat="48.40213" lon="2.5233">
        <ele>73.7</ele>
        <time>2024-11-07T14:18:51Z</time>
      </trkpt>
      <trkpt lat="48.40219" lon="2.5236">
        <ele>73.9</ele>
        <time>2024-11-07T14:18:55Z</time>
      </trkpt>
      <trkpt lat="48.40229" lon="2.52388">
        <ele>74</ele>
        <time>2024-11-07T14:18:59Z</time>
      </trkpt>
      <trkpt lat="48.40242" lon="2.52414">
        <ele>74</ele>
        <time>2024-11-07T14:19:03Z</time>
      </trkpt>
      <trkpt lat="48.40255" lon="2.5244">
        <ele>74</ele>
        <time>2024-11-07T14:19:07Z</time>
      </trkpt>
      <trkpt lat="48.40268" lon="2.52464">
        <ele>74</ele>
        <time>2024-11-07T14:19:11Z</time>
      </trkpt>
      <trkpt lat="48.4028" lon="2.52487">
        <ele>74</ele>
        <time>2024-11-07T14:19:15Z</time>
      </trkpt>
      <trkpt lat="48.40292" lon="2.52511">
        <ele>74</ele>
        <time>2024-11-07T14:19:19Z</time>
      </trkpt>
      <trkpt lat="48.40304" lon="2.52535">
        <ele>74</ele>
        <time>2024-11-07T14:19:23Z</time>
      </trkpt>
      <trkpt lat="48.40317" lon="2.52556">
        <ele>74.4</ele>
        <time>2024-11-07T14:19:27Z</time>
      </trkpt>
      <trkpt lat="48.40332" lon="2.52575">
        <ele>74.9</ele>
        <time>2024-11-07T14:19:31Z</time>
      </trkpt>
      <trkpt lat="48.40348" lon="2.52591">
        <ele>75.5</ele>
        <time>2024-11-07T14:19:35Z</time>
      </trkpt>
      <trkpt lat="48.40365" lon="2.52606">
        <ele>76.1</ele>
        <time>2024-11-07T14:19:39Z</time>
      </trkpt>
      <trkpt lat="48.40382" lon="2.52622">
        <ele>76.7</ele>
        <time>2024-11-07T14:19:43Z</time>
      </trkpt>
      <trkpt lat="48.40398" lon="2.52638">
        <ele>77</ele>
        <time>2024-11-07T14:19:47Z</time>
      </trkpt>
      <trkpt lat="48.40414" lon="2.52654">
        <ele>77</ele>
        <time>2024-11-07T14:19:51Z</time>
      </trkpt>
      <trkpt lat="48.4043" lon="2.52668">
        <ele>77.5</ele>
        <time>2024-11-07T14:19:56Z</time>
      </trkpt>
      <trkpt lat="48.40437" lon="2.52639">
        <ele>77.7</ele>
        <time>2024-11-07T14:20:03Z</time>
      </trkpt>
      <trkpt lat="48.40437" lon="2.52608">
        <ele>77.7</ele>
        <time>2024-11-07T14:20:07Z</time>
      </trkpt>
      <trkpt lat="48.4044" lon="2.52577">
        <ele>77</ele>
        <time>2024-11-07T14:20:11Z</time>
      </trkpt>
      <trkpt lat="48.40444" lon="2.52547">
        <ele>77</ele>
        <time>2024-11-07T14:20:15Z</time>
      </trkpt>
      <trkpt lat="48.40448" lon="2.52518">
        <ele>77</ele>
        <time>2024-11-07T14:20:19Z</time>
      </trkpt>
      <trkpt lat="48.40452" lon="2.52491">
        <ele>76.8</ele>
        <time>2024-11-07T14:20:23Z</time>
      </trkpt>
      <trkpt lat="48.40457" lon="2.52464">
        <ele>76.3</ele>
        <time>2024-11-07T14:20:29Z</time>
      </trkpt>
      <trkpt lat="48.40461" lon="2.52434">
        <ele>75.9</ele>
        <time>2024-11-07T14:20:41Z</time>
      </trkpt>
      <trkpt lat="48.40466" lon="2.52403">
        <ele>75.4</ele>
        <time>2024-11-07T14:20:46Z</time>
      </trkpt>
      <trkpt lat="48.40471" lon="2.52376">
        <ele>74.6</ele>
        <time>2024-11-07T14:20:50Z</time>
      </trkpt>
      <trkpt lat="48.40475" lon="2.52347">
        <ele>74</ele>
        <time>2024-11-07T14:20:54Z</time>
      </trkpt>
      <trkpt lat="48.4048" lon="2.52317">
        <ele>74</ele>
        <time>2024-11-07T14:20:58Z</time>
      </trkpt>
      <trkpt lat="48.40485" lon="2.52286">
        <ele>74</ele>
        <time>2024-11-07T14:21:02Z</time>
      </trkpt>
      <trkpt lat="48.4049" lon="2.52255">
        <ele>74</ele>
        <time>2024-11-07T14:21:06Z</time>
      </trkpt>
      <trkpt lat="48.40494" lon="2.52222">
        <ele>73</ele>
        <time>2024-11-07T14:21:10Z</time>
      </trkpt>
      <trkpt lat="48.405" lon="2.52188">
        <ele>73</ele>
        <time>2024-11-07T14:21:14Z</time>
      </trkpt>
      <trkpt lat="48.40504" lon="2.52153">
        <ele>73</ele>
        <time>2024-11-07T14:21:18Z</time>
      </trkpt>
      <trkpt lat="48.40512" lon="2.52126">
        <ele>72.5</ele>
        <time>2024-11-07T14:21:22Z</time>
      </trkpt>
      <trkpt lat="48.4053" lon="2.5213">
        <ele>72.7</ele>
        <time>2024-11-07T14:21:28Z</time>
      </trkpt>
      <trkpt lat="48.40547" lon="2.52141">
        <ele>73</ele>
        <time>2024-11-07T14:21:35Z</time>
      </trkpt>
      <trkpt lat="48.40567" lon="2.52153">
        <ele>73</ele>
        <time>2024-11-07T14:21:41Z</time>
      </trkpt>
      <trkpt lat="48.40585" lon="2.52162">
        <ele>73</ele>
        <time>2024-11-07T14:21:47Z</time>
      </trkpt>
      <trkpt lat="48.40602" lon="2.52171">
        <ele>73.7</ele>
        <time>2024-11-07T14:21:53Z</time>
      </trkpt>
      <trkpt lat="48.4062" lon="2.52186">
        <ele>74.2</ele>
        <time>2024-11-07T14:22:00Z</time>
      </trkpt>
      <trkpt lat="48.40639" lon="2.52196">
        <ele>75.1</ele>
        <time>2024-11-07T14:22:07Z</time>
      </trkpt>
      <trkpt lat="48.40656" lon="2.52206">
        <ele>76.4</ele>
        <time>2024-11-07T14:22:14Z</time>
      </trkpt>
      <trkpt lat="48.40674" lon="2.52205">
        <ele>77.5</ele>
        <time>2024-11-07T14:22:22Z</time>
      </trkpt>
      <trkpt lat="48.40692" lon="2.52213">
        <ele>78.8</ele>
        <time>2024-11-07T14:23:41Z</time>
      </trkpt>
      <trkpt lat="48.40706" lon="2.52229">
        <ele>81.3</ele>
        <time>2024-11-07T14:23:50Z</time>
      </trkpt>
      <trkpt lat="48.40717" lon="2.52251">
        <ele>83.3</ele>
        <time>2024-11-07T14:24:00Z</time>
      </trkpt>
      <trkpt lat="48.40735" lon="2.52246">
        <ele>87.2</ele>
        <time>2024-11-07T14:24:14Z</time>
      </trkpt>
      <trkpt lat="48.40714" lon="2.52246">
        <ele>82.8</ele>
        <time>2024-11-07T14:26:00Z</time>
      </trkpt>
      <trkpt lat="48.40702" lon="2.52226">
        <ele>80.5</ele>
        <time>2024-11-07T14:26:04Z</time>
      </trkpt>
      <trkpt lat="48.40687" lon="2.52207">
        <ele>78.4</ele>
        <time>2024-11-07T14:26:09Z</time>
      </trkpt>
      <trkpt lat="48.40672" lon="2.52183">
        <ele>77.1</ele>
        <time>2024-11-07T14:26:14Z</time>
      </trkpt>
      <trkpt lat="48.4067" lon="2.52148">
        <ele>75.7</ele>
        <time>2024-11-07T14:26:18Z</time>
      </trkpt>
      <trkpt lat="48.40668" lon="2.52115">
        <ele>74.3</ele>
        <time>2024-11-07T14:26:22Z</time>
      </trkpt>
      <trkpt lat="48.4067" lon="2.5208">
        <ele>73.2</ele>
        <time>2024-11-07T14:26:26Z</time>
      </trkpt>
      <trkpt lat="48.40674" lon="2.52051">
        <ele>73.2</ele>
        <time>2024-11-07T14:26:30Z</time>
      </trkpt>
      <trkpt lat="48.40674" lon="2.5202">
        <ele>73.2</ele>
        <time>2024-11-07T14:26:35Z</time>
      </trkpt>
      <trkpt lat="48.40679" lon="2.51993">
        <ele>73</ele>
        <time>2024-11-07T14:26:41Z</time>
      </trkpt>
      <trkpt lat="48.40684" lon="2.51966">
        <ele>73.1</ele>
        <time>2024-11-07T14:26:47Z</time>
      </trkpt>
      <trkpt lat="48.40688" lon="2.51937">
        <ele>74</ele>
        <time>2024-11-07T14:26:53Z</time>
      </trkpt>
      <trkpt lat="48.40688" lon="2.5191">
        <ele>75.2</ele>
        <time>2024-11-07T14:27:00Z</time>
      </trkpt>
      <trkpt lat="48.40683" lon="2.5188">
        <ele>76.5</ele>
        <time>2024-11-07T14:27:09Z</time>
      </trkpt>
      <trkpt lat="48.40669" lon="2.51861">
        <ele>76.2</ele>
        <time>2024-11-07T14:27:16Z</time>
      </trkpt>
      <trkpt lat="48.40653" lon="2.51845">
        <ele>75.6</ele>
        <time>2024-11-07T14:27:21Z</time>
      </trkpt>
      <trkpt lat="48.40632" lon="2.51848">
        <ele>74.1</ele>
        <time>2024-11-07T14:27:26Z</time>
      </trkpt>
      <trkpt lat="48.40616" lon="2.51836">
        <ele>73.3</ele>
        <time>2024-11-07T14:27:31Z</time>
      </trkpt>
      <trkpt lat="48.4062" lon="2.5181">
        <ele>73.6</ele>
        <time>2024-11-07T14:27:37Z</time>
      </trkpt>
      <trkpt lat="48.40625" lon="2.5178">
        <ele>73.5</ele>
        <time>2024-11-07T14:27:43Z</time>
      </trkpt>
      <trkpt lat="48.4063" lon="2.5175">
        <ele>73.4</ele>
        <time>2024-11-07T14:27:48Z</time>
      </trkpt>
      <trkpt lat="48.40638" lon="2.51718">
        <ele>73</ele>
        <time>2024-11-07T14:27:53Z</time>
      </trkpt>
      <trkpt lat="48.40644" lon="2.5169">
        <ele>73.1</ele>
        <time>2024-11-07T14:27:58Z</time>
      </trkpt>
      <trkpt lat="48.40651" lon="2.51661">
        <ele>73</ele>
        <time>2024-11-07T14:28:03Z</time>
      </trkpt>
      <trkpt lat="48.40659" lon="2.51635">
        <ele>74.2</ele>
        <time>2024-11-07T14:28:08Z</time>
      </trkpt>
      <trkpt lat="48.40665" lon="2.51607">
        <ele>74.8</ele>
        <time>2024-11-07T14:28:14Z</time>
      </trkpt>
      <trkpt lat="48.40673" lon="2.5158">
        <ele>75.1</ele>
        <time>2024-11-07T14:28:41Z</time>
      </trkpt>
      <trkpt lat="48.40682" lon="2.51556">
        <ele>76.3</ele>
        <time>2024-11-07T14:28:48Z</time>
      </trkpt>
      <trkpt lat="48.40694" lon="2.51534">
        <ele>76.4</ele>
        <time>2024-11-07T14:28:54Z</time>
      </trkpt>
      <trkpt lat="48.40705" lon="2.51509">
        <ele>76.5</ele>
        <time>2024-11-07T14:29:00Z</time>
      </trkpt>
      <trkpt lat="48.40716" lon="2.51487">
        <ele>76.9</ele>
        <time>2024-11-07T14:29:06Z</time>
      </trkpt>
      <trkpt lat="48.40733" lon="2.51469">
        <ele>77.6</ele>
        <time>2024-11-07T14:29:13Z</time>
      </trkpt>
      <trkpt lat="48.40745" lon="2.5145">
        <ele>77.9</ele>
        <time>2024-11-07T14:29:18Z</time>
      </trkpt>
      <trkpt lat="48.4076" lon="2.5143">
        <ele>78.2</ele>
        <time>2024-11-07T14:29:23Z</time>
      </trkpt>
      <trkpt lat="48.40775" lon="2.51409">
        <ele>78.3</ele>
        <time>2024-11-07T14:29:28Z</time>
      </trkpt>
      <trkpt lat="48.40787" lon="2.51387">
        <ele>77.6</ele>
        <time>2024-11-07T14:29:35Z</time>
      </trkpt>
      <trkpt lat="48.408" lon="2.51368">
        <ele>77.8</ele>
        <time>2024-11-07T14:30:12Z</time>
      </trkpt>
      <trkpt lat="48.40814" lon="2.51345">
        <ele>78</ele>
        <time>2024-11-07T14:30:18Z</time>
      </trkpt>
      <trkpt lat="48.40825" lon="2.51323">
        <ele>78</ele>
        <time>2024-11-07T14:30:23Z</time>
      </trkpt>
      <trkpt lat="48.40835" lon="2.513">
        <ele>77.9</ele>
        <time>2024-11-07T14:30:28Z</time>
      </trkpt>
      <trkpt lat="48.40845" lon="2.51276">
        <ele>77.7</ele>
        <time>2024-11-07T14:30:33Z</time>
      </trkpt>
      <trkpt lat="48.40855" lon="2.51249">
        <ele>77.5</ele>
        <time>2024-11-07T14:30:39Z</time>
      </trkpt>
      <trkpt lat="48.40866" lon="2.5122">
        <ele>77.6</ele>
        <time>2024-11-07T14:30:45Z</time>
      </trkpt>
      <trkpt lat="48.40873" lon="2.51195">
        <ele>77.8</ele>
        <time>2024-11-07T14:30:50Z</time>
      </trkpt>
      <trkpt lat="48.40881" lon="2.51167">
        <ele>78.1</ele>
        <time>2024-11-07T14:30:56Z</time>
      </trkpt>
      <trkpt lat="48.40887" lon="2.51141">
        <ele>78</ele>
        <time>2024-11-07T14:31:01Z</time>
      </trkpt>
      <trkpt lat="48.40893" lon="2.51113">
        <ele>77.5</ele>
        <time>2024-11-07T14:31:06Z</time>
      </trkpt>
      <trkpt lat="48.40897" lon="2.51085">
        <ele>77.9</ele>
        <time>2024-11-07T14:31:11Z</time>
      </trkpt>
      <trkpt lat="48.40901" lon="2.51058">
        <ele>78.3</ele>
        <time>2024-11-07T14:31:16Z</time>
      </trkpt>
      <trkpt lat="48.40906" lon="2.51032">
        <ele>78.8</ele>
        <time>2024-11-07T14:31:21Z</time>
      </trkpt>
      <trkpt lat="48.4091" lon="2.51001">
        <ele>79.1</ele>
        <time>2024-11-07T14:31:27Z</time>
      </trkpt>
      <trkpt lat="48.40914" lon="2.50971">
        <ele>79.6</ele>
        <time>2024-11-07T14:31:33Z</time>
      </trkpt>
      <trkpt lat="48.40919" lon="2.50942">
        <ele>79.5</ele>
        <time>2024-11-07T14:31:39Z</time>
      </trkpt>
      <trkpt lat="48.40924" lon="2.50912">
        <ele>79.5</ele>
        <time>2024-11-07T14:31:45Z</time>
      </trkpt>
      <trkpt lat="48.40928" lon="2.5088">
        <ele>79.1</ele>
        <time>2024-11-07T14:31:51Z</time>
      </trkpt>
      <trkpt lat="48.40932" lon="2.5085">
        <ele>79</ele>
        <time>2024-11-07T14:31:57Z</time>
      </trkpt>
      <trkpt lat="48.40936" lon="2.50822">
        <ele>78.7</ele>
        <time>2024-11-07T14:32:56Z</time>
      </trkpt>
      <trkpt lat="48.40939" lon="2.50794">
        <ele>78.5</ele>
        <time>2024-11-07T14:33:06Z</time>
      </trkpt>
      <trkpt lat="48.40942" lon="2.50763">
        <ele>78.2</ele>
        <time>2024-11-07T14:33:14Z</time>
      </trkpt>
      <trkpt lat="48.40947" lon="2.50737">
        <ele>78.5</ele>
        <time>2024-11-07T14:33:21Z</time>
      </trkpt>
      <trkpt lat="48.40949" lon="2.5071">
        <ele>78.4</ele>
        <time>2024-11-07T14:33:27Z</time>
      </trkpt>
      <trkpt lat="48.40951" lon="2.50679">
        <ele>77.9</ele>
        <time>2024-11-07T14:33:34Z</time>
      </trkpt>
      <trkpt lat="48.40952" lon="2.50652">
        <ele>77.3</ele>
        <time>2024-11-07T14:33:40Z</time>
      </trkpt>
      <trkpt lat="48.40952" lon="2.50621">
        <ele>76.6</ele>
        <time>2024-11-07T14:33:47Z</time>
      </trkpt>
      <trkpt lat="48.40949" lon="2.50591">
        <ele>76.3</ele>
        <time>2024-11-07T14:33:54Z</time>
      </trkpt>
      <trkpt lat="48.40948" lon="2.50563">
        <ele>76.2</ele>
        <time>2024-11-07T14:34:00Z</time>
      </trkpt>
      <trkpt lat="48.40946" lon="2.50533">
        <ele>76.1</ele>
        <time>2024-11-07T14:34:06Z</time>
      </trkpt>
      <trkpt lat="48.40943" lon="2.50504">
        <ele>76.8</ele>
        <time>2024-11-07T14:34:12Z</time>
      </trkpt>
      <trkpt lat="48.40941" lon="2.50475">
        <ele>77.6</ele>
        <time>2024-11-07T14:34:18Z</time>
      </trkpt>
      <trkpt lat="48.40938" lon="2.50447">
        <ele>77.8</ele>
        <time>2024-11-07T14:34:25Z</time>
      </trkpt>
      <trkpt lat="48.40943" lon="2.5042">
        <ele>78</ele>
        <time>2024-11-07T14:34:32Z</time>
      </trkpt>
      <trkpt lat="48.40944" lon="2.50392">
        <ele>78</ele>
        <time>2024-11-07T14:34:39Z</time>
      </trkpt>
      <trkpt lat="48.40924" lon="2.50395">
        <ele>77.3</ele>
        <time>2024-11-07T14:34:49Z</time>
      </trkpt>
      <trkpt lat="48.40909" lon="2.50409">
        <ele>76.7</ele>
        <time>2024-11-07T14:34:56Z</time>
      </trkpt>
      <trkpt lat="48.40891" lon="2.50423">
        <ele>76.1</ele>
        <time>2024-11-07T14:35:02Z</time>
      </trkpt>
      <trkpt lat="48.40873" lon="2.50439">
        <ele>75.5</ele>
        <time>2024-11-07T14:35:08Z</time>
      </trkpt>
      <trkpt lat="48.40855" lon="2.50456">
        <ele>75.1</ele>
        <time>2024-11-07T14:35:14Z</time>
      </trkpt>
      <trkpt lat="48.40841" lon="2.50472">
        <ele>75</ele>
        <time>2024-11-07T14:35:19Z</time>
      </trkpt>
      <trkpt lat="48.40826" lon="2.5049">
        <ele>75</ele>
        <time>2024-11-07T14:35:24Z</time>
      </trkpt>
      <trkpt lat="48.4081" lon="2.50509">
        <ele>74.7</ele>
        <time>2024-11-07T14:35:29Z</time>
      </trkpt>
      <trkpt lat="48.40793" lon="2.50528">
        <ele>74.4</ele>
        <time>2024-11-07T14:35:34Z</time>
      </trkpt>
      <trkpt lat="48.40777" lon="2.50547">
        <ele>74.3</ele>
        <time>2024-11-07T14:35:39Z</time>
      </trkpt>
      <trkpt lat="48.40762" lon="2.50565">
        <ele>74</ele>
        <time>2024-11-07T14:35:44Z</time>
      </trkpt>
      <trkpt lat="48.40747" lon="2.50584">
        <ele>74</ele>
        <time>2024-11-07T14:35:49Z</time>
      </trkpt>
      <trkpt lat="48.40731" lon="2.50601">
        <ele>74</ele>
        <time>2024-11-07T14:35:54Z</time>
      </trkpt>
      <trkpt lat="48.40715" lon="2.5062">
        <ele>73.5</ele>
        <time>2024-11-07T14:35:59Z</time>
      </trkpt>
      <trkpt lat="48.40701" lon="2.50638">
        <ele>73</ele>
        <time>2024-11-07T14:36:04Z</time>
      </trkpt>
      <trkpt lat="48.40685" lon="2.50657">
        <ele>73</ele>
        <time>2024-11-07T14:36:09Z</time>
      </trkpt>
      <trkpt lat="48.40669" lon="2.50676">
        <ele>72.7</ele>
        <time>2024-11-07T14:36:14Z</time>
      </trkpt>
      <trkpt lat="48.40653" lon="2.50695">
        <ele>72</ele>
        <time>2024-11-07T14:36:19Z</time>
      </trkpt>
      <trkpt lat="48.40639" lon="2.50714">
        <ele>72</ele>
        <time>2024-11-07T14:36:24Z</time>
      </trkpt>
      <trkpt lat="48.40623" lon="2.50733">
        <ele>72</ele>
        <time>2024-11-07T14:36:30Z</time>
      </trkpt>
      <trkpt lat="48.4061" lon="2.50752">
        <ele>72</ele>
        <time>2024-11-07T14:36:35Z</time>
      </trkpt>
      <trkpt lat="48.40594" lon="2.50767">
        <ele>72</ele>
        <time>2024-11-07T14:36:42Z</time>
      </trkpt>
      <trkpt lat="48.40577" lon="2.50788">
        <ele>72</ele>
        <time>2024-11-07T14:36:48Z</time>
      </trkpt>
      <trkpt lat="48.40562" lon="2.50806">
        <ele>72</ele>
        <time>2024-11-07T14:36:54Z</time>
      </trkpt>
      <trkpt lat="48.40545" lon="2.50819">
        <ele>71.6</ele>
        <time>2024-11-07T14:37:00Z</time>
      </trkpt>
      <trkpt lat="48.40532" lon="2.50799">
        <ele>71.1</ele>
        <time>2024-11-07T14:37:06Z</time>
      </trkpt>
    </trkseg>
  </trk>
</gpx>